     2              OBSERVATION DATA    GPS                 RINEX VERSION / TYPE
teqc 1997Jul24 19970902 21:04:01UTC                         PGM / RUN BY / DATE
                                                            COMMENT
BIT 2 OF LLI FLAGS DATA COLLECTED UNDER A-S CONDITION       COMMENT
BIT 2 OF LLI FLAGS DATA COLLECTED UNDER A-S CONDITION       COMMENT
Original Marker Name: MONU.55474                            COMMENT
Campaign Name: Salt. Tr. Crust. Monit. May-Jun 1986         COMMENT
4-Character Station Name: MONU                              COMMENT
6-Character Antenna Code: TI4100                            COMMENT
Vertical Measurement Point: PAE                             COMMENT
Vertical Offset to Rinex Ref. Point: 0.0000                 COMMENT
Radial Measurement Point: RRP                               COMMENT
Radial Offset to Rinex Ref. Point: 0.0000                   COMMENT
Antenna Height from Field Measurement: 1.3415 m             COMMENT
Original XYZ: -2383470.6478 -4801470.4849 3444653.2347      COMMENT
New XYZ position is based on association with SCEC monument COMMENT
E1C8W5H0+0011. Position of that monument is believed to be  COMMENT
valid to within 1 m horizontally; vertical accuracy         COMMENT
should be no worse than 3-times this value.                 COMMENT
                                                            COMMENT
Revised Rinex header created by UCSD GPS archive for        COMMENT
GSAC on 10-Apr-1999 (1999:100) 06:26:18 GMT                 COMMENT
For assistance contact dagnew@ucsd.edu or hjohnson@ucsd.edu COMMENT
                                                            COMMENT
MONUMENT PEAK NCMN 1983                                     MARKER NAME
05 NATIONAL GEODETIC SURVEY                                 OBSERVER / AGENCY
UT-33 TI 4100 1.0                                           REC # / TYPE / VERS
4091 TI 4100                                                ANT # / TYPE
 -2386290.0000 -4802346.0000  3444884.0000                  APPROX POSITION XYZ
        1.3415        0.0000        0.0000                  ANTENNA: DELTA H/E/N
     1     1     0                                          WAVELENGTH FACT L1/2
     4    P1    P2    L1    L2                              # / TYPES OF OBSERV
     6                                                      INTERVAL
  1986     6    16    23    46    1.000000                  TIME OF FIRST OBS
  1986     6    17     1    31   41.000000                  TIME OF LAST OBS
     0                                                      # OF SATELLITES
                                                            END OF HEADER
 86  6 16 23 46  1.1400000  0  1G11
  18687223.910    18687230.263      222360.996 7    -35577.025 7
 86  6 16 23 47 23.0800000  0  1G 6
                                  18636894.934     -389806.468 8
 86  6 16 23 47 29.0800000  0  1G 6
                                  18636158.217     -393674.693 7
 86  6 16 23 47 35.0800000  0  1G 6
                                  18635422.341     -397528.532 9
 86  6 16 23 47 41.0800000  0  3G 6G 9G11
                                  18634720.655     -401368.130 8
                  20178647.253     -479449.087 9
                                  18679955.242     -390781.171 9
 86  6 16 23 47 47.0800000  0  3G 6G 9G11
  18633992.731    18633996.212     -405192.938 9    787409.336 6
                  20175477.550     -496117.477 9
                                  18679560.469     -392866.954 9
 86  6 16 23 47 53.0800000  0  3G 6G 9G11
  18633268.857    18633270.036     -409003.217 9    784440.303 8
                  20172332.407     -512782.373 8
                                  18679193.028     -394930.692 8
 86  6 16 23 47 59.0800000  0  3G 6G 9G11
  18632546.872    18632547.115     -412798.900 9    781482.133 9
  20169162.535    20169165.633     -529442.322 9    872709.812 8
  18678806.091    18678801.400     -396970.888 8    877071.570 5
 86  6 16 23 48  5.0800000  0  3G 6G 9G11
  18631826.687    18631827.825     -416579.914 9    778535.887 8
  20165992.504    20165996.726     -546098.015 9    859731.370 8
  18678420.474    18678420.308     -398988.321 8    875499.587 6
 86  6 16 23 48 11.0800000  0  3G 6G 9G11
  18631109.571    18631110.930     -420346.231 8    775601.103 7
  20162824.333    20162827.081     -562749.344 8    846756.809 8
  18678041.012    18678040.824     -400982.889 8    873945.378 6
 86  6 16 23 48 17.0800000  0  3G 6G 9G11
  18630395.657    18630397.000     -424097.810 9    772677.803 7
  20159656.823    20159658.712     -579396.223 9    833785.222 8
  18677665.752    18677666.822     -402954.607 8    872408.979 7
 86  6 16 23 48 23.0800000  0  3G 6G 9G11
  18629683.186    18629685.048     -427834.623 9    769766.005 8
  20156489.882    20156492.761     -596038.756 9    820817.019 8
  18677295.296    18677296.544     -404903.446 7    870890.408 7
 86  6 16 23 48 29.0800000  0  3G 6G 9G11
  18628975.866    18628977.305     -431556.636 9    766865.745 8
  20153323.689    20153326.552     -612676.823 9    807852.308 8
  18676927.681    18676930.156     -406829.417 8    869389.652 7
 86  6 16 23 48 35.0800000  0  3G 6G 9G11
  18628270.288    18628272.205     -435263.826 8    763977.032 8
  20150158.126    20150161.601     -629310.407 8    794891.079 7
  18676565.412    18676568.389     -408732.454 8    867906.759 7
 86  6 16 23 48 41.0800000  0  3G 6G 9G11
  18627568.115    18627570.348     -438956.064 8    761099.956 8
  20146994.134    20146996.080     -645939.458 9    781933.375 8
  18676207.454    18676208.938     -410612.552 7    866441.756 6
 86  6 16 23 48 47.0800000  0  3G 6G 9G11
  18626868.743    18626871.141     -442633.360 9    758234.537 7
  20143830.199    20143833.187     -662563.944 8    768979.256 8
  18675853.215    18675856.297     -412469.687 8    864994.652 8
 86  6 16 23 48 53.0800000  0  3G 6G 9G11
  18626171.665    18626173.539     -446295.694 9    755380.781 6
  20140667.237    20140669.816     -679183.795 9    756028.728 8
  18675503.712    18675507.458     -414303.918 8    863565.387 7
 86  6 16 23 48 59.0800000  0  3G 6G 9G11
  18625476.520    18625479.114     -449943.108 9    752538.642 9
  20137505.022    20137507.169     -695798.964 9    743081.851 8
  18675159.913    18675162.854     -416115.212 8    862153.986 7
 86  6 16 23 49  5.0800000  0  3G 6G 9G11
  18624786.110    18624788.428     -453575.390 9    749708.285 8
  20134344.550    20134347.256     -712409.473 9    730138.599 7
  18674819.881    18674822.087     -417903.465 8    860760.538 7
 86  6 16 23 49 11.0800000  0  3G 6G 9G11
  18624096.738    18624099.916     -457192.666 9    746889.639 8
  20131185.052    20131187.324     -729015.259 9    717199.038 7
  18674483.484    18674486.544     -419668.670 8    859385.071 6
 86  6 16 23 49 17.0800000  0  3G 6G 9G11
  18623411.679    18623414.980     -460794.772 9    744082.807 6
  20128026.886    20128028.321     -745616.241 9    704263.221 7
  18674152.607    18674155.901     -421410.864 8    858027.510 7
 86  6 16 23 49 23.0800000  0  3G 6G 9G11
  18622729.969    18622730.888     -464381.784 9    741287.723 7
  20124866.781    20124870.123     -762212.461 9    691331.109 8
  18673825.261    18673827.514     -423130.062 8    856687.877 7
 86  6 16 23 49 29.0800000  0  3G 6G 9G11
  18622049.734    18622051.472     -467953.616 9    738504.473 8
  20121710.649    20121713.162     -778803.840 8    678402.757 8
  18673503.198    18673506.397     -424826.157 8    855366.252 7
 86  6 16 23 49 35.0800000  0  3G 6G 9G11
  18621373.387    18621374.616     -471510.224 9    735733.098 8
  20118554.253    20118555.956     -795390.332 9    665478.234 8
  18673185.019    18673189.717     -426499.157 8    854062.615 7
 86  6 16 23 49 41.0800000  0  3G 6G 9G11
  18620699.384    18620701.528     -475051.639 9    732973.546 8
  20115398.869    20115400.735     -811971.954 9    652557.503 8
  18672871.355    18672875.032     -428149.139 9    852776.909 7
 86  6 16 23 49 47.0800000  0  3G 6G 9G11
  18620028.626    18620029.360     -478577.760 9    730225.933 8
  20112244.546    20112246.537     -828548.608 9    639640.624 7
  18672563.044    18672566.825     -429776.005 8    851509.227 6
 86  6 16 23 49 53.0800000  0  3G 6G 9G11
  18619360.857    18619361.170     -482088.566 9    727490.218 8
  20109091.474    20109092.792     -845120.277 8    626727.636 8
  18672257.221    18672259.771     -431379.773 9    850259.554 7
 86  6 16 23 49 59.0800000  0  3G 6G 9G11
  18618695.537    18618696.346     -485584.085 9    724766.445 8
  20105938.868    20105941.078     -861686.937 9    613818.563 8
  18671954.757    18671960.745     -432960.422 7    849027.868 8
 86  6 16 23 50  5.0800000  0  3G 6G 9G11
  18618032.882    18618032.994     -489064.197 9    722054.658 7
  20102786.742    20102789.971     -878248.608 9    600913.385 8
  18671659.848    18671663.129     -434517.971 9    847814.214 7
 86  6 16 23 50 11.0800000  0  3G 6G 9G11
  18617374.119    18617375.583     -492528.909 9    719354.886 6
  20099636.229    20099637.656     -894805.118 9    588012.217 7
  18671366.863    18671372.980     -436052.353 8    846618.591 7
 86  6 16 23 50 17.0800000  0  3G 6G 9G11
  18616717.953    18616718.613     -495978.220 9    716667.095 7
  20096486.685    20096488.781     -911356.503 9    575115.034 8
  18671080.297    18671083.450     -437563.578 9    845441.021 8
 86  6 16 23 50 23.0800000  0  3G 6G 9G11
  18616064.571    18616063.322     -499412.124 9    713991.338 7
  20093338.376    20093340.928     -927902.803 9    562221.823 8
  18670797.064    18670800.559     -439051.658 8    844281.480 7
 86  6 16 23 50 29.0800000  0  3G 6G 9G11
  18615413.658    18615414.424     -502830.500 9    711327.663 7
  20090189.764    20090192.762     -944443.944 9    549332.619 8
  18670518.619    18670521.759     -440516.558 8    843140.001 8
 86  6 16 23 50 35.0800000  0  3G 6G 9G11
  18614765.991    18614764.941     -506233.363 9    708676.075 6
  20087043.803    20087045.716     -960979.844 9    536447.522 9
  18670244.329    18670247.887     -441958.332 8    842016.547 8
 86  6 16 23 50 41.0800000  0  3G 6G 9G11
  18614121.587    18614119.170     -509620.682 9    706036.611 7
  20083898.356    20083900.575     -977510.592 9    523566.429 8
  18669974.594    18669977.467     -443376.910 9    840911.161 8
 86  6 16 23 50 47.0800000  0  3G 6G 9G11
  18613479.497    18613479.214     -512992.444 9    703409.261 7
  20080754.002    20080755.752     -994035.986 8    510689.497 8
  18669708.256    18669713.484     -444772.309 8    839823.856 7
 86  6 16 23 50 53.0800000  0  3G 6G 9G11
  18612841.270    18612839.773     -516348.599 9    700794.067 7
  20077609.609    20077612.423    -1010556.069 9    497816.716 7
  18669447.093    18669450.653     -446144.488 8    838754.619 8
 86  6 16 23 50 59.0800000  0  3G 6G 9G11
  18612204.543    18612204.878     -519689.163 9    698191.028 6
  20074467.505    20074468.121    -1027070.837 9    484948.074 8
  18669190.444    18669193.997     -447493.498 9    837703.448 7
 86  6 16 23 51  5.0800000  0  3G 6G 9G11
  18611572.449    18611571.653     -523014.166 9    695600.116 7
  20071325.584    20071327.898    -1043580.345 9    472083.530 8
  18668938.302    18668941.045     -448819.383 8    836670.283 8
 86  6 16 23 51 11.0800000  0  3G 6G 9G11
  18610942.558    18610942.916     -526323.379 9    693021.501 6
  20068185.008    20068186.522    -1060084.356 9    459223.273 8
  18668690.353    18668694.061     -450121.964 8    835655.299 8
 86  6 16 23 51 17.0800000  0  3G 6G 9G11
  18610315.914    18610316.995     -529617.105 9    690454.980 6
  20065046.069    20065048.192    -1076583.138 9    446367.082 8
  18668445.495    18668450.104     -451401.507 8    834658.256 7
 86  6 16 23 51 23.0800000  0  3G 6G 9G11
  18609692.123    18609693.059     -532894.966 9    687900.778 7
  20061907.308    20061909.098    -1093076.456 9    433515.157 8
  18668207.325    18668211.864     -452657.750 7    833679.365 8
 86  6 16 23 51 29.0800000  0  3G 6G 9G11
  20503293.427    20503294.696     -536191.549 9    685409.585 7
  21952995.076    21952997.286    -1109584.783 9    420729.086 8
  20562195.263    20562199.512     -453927.333 9    832767.646 7
 86  6 16 23 51 35.0800000  0  3G 6G 9G11
  20502676.584    20502677.688     -539438.001 8    682879.882 7
  21949858.814    21949860.404    -1126067.137 9    407885.708 8
  20561965.390    20561968.377     -455137.242 8    831824.866 7
 86  6 16 23 51 41.0800000  0  3G 6G 9G11
  20502062.004    20502062.551     -542668.659 9    680362.488 7
  21946723.113    21946724.718    -1142544.041 9    395046.580 8
  20561739.030    20561742.136     -456323.962 8    830900.157 7
 86  6 16 23 51 47.0800000  0  3G 6G 9G11
  20501449.714    20501450.829     -545883.434 9    677857.466 6
  21943589.220    21943590.719    -1159015.321 9    382211.820 8
  20561515.954    20561521.689     -457487.362 8    829993.614 7
 86  6 16 23 51 53.0800000  0  3G 6G 9G11
  20500841.001    20500841.586     -549082.318 9    675364.818 8
  21940454.734    21940457.202    -1175481.036 9    369381.403 9
  20561300.257    20561303.947     -458627.482 8    829105.211 7
 86  6 16 23 51 59.0800000  0  3G 6G 9G11
  20500235.776    20500237.549     -552265.346 9    672884.539 7
  21937323.182    21937324.594    -1191941.165 9    356555.337 8
  20561088.006    20561091.296     -459744.375 8    828234.924 7
 86  6 16 23 52  5.0800000  0  3G 6G 9G11
  20499633.588    20499633.778     -555432.514 9    670416.614 7
  21934192.045    21934193.264    -1208395.622 9    343733.689 8
  20560879.091    20560883.153     -460838.045 8    827382.704 7
 86  6 16 23 52 11.0800000  0  3G 6G 9G11
  20499033.752    20499035.477     -558583.901 9    667960.977 7
  21931061.570    21931064.130    -1224844.546 9    330916.352 8
  20560676.560    20560679.218     -461908.604 8    826548.501 8
 86  6 16 23 52 17.0800000  0  3G 6G 9G11
  20498437.307    20498439.574     -561719.453 9    665517.698 7
  21927932.844    21927935.256    -1241287.871 9    318103.379 8
  20560477.002    20560479.545     -462956.048 8    825732.317 7
 86  6 16 23 52 23.0800000  0  3G 6G 9G11
  20497844.487    20497845.387     -564839.029 9    663086.850 7
  21924804.720    21924806.434    -1257725.509 9    305294.849 8
  20560282.426    20560284.452     -463980.222 8    824934.253 7
 86  6 16 23 52 29.0800000  0  3G 6G 9G11
  20497253.145    20497255.435     -567942.478 9    660668.585 7
  21921678.031    21921678.494    -1274157.334 9    292490.836 8
  20560093.671    20560094.885     -464981.019 8    824154.411 7
 86  6 16 23 52 35.0800000  0  3G 6G 9G11
  20496665.266    20496667.373     -571029.827 9    658262.854 7
  21918551.824    21918552.868    -1290583.272 9    279691.406 8
  20559906.981    20559908.036     -465958.494 8    823392.754 7
 86  6 16 23 52 41.0800000  0  3G 6G 9G11
  20496081.460    20496081.692     -574101.153 9    655869.633 8
  21915427.334    21915429.936    -1307003.529 9    266896.404 8
  20559724.323    20559726.883     -466912.714 8    822649.204 6
 86  6 16 23 52 47.0800000  0  3G 6G 9G11
  20495499.709    20495501.622     -577156.480 9    653488.844 7
  21912304.136    21912305.344    -1323417.920 9    254105.988 8
  20559547.576    20559549.447     -467843.667 8    821923.791 6
 86  6 16 23 52 53.0800000  0  3G 6G 9G11
  20494921.904    20494923.267     -580195.708 9    651120.616 8
  21909182.155    21909183.004    -1339826.484 9    241320.112 7
  20559375.233    20559377.109     -468751.341 9    821216.521 6
 86  6 16 23 52 59.0800000  0  3G 6G 9G11
  20494346.102    20494346.722     -583219.761 9    648764.221 7
  21906060.601    21906060.704    -1356230.076 9    228538.084 7
  20559206.601    20559208.460     -469636.707 9    820526.627 7
 86  6 16 23 53  5.0800000  0  3G 6G 9G11
  20493773.868    20493774.587     -586226.961 9    646420.950 7
  21902940.448    21902941.516    -1372627.093 9    215761.206 8
  20559042.573    20559044.868     -470498.095 8    819855.419 7
 86  6 16 23 53 11.0800000  0  3G 6G 9G11
  20493204.426    20493205.260     -589218.326 9    644090.011 8
  21899820.738    21899822.076    -1389018.487 8    202988.700 7
  20558882.937    20558885.634     -471336.572 8    819202.041 7
 86  6 16 23 53 17.0800000  0  4G 6G 8G 9G11
  20492637.833    20492638.948     -592193.061 9    641772.042 8
                  22339070.473    -2386004.425 9
  21896702.650    21896704.311    -1405403.499 9    190221.163 8
  20558727.983    20558730.839     -472151.322 8    818567.186 7
 86  6 16 23 53 23.0800000  0  4G 6G 8G 9G11
  20492075.030    20492076.116     -595151.681 9    639466.613 8
                  22342679.140    -2367028.258 9
  21893585.805    21893586.539    -1421782.681 9    177458.178 9
  20558578.508    20558578.476     -472942.900 8    817950.374 7
 86  6 16 23 53 29.0800000  0  4G 6G 8G 9G11
  20491514.796    20491515.206     -598094.120 9    637173.806 8
                  22346326.906    -2348040.430 8
  21890469.680    21890471.254    -1438155.886 9    164699.840 8
  20558431.698    20558433.946     -473711.255 8    817351.678 7
 86  6 16 23 53 35.0800000  0  4G 6G 8G 9G11
  20490957.201    20490959.467     -601020.415 9    634893.569 8
  22349942.579    22349947.337    -2329039.531 8   3437579.320 8
  21887355.138    21887357.007    -1454523.151 9    151946.142 8
  20558291.324    20558291.772     -474456.433 8    816771.022 7
 86  6 16 23 53 41.0800000  0  4G 6G 8G 9G11
  20490403.413    20490405.386     -603930.505 9    632625.963 8
  22353560.816    22353564.064    -2310026.223 8   3452394.880 9
  21884241.874    21884242.904    -1470884.365 9    139197.162 7
  20558153.655    20558153.517     -475178.376 9    816208.459 7
 86  6 16 23 53 47.0800000  0  4G 6G 8G 9G11
  20489853.336    20489853.555     -606824.293 9    630371.062 8
  22357181.000    22357185.142    -2291000.522 9   3467220.597 9
  21881128.742    21881130.132    -1487239.557 9    126452.842 8
  20558020.393    20558022.045     -475877.026 8    815664.058 7
 86  6 16 23 53 53.0800000  0  4G 6G 8G 9G11
  20489305.526    20489307.392     -609701.865 9    628128.803 7
  22360804.265    22360806.932    -2271962.499 9   3482055.422 8
  21878018.459    21878019.750    -1503588.660 9    113713.307 8
  20557891.596    20557893.974     -476552.501 9    815137.704 7
 86  6 16 23 53 59.0800000  0  4G 6G 8G 9G11
  20488761.580    20488761.684     -612564.028 9    625898.544 8
  22364429.319    22364431.983    -2252913.031 9   3496899.151 9
  21874908.139    21874910.038    -1519932.568 9    100977.809 8
  20557767.992    20557770.431     -477205.598 9    814628.794 7
 86  6 16 23 54  5.0800000  0  4G 6G 8G 9G11
  20488219.865    20488221.164     -615409.320 9    623681.441 8
  22368057.417    22368059.318    -2233850.701 8   3511752.917 9
  21871799.202    21871800.270    -1536269.823 8     88247.479 8
  20557647.708    20557648.486     -477834.902 8    814138.434 8
 86  6 16 23 54 11.0800000  0  4G 6G 8G 9G11
  20487682.040    20487683.092     -618238.363 9    621476.997 7
  22371686.911    22371689.802    -2214776.166 9   3526616.180 8
  21868690.890    21868691.978    -1552600.994 9     75521.893 8
  20557530.215    20557534.613     -478441.104 9    813666.076 6
 86  6 16 23 54 17.0800000  0  4G 6G 8G 9G11
  20487147.086    20487147.716     -621050.861 9    619285.448 7
  22375319.043    22375321.068    -2195689.192 9   3541489.143 8
  21865584.666    21865586.009    -1568925.775 9     62801.305 9
  20557419.862    20557422.376     -479023.879 9    813211.988 7
 86  6 16 23 54 23.0800000  0  4G 6G 8G 9G11
  20486614.549    20486615.604     -623846.922 9    617106.688 8
  22378953.155    22378956.214    -2176589.891 9   3556371.703 7
  21862479.768    21862481.241    -1585244.365 9     50085.524 7
  20557312.614    20557316.911     -479583.361 9    812776.015 6
 86  6 16 23 54 29.0800000  0  4G 6G 8G 9G11
  20486085.802    20486086.616     -626626.998 9    614940.403 7
  22382590.030    22382592.786    -2157478.765 9   3571263.488 9
  21859375.556    21859376.081    -1601557.143 9     37374.260 8
  20557210.775    20557215.142     -480120.002 8    812357.854 7
 86  6 16 23 54 35.0800000  0  4G 6G 8G 9G11
  20485559.261    20485561.377     -629390.907 9    612786.699 7
  22386229.415    22386231.354    -2138355.731 9   3586164.560 8
  21856272.526    21856273.090    -1617864.019 9     24667.623 8
  20557112.883    20557117.211     -480633.693 9    811957.576 7
 86  6 16 23 54 41.0800000  0  4G 6G 8G 9G11
  20485037.199    20485038.485     -632138.243 8    610645.925 8
  22389870.532    22389872.895    -2119220.354 9   3601075.235 8
  21853170.007    21853172.709    -1634164.410 9     11966.017 8
  20557019.203    20557022.629     -481124.059 8    811575.495 7
 86  6 16 23 54 47.0800000  0  4G 6G 8G 9G11
  20484517.673    20484518.758     -634868.537 9    608518.417 8
  22393514.267    22393516.551    -2100072.310 8   3615995.787 8
  21850069.397    21850070.991    -1650457.954 9      -730.230 9
  20556931.229    20556934.911     -481590.700 9    811211.886 8
 86  6 16 23 54 53.0800000  0  4G 6G 8G 9G11
  20484000.927    20484001.761     -637582.818 9    606403.404 8
  22397159.913    22397162.218    -2080912.525 9   3630925.472 8
  21846970.452    21846972.812    -1666745.651 9    -13421.940 8
  20556847.747    20556851.230     -482034.472 9    810866.091 7
 86  6 16 23 54 59.0800000  0  4G 6G 8G 9G11
  20483487.589    20483487.368     -640280.286 9    604301.475 9
  22400808.643    22400810.611    -2061740.276 9   3645864.883 8
  21843871.539    21843874.741    -1683026.724 9    -26108.483 7
  20556767.701    20556770.210     -482454.577 9    810538.726 7
 86  6 16 23 55  5.0800000  0  4G 6G 8G 9G11
  20482977.915    20482977.670     -642961.586 9    602212.163 7
  22404459.097    22404461.734    -2042556.285 9   3660813.445 8
  21840775.467    21840776.729    -1699301.693 9    -38790.278 8
  20556691.434    20556694.746     -482851.794 9    810229.202 8
 86  6 16 23 55 11.0800000  0  4G 6G 8G 9G11
  20482470.574    20482471.302     -645626.076 9    600135.930 8
  22408111.566    22408114.386    -2023359.994 8   3675771.581 9
  21837679.301    21837681.439    -1715570.071 9    -51466.934 8
  20556621.718    20556622.912     -483225.566 9    809937.969 8
 86  6 16 23 55 17.0800000  0  4G 6G 8G 9G11
  20481966.859    20481965.970     -648274.559 9    598072.181 7
  22411766.664    22411769.585    -2004152.255 9   3690738.641 8
  21834584.709    21834586.761    -1731832.635 9    -64139.058 7
  20556554.722    20556556.462     -483576.675 9    809664.383 7
 86  6 16 23 55 23.0800000  0  4G 6G 8G 9G11
  20481465.903    20481464.530     -650905.976 9    596021.720 8
  22415423.804    22415426.927    -1984931.976 8   3705715.477 8
                  21831491.640    -1748088.227 8
  20556491.588    20556495.188     -483904.046 8    809409.295 7
 86  6 16 23 55 29.0800000  0  4G 6G 8G 9G11
  20480967.708    20480967.177     -653520.946 9    593984.091 8
  22419084.450    22419085.882    -1965699.849 9   3720701.551 8
  21828399.794    21828400.875    -1764337.576 9    -23822.062 8
  20556434.308    20556437.035     -484208.354 9    809172.181 7
 86  6 16 23 55 35.0800000  0  4G 6G 8G 9G11
  20480472.795    20480474.449     -656119.759 9    591959.033 8
  22422746.035    22422748.540    -1946456.218 9   3735696.577 8
  21825308.199    21825310.321    -1780580.873 9    -36479.167 7
  20556379.976    20556383.629     -484489.952 8    808952.763 7
 86  6 16 23 55 41.0800000  0  4G 6G 8G 9G11
  20479981.328    20479983.140     -658701.987 9    589946.901 8
  22426408.915    22426412.343    -1927200.674 9   3750700.901 8
  21822218.771    21822220.743    -1796817.713 9    -49131.751 8
  20556331.352    20556333.295     -484748.458 8    808751.346 7
 86  6 16 23 55 47.0800000  0  4G 6G 8G 9G11
  20479493.362    20479494.539     -661267.097 9    587948.116 7
  22430076.871    22430079.089    -1907932.743 9   3765714.865 9
  21819129.927    21819131.099    -1813047.604 9    -61778.435 8
  20556285.721    20556288.902     -484983.261 9    808568.395 7
 86  6 16 23 55 53.0800000  0  4G 6G 8G 9G11
  20479008.843    20479009.583     -663815.513 9    585962.317 7
  22433744.351    22433747.866    -1888652.876 9   3780738.137 8
  21816043.434    21816044.745    -1829270.989 9    -74420.022 8
  20556246.070    20556248.550     -485194.851 8    808403.513 7
 86  6 16 23 55 59.0800000  0  4G 6G 8G 9G11
  20478526.853    20478528.749     -666347.295 9    583989.507 7
  22437416.433    22437419.332    -1869361.214 9   3795770.595 8
  21812956.925    21812958.767    -1845487.894 9    -87056.570 8
  20556210.665    20556212.262     -485383.318 9    808256.656 7
 86  6 16 23 56  5.0800000  0  4G 6G 8G 9G11
  20478048.515    20478049.300     -668862.518 9    582029.600 8
  22441089.639    22441092.614    -1850057.786 9   3810812.231 8
  21809871.830    21809873.168    -1861698.253 9    -99688.019 7
  20556179.631    20556182.383     -485548.716 9    808127.781 8
 86  6 16 23 56 11.0800000  0  4G 6G 8G 9G11
  20477571.764    20477574.091     -671361.049 8    580082.694 7
  22444764.526    22444767.065    -1830742.625 9   3825862.996 8
  21806789.099    21806789.539    -1877902.100 9   -112314.387 8
  20556152.687    20556154.939     -485690.944 9    808016.947 8
 86  6 16 23 56 17.0800000  0  4G 6G 8G 9G11
  20477099.904    20477102.082     -673842.917 9    578148.764 8
  22448443.011    22448445.379    -1811415.719 9   3840922.935 8
  21803706.503    21803707.647    -1894099.354 9   -124935.620 8
  20556129.875    20556131.355     -485810.099 9    807924.097 7
 86  6 16 23 56 23.0800000  0  4G 6G 8G 9G11
  20476631.281    20476632.094     -676308.147 9    576227.802 7
  22452122.450    22452126.716    -1792077.076 9   3855991.994 8
  21800626.281    21800628.880    -1910290.121 9   -137551.781 7
  20556110.145    20556112.441     -485906.140 8    807849.267 7
 86  6 16 23 56 29.0800000  0  4G 6G 8G 9G11
  20476164.884    20476166.588     -678756.526 9    574319.983 7
  22455805.017    22455808.244    -1772726.665 8   3871070.236 8
  21797546.273    21797547.217    -1926474.088 9   -150162.667 7
  20556097.308    20556100.158     -485978.941 8    807792.543 7
 86  6 16 23 56 35.0800000  0  4G 6G 8G 9G11
  20475702.818    20475705.409     -681188.348 9    572425.049 7
  22459490.012    22459492.983    -1753364.712 9   3886157.484 8
  21794467.090    21794469.171    -1942651.611 9   -162768.530 9
  20556087.892    20556090.631     -486028.803 9    807753.684 7
 86  6 16 23 56 41.0800000  0  4G 6G 8G 9G11
  20475243.805    20475245.312     -683603.288 9    570543.278 8
  22463176.768    22463179.603    -1733991.022 9   3901253.854 8
  21791388.934    21791391.497    -1958822.333 9   -175369.093 8
  20556082.110    20556085.107     -486055.496 8    807732.896 7
 86  6 16 23 56 47.0800000  0  4G 6G 8G 9G11
  20474788.378    20474787.538     -686001.409 9    568674.612 8
  22466866.195    22466868.407    -1714605.634 9   3916359.348 8
  21788313.389    21788315.942    -1974986.297 9   -187964.380 9
  20556082.081    20556084.907     -486059.030 9    807730.145 6
 86  6 16 23 56 53.0800000  0  4G 6G 8G 9G11
  20474334.096    20474335.160     -688382.813 9    566818.970 7
  22470556.526    22470560.148    -1695208.675 9   3931473.856 8
  21785238.875    21785240.496    -1991143.677 9   -200554.554 8
  20556085.030    20556089.656     -486039.508 8    807745.354 8
 86  6 16 23 56 59.0800000  0  4G 6G 8G 9G11
  20473883.948    20473885.337     -690747.489 9    564976.363 8
  22474250.568    22474253.613    -1675800.281 9   3946597.282 9
  21782166.512    21782168.000    -2007294.411 9   -213139.515 8
  20556093.968    20556096.841     -485996.991 8    807778.480 8
 86  6 16 23 57  5.0800000  0  4G 6G 8G 9G11
  20473436.626    20473438.628     -693095.276 9    563146.923 8
  22477945.850    22477947.812    -1656380.226 9   3961729.801 8
  21779093.633    21779095.442    -2023438.265 9   -225719.152 7
  20556105.905    20556109.402     -485931.301 8    807829.664 8
 86  6 16 23 57 11.0800000  0  4G 6G 8G 9G11
  20472992.520    20472995.088     -695426.232 9    561330.586 6
  22481643.080    22481646.235    -1636948.633 9   3976871.299 8
  21776023.494    21776024.653    -2039575.420 9   -238293.544 7
  20556123.278    20556125.688     -485842.579 8    807898.806 8
 86  6 16 23 57 17.0800000  0  4G 6G 8G 9G11
  20472552.925    20472555.029     -697740.270 9    559527.443 8
  22485344.217    22485346.103    -1617505.491 9   3992021.799 8
  21772953.682    21772954.244    -2055705.710 9   -250862.612 7
  20556143.640    20556146.550     -485730.812 9    807985.903 7
 86  6 16 23 57 23.0800000  0  4G 6G 8G 9G11
  20472115.808    20472117.655     -700037.428 9    557737.445 8
  22489045.519    22489048.919    -1598050.921 9   4007181.196 8
  21769885.881    21769887.154    -2071829.144 9   -263426.313 8
  20556169.308    20556173.249     -485595.950 8    808090.980 6
 86  6 16 23 57 29.0800000  0  4G 6G 8G 9G11
  20471682.411    20471684.031     -702317.698 9    555960.614 7
  22492750.384    22492752.781    -1578584.820 9   4022349.586 7
  21766818.248    21766821.021    -2087945.772 9   -275984.722 8
  20556200.286    20556202.753     -485437.976 8    808214.084 7
 86  6 16 23 57 35.0800000  0  4G 6G 8G 9G11
  20471251.647    20471253.358     -704581.084 9    554196.945 8
  22496456.400    22496458.580    -1559107.359 9   4037526.830 8
  21763753.120    21763755.398    -2104055.572 9   -288537.816 7
  20556234.258    20556236.235     -485256.968 9    808355.122 7
 86  6 16 23 57 41.0800000  0  4G 6G 8G 9G11
  20470824.063    20470825.392     -706827.506 9    552446.483 8
  22500165.572    22500167.546    -1539618.464 9   4052712.987 7
  21760688.598    21760691.200    -2120158.521 8   -301085.556 8
  20556273.376    20556276.497     -485052.880 9    808514.154 8
 86  6 16 23 57 47.0800000  0  4G 6G 8G 9G11
  20470399.799    20470401.714     -709056.963 9    550709.249 8
  22503876.086    22503879.472    -1520118.135 9   4067908.042 8
  21757625.274    21757627.844    -2136254.551 9   -313627.912 8
  20556315.304    20556317.369     -484825.746 8    808691.147 6
 86  6 16 23 57 53.0800000  0  4G 6G 8G 9G11
  20469978.193    20469980.120     -711269.489 9    548985.216 7
  22507589.444    22507592.082    -1500606.453 9   4083111.942 8
  21754563.303    21754567.770    -2152343.694 9   -326164.905 8
  20556363.853    20556366.934     -484575.507 7    808886.127 7
 86  6 16 23 57 59.0800000  0  4G 6G 8G 9G11
  20469560.228    20469563.104     -713465.045 9    547274.390 7
  22511303.338    22511306.194    -1481083.508 9   4098324.623 8
  21751503.622    21751505.511    -2168425.877 9   -338696.472 7
  20556414.825    20556418.593     -484302.313 8    809099.004 6
 86  6 16 23 58  5.0800000  0  4G 6G 8G 9G11
  20469145.413    20469149.215     -715643.597 9    545576.813 8
  22515022.231    22515024.041    -1461549.177 9   4113546.175 8
  21748445.142    21748446.960    -2184501.012 9   -351222.545 8
  20556471.058    20556474.796     -484006.081 8    809329.846 7
 86  6 16 23 58 11.0800000  0  4G 6G 8G 9G11
  20468733.760    20468738.117     -717805.193 9    543892.449 8
  22518741.584    22518743.965    -1442003.636 9   4128776.462 8
  21745387.293    21745389.697    -2200569.259 9   -363743.245 8
  20556530.710    20556535.325     -483686.840 9    809578.617 6
 86  6 16 23 58 17.0800000  0  4G 6G 8G 9G11
  20468325.427    20468328.702     -719949.796 9    542221.311 8
  22522462.052    22522465.689    -1422446.920 9   4144015.455 7
  21742330.489    21742332.182    -2216630.683 9   -376258.630 8
  20556597.649    20556600.858     -483344.648 8    809845.249 6
 86  6 16 23 58 23.0800000  0  4G 6G 8G 9G11
  20467921.551    20467924.323     -722077.481 9    540563.385 8
  22526185.876    22526189.288    -1402879.045 9   4159263.146 9
  21739276.139    21739277.783    -2232685.065 8   -388768.538 8
  20556666.720    20556669.861     -482979.563 8    810129.741 7
 86  6 16 23 58 29.0800000  0  4G 6G 8G 9G11
  20467519.860    20467522.191     -724188.112 9    538918.740 8
  22529911.810    22529914.803    -1383300.004 9   4174519.540 8
  21736221.748    21736224.105    -2248732.369 9   -401272.923 8
  20556740.096    20556744.894     -482591.412 9    810432.198 7
 86  6 16 23 58 35.0800000  0  4G 6G 8G 9G11
  20467121.435    20467123.995     -726281.627 9    537287.417 8
  22533639.813    22533642.960    -1363709.751 9   4189784.649 9
  21733169.863    21733171.603    -2264772.704 9   -413771.886 8
  20556818.398    20556821.564     -482180.230 8    810752.591 7
 86  6 16 23 58 41.0800000  0  4G 6G 8G 9G11
  20466726.521    20466728.517     -728358.041 9    535669.446 8
  22537369.796    22537372.015    -1344108.299 9   4205058.515 8
  21730118.939    21730120.196    -2280805.868 9   -426265.260 9
  20556900.958    20556904.789     -481746.087 9    811090.912 7
 86  6 16 23 58 47.0800000  0  4G 6G 8G 9G11
  20466334.846    20466336.693     -730417.278 9    534064.846 8
  22541101.877    22541104.882    -1324495.661 9   4220341.082 8
  21727069.748    21727070.429    -2296831.900 9   -438753.065 8
  20556988.344    20556991.183     -481288.876 7    811447.176 7
 86  6 16 23 58 53.0800000  0  4G 6G 8G 9G11
  20465945.916    20465947.367     -732459.430 9    532473.555 9
  22544835.481    22544839.733    -1304871.896 9   4235632.319 8
  21724020.811    21724022.630    -2312850.761 9   -451235.306 9
  20557078.549    20557082.332     -480808.696 8    811821.351 7
 86  6 16 23 58 59.0800000  0  4G 6G 8G 9G11
  20465560.626    20465562.610     -734484.420 9    530895.656 8
  22548571.777    22548575.681    -1285237.097 9   4250932.159 7
  21720974.617    21720975.233    -2328862.444 9   -463711.926 8
  20557175.909    20557178.547     -480305.544 8    812213.421 7
 86  6 16 23 59  5.0800000  0  4G 6G 8G 9G11
  20465178.806    20465179.547     -736492.298 9    529331.069 8
  22552310.861    22552314.404    -1265591.261 9   4266240.599 7
  21717928.861    21717929.792    -2344866.950 9   -476182.969 8
  20557275.586    20557277.624     -479779.424 9    812623.390 6
 86  6 16 23 59 11.0800000  0  4G 6G 8G 9G11
  20464800.299    20464802.118     -738483.052 9    527779.833 8
  22556050.196    22556054.746    -1245934.419 9   4281557.611 8
  21714883.873    21714886.031    -2360864.369 9   -488648.477 8
  20557379.169    20557381.852     -479230.384 8    813051.216 8
 86  6 16 23 59 17.0800000  0  4G 6G 8G 9G11
  20464424.228    20464426.182     -740456.644 9    526241.975 8
  22559793.981    22559797.653    -1226266.620 9   4296883.165 7
  21711840.966    21711842.997    -2376854.542 9   -501108.347 8
  20557488.992    20557491.175     -478658.422 8    813496.895 7
 86  6 16 23 59 23.0800000  0  4G 6G 8G 9G11
  20464052.570    20464054.571     -742413.005 9    524717.532 7
  22563539.433    22563541.116    -1206587.858 9   4312217.265 7
  21708800.385    21708801.045    -2392837.563 9   -513562.643 8
  20557602.953    20557605.505     -478063.572 8    813960.427 8
 86  6 16 23 59 29.0800000  0  4G 6G 8G 9G11
  20463684.275    20463684.948     -744352.238 9    523206.452 9
  22567285.795    22567288.263    -1186898.175 9   4327559.870 8
  21705759.228    21705760.430    -2408813.398 9   -526011.336 8
  20557720.728    20557722.864     -477445.796 8    814441.815 8
 86  6 16 23 59 35.0800000  0  4G 6G 8G 9G11
  20463318.125    20463318.599     -746274.263 9    521708.788 8
  22571034.246    22571037.733    -1167197.621 9   4342910.948 8
  21702721.018    21702722.417    -2424781.912 9   -538454.337 8
  20557842.542    20557844.522     -476805.126 9    814941.042 8
 86  6 16 23 59 41.0800000  0  4G 6G 8G 9G11
  20462955.110    20462957.161     -748179.019 9    520224.549 7
  22574785.643    22574787.122    -1147486.138 9   4358270.551 8
  21699683.471    21699684.653    -2440743.098 9   -550891.619 8
  20557968.991    20557970.929     -476141.525 8    815458.131 8
 86  6 16 23 59 47.0800000  0  4G 6G 8G 9G11
  20462596.588    20462596.935     -750066.558 9    518753.746 8
  22578538.200    22578540.922    -1127763.832 9   4373638.577 7
  21696647.535    21696649.728    -2456697.032 9   -563323.245 8
  20558099.665    20558101.230     -475455.022 8    815993.079 6
 86  6 16 23 59 53.0800000  0  4G 6G 8G 9G11
  20462239.723    20462240.052     -751936.843 9    517296.381 7
  22582293.518    22582295.876    -1108030.709 9   4389015.036 7
  21693613.610    21693614.119    -2472643.663 9   -575749.174 9
  20558235.000    20558237.307     -474745.646 8    816545.839 7
 86  6 16 23 59 59.0800000  0  4G 6G 8G 9G11
  20461886.594    20461887.926     -753789.874 9    515852.457 7
  22586050.659    22586051.867    -1088286.773 9   4404399.912 8
  21690580.601    21690582.059    -2488582.897 9   -588169.362 8
  20558374.356    20558377.597     -474013.465 8    817116.371 7
 86  6 17  0  0  5.0800000  0  4G 6G 8G 9G11
  20461537.144    20461538.588     -755625.616 9    514421.998 8
  22589809.848    22589811.378    -1068532.069 9   4419793.181 8
  21687548.765    21687549.656    -2504514.820 9   -600583.831 8
  20558517.773    20558521.314     -473258.397 9    817704.737 8
 86  6 17  0  0 11.0800000  0  4G 6G 8G 9G11
  20461190.802    20461193.525     -757444.030 9    513005.058 7
  22593570.312    22593573.639    -1048766.634 9   4435194.828 7
  21684518.831    21684519.407    -2520439.385 9   -612992.587 8
  20558665.847    20558669.386     -472480.416 8    818310.974 7
 86  6 17  0  0 17.0800000  0  4G 6G 8G 9G11
  20460848.274    20460851.701     -759245.220 9    511601.533 7
  22597334.043    22597336.908    -1028990.498 9   4450604.786 7
  21681489.632    21681490.981    -2536356.622 9   -625395.612 8
  20558818.296    20558821.233     -471679.607 8    818934.977 7
 86  6 17  0  0 23.0800000  0  4G 6G 8G 9G11
  20460509.175    20460510.891     -761028.991 9    510211.588 8
  22601099.723    22601102.754    -1009203.660 9   4466023.105 8
  21678462.432    21678462.338    -2552266.355 9   -637792.798 8
  20558974.480    20558977.180     -470855.954 8    819576.783 7
 86  6 17  0  0 29.0800000  0  4G 6G 8G 9G11
  20460172.789    20460175.106     -762795.495 9    508835.077 7
  22604867.119    22604869.421     -989406.153 9   4481449.724 7
  21675435.535    21675437.171    -2568168.707 9   -650184.243 8
  20559135.874    20559138.244     -470009.489 8    820236.371 7
 86  6 17  0  0 35.0800000  0  4G 6G 8G 9G11
  20459840.160    20459842.165     -764544.605 9    507472.133 8
  22608636.187    22608637.901     -969597.984 9   4496884.664 7
  21672411.194    21672412.248    -2584063.545 9   -662569.825 8
  20559302.804    20559304.112     -469140.179 9    820913.748 7
 86  6 17  0  0 41.0800000  0  4G 6G 8G 9G11
  20459509.118    20459511.289     -766276.278 9    506122.775 8
  22612408.377    22612408.778     -949779.139 8   4512327.924 7
  21669387.964    21669389.517    -2599950.932 9   -674949.601 7
  20559471.666    20559473.905     -468248.032 9    821608.939 7
 86  6 17  0  0 47.0800000  0  4G 6G 8G 9G11
  20459183.747    20459185.492     -767990.545 9    504786.989 7
  22616180.316    22616183.211     -929949.715 9   4527779.412 7
  21666365.147    21666367.492    -2615830.687 9   -687323.422 8
  20559646.611    20559648.190     -467333.060 9    822321.899 7
 86  6 17  0  0 53.0800000  0  4G 6G 8G 9G11
  20458861.229    20458862.032     -769687.458 9    503464.720 7
  22619955.502    22619958.537     -910109.734 8   4543239.113 8
  21663344.959    21663346.574    -2631702.977 9   -699691.434 8
  20559823.356    20559827.712     -466395.238 9    823052.668 7
 86  6 17  0  0 59.0800000  0  4G 6G 8G 9G11
  20458541.387    20458541.843     -771366.951 9    502156.020 7
  22623734.052    22623735.748     -890259.249 9   4558707.030 7
  21660325.834    21660327.639    -2647567.738 9   -712053.580 8
  20560005.757    20560009.012     -465434.650 9    823801.184 8
 86  6 17  0  1  5.0800000  0  4G 6G 8G 9G11
  20458225.873    20458226.646     -773028.980 9    500860.937 7
  22627512.406    22627516.130     -870398.204 9   4574183.173 8
  21657308.466    21657309.842    -2663424.902 9   -724409.803 8
  20560192.719    20560196.174     -464451.263 8    824567.472 7
 86  6 17  0  1 11.0800000  0  4G 6G 8G 9G11
  20457912.562    20457913.212     -774673.557 9    499579.436 7
  22631294.764    22631296.635     -850526.707 8   4589667.454 8
  21654292.596    21654293.964    -2679274.556 9   -736760.165 8
  20560384.008    20560387.662     -463445.123 8    825351.470 7
 86  6 17  0  1 17.0800000  0  4G 6G 8G 9G11
  20457604.138    20457603.556     -776300.674 9    498311.553 9
  22635078.630    22635079.626     -830644.723 9   4605159.902 7
  21651278.066    21651279.530    -2695116.606 9   -749104.630 8
  20560578.923    20560582.664     -462416.208 9    826153.221 6
 86  6 17  0  1 23.0800000  0  4G 6G 8G 9G11
  20457297.934    20457297.260     -777910.352 9    497057.262 8
  22638864.138    22638866.013     -810752.305 9   4620660.481 7
  21648264.583    21648266.511    -2710951.024 9   -761443.129 9
  20560779.981    20560782.621     -461364.578 8    826972.697 8
 86  6 17  0  1 29.0800000  0  4G 6G 8G 9G11
  20456994.783    20456994.236     -779502.467 9    495816.655 8
  22642650.080    22642652.320     -790849.537 8   4636169.132 7
  21645252.273    21645254.415    -2726777.807 9   -773775.670 8
  20560984.576    20560988.326     -460290.139 8    827809.913 7
 86  6 17  0  1 35.0800000  0  4G 6G 8G 9G11
  20456694.935    20456695.655     -781077.189 9    494589.596 8
  22646439.913    22646440.726     -770936.386 8   4651685.874 8
  21642242.453    21642243.970    -2742596.975 9   -786102.289 8
  20561192.325    20561195.126     -459192.960 8    828664.855 6
 86  6 17  0  1 41.0800000  0  4G 6G 8G 9G11
  20456398.401    20456398.511     -782634.404 9    493376.175 8
  22650231.498    22650232.850     -751012.886 9   4667210.677 7
  21639233.647    21639235.180    -2758408.514 9   -798422.969 9
  20561405.734    20561408.447     -458073.115 8    829537.470 7
 86  6 17  0  1 47.0800000  0  4G 6G 8G 9G11
  20456104.083    20456106.037     -784174.045 9    492176.450 7
  22654025.206    22654026.958     -731079.060 8   4682743.519 8
  21636226.640    21636227.337    -2774212.255 9   -810737.559 8
  20561623.793    20561626.171     -456930.524 8    830427.798 8
 86  6 17  0  1 53.0800000  0  4G 6G 8G 9G11
  20455814.789    20455817.368     -785696.108 9    490990.430 8
  22657819.533    22657820.794     -711134.933 9   4698284.379 7
  21633220.270    21633222.102    -2790008.289 9   -823046.148 8
  20561846.199    20561847.363     -455765.203 8    831335.844 8
 86  6 17  0  1 59.0800000  0  4G 6G 8G 9G11
  20455529.063    20455530.504     -787200.602 9    489818.099 8
  22661617.734    22661619.046     -691180.484 9   4713833.303 7
  21630216.330    21630216.730    -2805796.495 9   -835348.646 9
  20562071.955    20562073.793     -454577.195 9    832261.552 7
 86  6 17  0  2  5.0800000  0  4G 6G 8G 9G11
  20455245.779    20455249.140     -788687.502 9    488659.466 8
  22665416.405    22665418.942     -671215.782 8   4729390.218 7
  21627213.623    21627214.073    -2821576.890 9   -847645.062 8
  20562302.146    20562304.341     -453366.472 9    833204.980 8
 86  6 17  0  2 11.0800000  0  4G 6G 8G 9G11
  20454967.010    20454968.990     -790156.818 9    487514.554 8
  22669217.869    22669220.164     -651240.882 9   4744955.067 7
  21624212.225    21624213.037    -2837349.679 9   -859935.517 9
  20562537.063    20562539.097     -452133.098 9    834166.052 7
 86  6 17  0  2 17.0800000  0  4G 6G 8G 9G11
  20454690.036    20454692.072     -791608.572 9    486383.321 7
  22673020.951    22673023.470     -631255.798 8   4760527.857 8
  21621212.274    21621212.912    -2853114.531 9   -872219.812 8
  20562775.866    20562776.232     -450877.066 8    835144.770 7
 86  6 17  0  2 23.0800000  0  4G 6G 8G 9G11
  20454417.321    20454419.424     -793042.696 9    485265.813 8
  22676825.772    22676828.064     -611260.588 9   4776108.541 7
  21618213.354    21618214.728    -2868871.673 9   -884498.094 8
  20563018.163    20563021.031     -449598.360 8    836141.168 7
 86  6 17  0  2 29.0800000  0  4G 6G 8G 9G11
  20454146.909    20454148.868     -794459.216 9    484162.039 7
  22680633.113    22680635.423     -591255.220 9   4791697.129 7
  21615217.446    21615217.183    -2884620.915 9   -896770.228 8
  20563266.684    20563267.779     -448296.984 8    837155.223 6
 86  6 17  0  2 35.0800000  0  4G 6G 8G 9G11
  20453880.568    20453882.636     -795858.090 9    483072.006 8
  22684442.384    22684444.565     -571239.711 8   4807293.635 7
  21612221.519    21612221.676    -2900362.344 9   -909036.268 9
  20563518.253    20563520.934     -446972.946 7    838186.928 7
 86  6 17  0  2 41.0800000  0  4G 6G 8G 9G11
  20453617.657    20453619.615     -797239.258 9    481995.768 8
  22688252.864    22688253.972     -551214.131 9   4822897.971 7
  21609228.084    21609227.850    -2916095.788 9   -921296.085 8
  20563775.417    20563776.525     -445626.217 9    839236.337 7
 86  6 17  0  2 47.0800000  0  4G 6G 8G 9G11
  20453357.862    20453361.078     -798602.743 8    480933.305 8
  22692066.522    22692067.002     -531178.504 9   4838510.146 7
  21606235.485    21606236.149    -2931821.317 9   -933549.742 8
  20564035.328    20564038.012     -444256.830 9    840303.379 7
 86  6 17  0  2 53.0800000  0  4G 6G 8G 9G11
  20453101.480    20453104.486     -799948.551 9    479884.622 8
  22695881.402    22695882.704     -511132.813 9   4854130.150 7
  21603244.692    21603245.187    -2947538.965 9   -945797.242 7
  20564299.620    20564301.758     -442864.780 9    841388.094 7
 86  6 17  0  2 59.0800000  0  4G 6G 8G 9G11
  20452848.518    20452851.751     -801276.599 8    478849.785 8
  22699696.919    22699699.166     -491077.062 9   4869758.018 6
  21600254.995    21600254.661    -2963248.624 9   -958038.535 7
  20564568.445    20564573.486     -441450.115 8    842490.444 8
 86  6 17  0  3  5.0800000  0  4G 6G 8G 9G11
  20452599.539    20452602.662     -802586.957 9    477828.725 8
  22703515.371    22703517.367     -471011.342 9   4885393.633 7
  21597267.505    21597266.297    -2978950.292 9   -970273.584 7
  20564841.478    20564846.907     -440012.818 8    843610.412 7
 86  6 17  0  3 11.0800000  0  4G 6G 8G 9G11
  20452353.389    20452356.951     -803879.547 9    476821.513 8
  22707335.796    22707336.116     -450935.654 9   4901037.044 7
  21594280.343    21594280.287    -2994643.955 9   -982502.405 8
  20565118.978    20565124.419     -438552.921 8    844747.995 7
 86  6 17  0  3 17.0800000  0  4G 6G 8G 9G11
  20452110.860    20452114.799     -805154.423 8    475828.097 8
  22711156.930    22711159.449     -430850.048 9   4916688.156 8
  21591295.867    21591295.889    -3010329.626 9   -994725.001 8
  20565401.384    20565405.651     -437070.472 8    845903.147 8
 86  6 17  0  3 23.0800000  0  4G 6G 8G 9G11
  20451871.295    20451874.990     -806411.506 9    474848.567 8
  22714981.369    22714983.028     -410754.548 9   4932346.981 7
  21588312.449    21588312.193    -3026007.267 9  -1006941.337 8
  20565688.411    20565691.578     -435565.440 9    847075.905 7
 86  6 17  0  3 29.0800000  0  4G 6G 8G 9G11
  20451636.211    20451638.682     -807650.817 9    473882.872 8
  22718807.426    22718807.963     -390649.172 8   4948013.514 7
  21585330.953    21585330.470    -3041676.769 9  -1019151.334 8
  20565978.256    20565981.798     -434037.872 8    848266.220 7
 86  6 17  0  3 35.0800000  0  4G 6G 8G 9G11
  20451403.566    20451407.044     -808872.359 9    472931.023 8
  22722634.568    22722637.400     -370533.925 9   4963687.726 8
  21582350.765    21582350.458    -3057338.236 9  -1031355.063 8
  20566274.370    20566278.482     -432487.784 8    849474.089 8
 86  6 17  0  3 41.0800000  0  4G 6G 8G 9G11
  20451175.166    20451177.817     -810076.090 9    471993.053 8
  22726464.874    22726465.847     -350408.854 8   4979369.596 8
  21579371.207    21579371.150    -3072991.711 9  -1043552.575 8
  20566574.174    20566577.631     -430915.141 9    850699.517 7
 86  6 17  0  3 47.0800000  0  4G 6G 8G 9G11
  20450949.487    20450952.241     -811261.978 9    471068.985 8
  22730295.975    22730297.555     -330273.990 8   4995059.094 7
  21576394.356    21576393.824    -3088637.063 9  -1055743.738 8
  20566877.974    20566880.067     -429319.915 9    851942.573 6
 86  6 17  0  3 53.0800000  0  4G 6G 8G 9G11
  20450727.864    20450729.065     -812430.106 9    470158.764 8
  22734130.086    22734131.486     -310129.327 8   5010756.236 7
  21573418.207    21573418.916    -3104274.214 9  -1067928.529 8
  20567186.352    20567189.346     -427702.221 8    853203.107 7
 86  6 17  0  3 59.0800000  0  4G 6G 8G 9G11
  20450508.564    20450510.888     -813580.339 9    469262.479 9
  22737965.236    22737966.016     -289974.932 8   5026460.949 7
  21570444.070    21570444.742    -3119903.291 9  -1080107.018 8
  20567498.464    20567500.859     -426061.981 9    854481.224 8
 86  6 17  0  4  5.0800000  0  4G 6G 8G 9G11
  20450294.479    20450294.844     -814712.696 9    468380.137 8
  22741801.233    22741804.112     -269810.798 8   5042173.254 8
  21567471.274    21567472.856    -3135524.147 9  -1092279.116 8
  20567815.526    20567816.631     -424399.250 9    855776.862 7
 86  6 17  0  4 11.0800000  0  4G 6G 8G 9G11
  20450083.192    20450082.997     -815827.177 9    467511.717 7
  22745640.349    22745642.551     -249636.938 7   5057893.136 8
  21564500.007    21564500.708    -3151136.767 9  -1104444.792 8
  20568136.382    20568138.243     -422714.000 9    857090.056 8
 86  6 17  0  4 17.0800000  0  4G 6G 8G 9G11
  20449874.098    20449874.566     -816923.750 9    466657.244 9
  22749481.623    22749484.234     -229453.402 8   5073620.566 8
  21561530.833    21561532.403    -3166741.161 9  -1116604.050 8
  20568461.514    20568463.009     -421006.248 9    858420.767 7
 86  6 17  0  4 23.0800000  0  4G 6G 8G 9G11
  20449668.598    20449668.467     -818002.417 8    465816.723 8
  22753323.340    22753326.774     -209260.223 8   5089355.501 9
  21558562.624    21558564.325    -3182337.302 9  -1128756.876 8
  20568791.497    20568791.860     -419276.008 9    859769.016 7
 86  6 17  0  4 29.0800000  0  4G 6G 8G 9G11
  20449466.609    20449467.446     -819063.222 8    464990.121 8
  22757166.968    22757170.637     -189057.404 8   5105097.937 9
  21555595.953    21555598.111    -3197925.217 9  -1140903.304 8
  20569124.643    20569127.068     -417523.242 9    861134.824 7
 86  6 17  0  4 35.0800000  0  4G 6G 8G 9G11
  20449268.214    20449267.651     -820106.018 8    464177.547 8
  22761014.359    22761017.313     -168844.986 8   5120847.868 9
  21552631.284    21552633.698    -3213504.828 9  -1153043.255 8
  20569462.627    20569463.761     -415747.970 9    862518.141 7
 86  6 17  0  4 41.0800000  0  4G 6G 8G 9G11
  20449071.055    20449072.777     -821130.895 9    463378.940 8
  22764862.123    22764865.755     -148623.002 8   5136605.243 8
  21549668.047    21549670.471    -3229076.157 9  -1165176.758 8
  20569804.545    20569806.641     -413950.248 9    863918.970 8
 86  6 17  0  4 47.0800000  0  4G 6G 8G 9G11
  20448880.877    20448881.675     -822137.836 9    462594.313 8
  22768712.130    22768715.714     -128391.473 8   5152370.057 8
  21546706.379    21546709.372    -3244639.175 9  -1177303.772 8
  20570151.139    20570153.461     -412130.100 9    865337.273 8
 86  6 17  0  4 53.0800000  0  4G 6G 8G 9G11
  20448692.460    20448692.949     -823126.811 9    461823.679 8
  22772562.756    22772567.994     -108150.425 8   5168142.305 8
  21543746.306    21543749.967    -3260193.827 9  -1189424.288 7
  20570501.185    20570503.780     -410287.519 9    866773.052 7
 86  6 17  0  4 59.0800000  0  4G 6G 8G 9G11
  20448507.998    20448508.457     -824097.804 9    461067.061 8
  22776416.347    22776420.463      -87899.885 7   5183921.920 8
  21540788.049    21540789.767    -3275740.046 9  -1201538.216 8
  20570855.724    20570859.706     -408422.543 9    868226.293 7
 86  6 17  0  5  5.0800000  0  4G 6G 8G 9G11
  20448327.625    20448327.332     -825050.732 9    460324.492 8
  22780272.488    22780275.676      -67639.895 7   5199708.928 9
  21537831.802    21537833.830    -3291277.934 9  -1213645.651 8
  20571215.699    20571216.720     -406535.100 9    869697.019 8
 86  6 17  0  5 11.0800000  0  4G 6G 8G 9G11
  20448148.367    20448149.257     -825985.707 9    459595.963 7
  22784128.964    22784133.926      -47370.466 7   5215503.276 8
  21534876.394    21534878.982    -3306807.419 9  -1225746.552 7
  20571577.978    20571582.807     -404625.316 9    871185.171 8
 86  6 17  0  5 17.0800000  0  4G 6G 8G 9G11
  20447973.661    20447974.077     -826902.613 9    458881.480 8
  22787988.579    22787991.687      -27091.638 7   5231304.948 8
  21531922.956    21531925.049    -3322328.500 9  -1237840.891 8
  20571945.310    20571947.548     -402693.101 9    872690.778 8
 86  6 17  0  5 23.0800000  0  4G 6G 8G 9G11
  20447803.629    20447803.508     -827801.482 9    458181.057 8
  22791849.870    22791852.870       -6803.451 8   5247113.924 9
  21528971.309    21528974.298    -3337841.108 9  -1249928.639 8
  20572316.088    20572320.444     -400738.505 9    874213.853 8
 86  6 17  0  5 29.0800000  0  4G 6G 8G 9G11
  20447635.722    20447637.079     -828682.250 9    457494.757 8
  22795711.345    22795714.876       13494.160 8   5262930.220 9
  21526020.402    21526022.536    -3353345.278 9  -1262009.803 8
  20572692.735    20572697.289     -398761.457 8    875754.390 8
 86  6 17  0  5 35.0800000  0  4G 6G 8G 9G11
  20447470.979    20447470.931     -829544.942 9    456822.521 7
  22799576.392    22799579.846       33801.147 7   5278753.848 8
  21523071.821    21523073.681    -3368840.880 9  -1274084.293 8
  20573073.272    20573077.201     -396762.094 8    877312.351 8
 86  6 17  0  5 41.0800000  0  4G 6G 8G 9G11
  20447310.935    20447310.898     -830389.543 9    456164.375 8
  22803441.237    22803445.783       54117.433 8   5294584.705 8
  21520124.708    21520127.008    -3384327.930 9  -1286152.113 8
  20573457.261    20573461.259     -394740.357 9    878887.734 8
 86  6 17  0  5 47.0800000  0  4G 6G 8G 9G11
  20447153.645    20447153.818     -831216.046 9    455520.362 8
  22807310.229    22807313.020       74443.017 7   5310422.807 9
  21517178.981    21517181.947    -3399806.516 9  -1298213.351 8
  20573845.597    20573851.098     -392696.238 8    880480.555 7
 86  6 17  0  5 53.0800000  0  4G 6G 8G 9G11
  20447000.508    20447001.522     -832024.430 9    454890.451 8
  22811179.723    22811182.955       94777.878 7   5326268.145 9
  21514236.238    21514237.349    -3415276.545 9  -1310267.915 8
  20574237.426    20574244.714     -390629.696 8    882090.837 8
 86  6 17  0  5 59.0800000  0  4G 6G 8G 9G11
  20446850.179    20446850.955     -832814.680 9    454274.661 8
  22815051.153    22815054.080      115121.983 8   5342120.686 9
  21511293.541    21511295.054    -3430737.926 9  -1322315.744 8
  20574636.580    20574640.907     -388540.849 9    883718.508 7
 86  6 17  0  6  5.0800000  0  4G 6G 8G 9G11
  20446702.060    20446702.689     -833586.817 9    453673.001 8
  22818924.871    22818928.292      135475.225 8   5357980.346 8
  21508352.593    21508354.598    -3446190.756 9  -1334356.899 8
  20575038.324    20575042.879     -386429.712 8    885363.555 7
 86  6 17  0  6 11.0800000  0  4G 6G 8G 9G11
  20446558.507    20446559.379     -834340.800 9    453085.473 7
  22822799.479    22822802.413      155837.735 8   5373847.221 8
  21505414.045    21505414.985    -3461634.995 9  -1346391.360 7
  20575445.834    20575448.432     -384296.249 8    887025.993 7
 86  6 17  0  6 17.0800000  0  4G 6G 8G 9G11
  20446418.731    20446419.780     -835076.613 9    452512.104 7
  22826675.590    22826679.075      176209.315 8   5389721.178 8
  21502476.703    21502479.257    -3477070.596 9  -1358419.111 8
  20575855.478    20575858.103     -382140.577 8    888705.733 8
 86  6 17  0  6 23.0800000  0  4G 6G 8G 9G11
  20446282.597    20446283.156     -835794.259 9    451952.897 8
  22830553.347    22830557.192      196590.020 8   5405602.235 9
  21499541.630    21499542.301    -3492497.511 9  -1370440.080 8
  20576269.399    20576272.723     -379962.633 9    890402.833 8
 86  6 17  0  6 29.0800000  0  4G 6G 8G 9G11
  20446148.367    20446149.377     -836493.782 8    451407.819 8
  22834433.547    22834437.748      216979.819 8   5421490.380 9
  21496606.741    21496609.608    -3507915.745 9  -1382454.272 8
  20576688.972    20576691.582     -377762.444 8    892117.258 7
 86  6 17  0  6 35.0800000  0  4G 6G 8G 9G11
  20446018.662    20446018.558     -837175.016 9    450876.975 7
  22838315.444    22838318.420      237378.741 8   5437385.637 9
  21493674.804    21493676.229    -3523325.321 9  -1394461.726 8
  20577112.683    20577113.388     -375540.017 8    893849.023 7
 86  6 17  0  6 41.0800000  0  4G 6G 8G 9G11
  20445893.545    20445893.999     -837838.028 9    450360.336 7
  22842199.352    22842203.302      257786.677 8   5453287.913 9
  21490744.789    21490746.242    -3538726.109 9  -1406462.343 8
  20577537.951    20577542.005     -373295.288 8    895598.163 7
 86  6 17  0  6 47.0800000  0  4G 6G 8G 9G11
  20445770.480    20445771.311     -838482.825 9    449857.906 8
  22846084.099    22846088.360      278203.646 7   5469197.239 9
  21487814.904    21487817.093    -3554118.246 9  -1418456.206 7
  20577970.772    20577972.571     -371028.273 7    897364.662 7
 86  6 17  0  6 53.0800000  0  4G 6G 8G 9G11
  20445651.039    20445652.260     -839109.422 9    449369.633 8
  22849971.449    22849973.830      298629.579 8   5485113.539 8
  21484887.448    21484890.320    -3569501.641 9  -1430443.260 8
  20578405.859    20578408.313     -368739.062 8    899148.468 6
 86  6 17  0  6 59.0800000  0  4G 6G 8G 9G11
  20445535.068    20445536.350     -839717.772 9    448895.604 8
  22853859.855    22853863.361      319064.411 8   5501036.794 9
  21481961.909    21481962.737    -3584876.236 9  -1442423.461 8
  20578847.255    20578848.750     -366427.660 9    900949.559 7
 86  6 17  0  7  5.0800000  0  4G 6G 8G 9G11
  20445422.095    20445423.907     -840307.854 8    448435.793 7
  22857749.059    22857753.837      339508.314 8   5516967.079 8
  21479037.907    21479039.988    -3600242.003 9  -1454396.792 8
  20579290.185    20579293.962     -364094.017 9    902767.984 7
 86  6 17  0  7 11.0800000  0  4G 6G 8G 9G11
  20445313.549    20445314.884     -840879.632 9    447990.254 8
  22861642.587    22861646.279      359961.113 8   5532904.319 8
  21476115.447    21476117.231    -3615598.947 9  -1466363.234 8
  20579738.330    20579741.384     -361738.185 8    904603.700 7
 86  6 17  0  7 17.0800000  0  4G 6G 8G 9G11
  20445207.603    20445210.478     -841433.107 8    447558.971 7
  22865536.212    22865539.138      380422.778 9   5548848.467 9
  21473194.659    21473196.977    -3630947.063 9  -1478322.805 6
  20580191.073    20580193.952     -359360.221 9    906456.676 7
 86  6 17  0  7 23.0800000  0  4G 6G 8G 9G11
  20445105.900    20445108.985     -841968.292 9    447141.939 7
  22869431.866    22869434.679      400893.308 9   5564799.528 9
  21470275.457    21470277.346    -3646286.289 9  -1490275.448 8
  20580648.851    20580649.328     -356960.087 8    908326.916 7
 86  6 17  0  7 29.0800000  0  4G 6G 8G 9G11
  20445007.605    20445009.490     -842485.102 8    446739.221 8
  22873328.581    22873332.583      421372.725 9   5580757.510 9
  21467357.968    21467360.429    -3661616.574 9  -1502221.112 8
  20581109.207    20581110.603     -354537.736 9    910214.455 7
 86  6 17  0  7 35.0800000  0  4G 6G 8G 9G11
  20444912.894    20444914.548     -842983.621 8    446350.763 8
  22877228.409    22877230.413      441860.933 8   5596722.340 9
  21464442.637    21464444.021    -3676937.937 9  -1514159.845 8
  20581574.627    20581576.361     -352093.271 9    912119.235 7
 86  6 17  0  7 41.0800000  0  4G 6G 8G 9G11
  20444822.072    20444823.255     -843463.726 9    445976.655 7
  22881127.423    22881131.271      462357.942 9   5612694.020 9
  21461528.861    21461530.897    -3692250.355 9  -1526091.589 7
  20582043.852    20582047.447     -349626.621 8    914041.292 7
 86  6 17  0  7 47.0800000  0  4G 6G 8G 9G11
  20444733.292    20444735.671     -843925.545 9    445616.793 8
  22885030.181    22885032.302      482863.755 9   5628672.574 8
  21458616.834    21458619.150    -3707553.888 9  -1538016.422 8
  20582517.988    20582519.596     -347137.857 9    915980.592 7
 86  6 17  0  7 53.0800000  0  4G 6G 8G 9G11
  20444650.209    20444651.327     -844368.967 8    445271.275 8
  22888933.213    22888936.433      503378.229 8   5644657.871 8
  21455706.720    21455708.987    -3722848.573 9  -1549934.359 8
  20582995.970    20582998.496     -344627.073 9    917937.058 8
 86  6 17  0  7 59.0800000  0  4G 6G 8G 9G11
  20444568.487    20444571.018     -844794.039 9    444940.043 8
  22892840.016    22892842.556      523901.422 8   5660649.970 8
  21452796.578    21452799.871    -3738134.141 9  -1561845.182 8
  20583477.406    20583479.142     -342094.078 9    919910.817 7
 86  6 17  0  8  5.0800000  0  4G 6G 8G 9G11
  20444491.733    20444493.691     -845200.635 8    444623.230 8
  22896746.868    22896749.569      544433.357 9   5676648.859 8
  21449890.176    21449892.415    -3753410.677 9  -1573748.977 8
  20583964.646    20583966.654     -339538.969 9    921901.815 7
 86  6 17  0  8 11.0800000  0  4G 6G 8G 9G11
  20444417.770    20444419.886     -845588.836 8    444320.719 9
  22900655.140    22900658.131      564973.915 8   5692654.487 9
  21446984.458    21446987.365    -3768678.137 9  -1585645.696 8
  20584454.078    20584455.855     -336961.730 9    923910.048 8
 86  6 17  0  8 17.0800000  0  4G 6G 8G 9G11
  20444347.274    20444350.062     -845958.622 9    444032.590 8
  22904566.506    22904568.547      585523.086 9   5708666.828 9
  21444081.409    21444084.083    -3783936.580 9  -1597535.384 7
  20584948.475    20584951.868     -334362.425 8    925935.485 7
 86  6 17  0  8 23.0800000  0  4G 6G 8G 9G11
  20444280.348    20444282.643     -846309.954 9    443758.817 8
  22908477.697    22908481.181      606080.897 9   5724685.898 9
  21441179.914    21441181.150    -3799186.040 9  -1609418.078 8
  20585446.789    20585451.575     -331741.040 9    927978.091 7
 86  6 17  0  8 29.0800000  0  4G 6G 8G 9G11
  20444216.875    20444219.311     -846642.851 9    443499.409 8
  22912392.619    22912394.280      626647.273 9   5740711.637 9
  21438279.903    21438281.325    -3814426.389 9  -1621293.679 8
  20585949.914    20585952.713     -329097.643 9    930037.901 7
 86  6 17  0  8 35.0800000  0  4G 6G 8G 9G11
  20444157.826    20444160.071     -846957.269 9    443254.403 8
  22916307.026    22916309.995      647222.230 9   5756744.071 9
  21435380.075    21435382.739    -3829657.635 9  -1633162.191 8
  20586458.591    20586460.543     -326432.234 7    932114.839 8
 86  6 17  0  8 41.0800000  0  4G 6G 8G 9G11
  20444101.431    20444103.722     -847253.267 9    443023.775 8
  22920224.854    22920226.593      667805.684 9   5772783.119 8
  21432483.641    21432487.078    -3844879.717 9  -1645023.545 8
  20586969.587    20586973.327     -323744.859 8    934208.900 8
 86  6 17  0  8 47.0800000  0  4G 6G 8G 9G11
  20444049.423    20444051.230     -847530.718 9    442807.575 8
  22924142.976    22924144.456      688397.646 9   5788828.805 8
  21429588.499    21429591.784    -3860092.712 9  -1656877.813 8
  20587485.375    20587487.400     -321035.487 9    936320.106 8
 86  6 17  0  8 53.0800000  0  4G 6G 8G 9G11
  20443999.095    20444002.470     -847789.651 9    442605.794 8
  22928062.993    22928064.138      708998.082 9   5804881.094 8
  21426695.410    21426698.234    -3875296.430 9  -1668724.864 8
  20588004.828    20588007.364     -318304.100 9    938448.470 7
 86  6 17  0  8 59.0800000  0  4G 6G 8G 9G11
  20443952.702    20443955.639     -848030.054 9    442418.473 9
  22931984.736    22931985.442      729607.007 9   5820939.987 9
  21423803.612    21423807.514    -3890490.935 9  -1680564.733 7
  20588528.587    20588531.342     -315550.744 9    940593.935 8
 86  6 17  0  9  5.0800000  0  4G 6G 8G 9G11
  20443910.887    20443913.490     -848251.928 9    442245.588 8
  22935908.723    22935909.430      750224.404 9   5837005.484 8
  21420913.813    21420917.523    -3905676.169 9  -1692397.378 9
  20589055.682    20589060.236     -312775.364 9    942756.570 8
 86  6 17  0  9 11.0800000  0  4G 6G 8G 9G11
  20443872.907    20443874.134     -848455.293 9    442087.120 8
  22939832.777    22939834.329      770850.183 9   5853077.511 8
  21418025.850    21418029.941    -3920852.195 9  -1704222.848 7
  20589587.422    20589592.851     -309978.017 8    944936.329 6
 86  6 17  0  9 17.0800000  0  4G 6G 8G 9G11
  20443836.867    20443840.732     -848640.070 9    441943.139 8
  22943759.562    22943760.864      791484.369 9   5869156.096 8
  21415140.132    21415143.822    -3936018.874 9  -1716041.045 8
  20590123.417    20590127.013     -307158.674 8    947133.205 8
 86  6 17  0  9 23.0800000  0  4G 6G 8G 9G11
  20443806.569    20443807.510     -848806.274 9    441813.634 8
  22947687.943    22947689.567      812126.884 9   5885241.164 8
  21412255.881    21412259.567    -3951176.289 9  -1727851.998 8
  20590664.105    20590668.476     -304317.413 9    949347.191 7
 86  6 17  0  9 29.0800000  0  4G 6G 8G 9G11
  20443777.633    20443778.652     -848953.854 9    441698.638 8
  22951617.583    22951619.406      832777.738 9   5901332.737 9
  21409373.037    21409377.019    -3966324.427 9  -1739655.753 8
  20591209.295    20591213.368     -301454.180 8    951578.274 8
 86  6 17  0  9 35.0800000  0  4G 6G 8G 9G11
  20443752.131    20443754.597     -849082.893 9    441598.084 8
  22955548.223    22955550.599      853436.829 9   5917430.717 9
  21406492.699    21406495.548    -3981463.262 9  -1751452.231 8
  20591757.311    20591761.951     -298569.092 8    953826.399 8
 86  6 17  0  9 41.0800000  0  4G 6G 8G 9G11
  20443732.136    20443734.644     -849193.279 9    441512.063 8
  22959481.393    22959483.824      874104.302 9   5933535.249 8
  21403613.820    21403616.986    -3996592.690 9  -1763241.386 9
  20592310.732    20592315.602     -295662.023 8    956091.650 8
 86  6 17  0  9 47.0800000  0  4G 6G 8G 9G11
  20443714.269    20443716.375     -849284.998 9    441440.593 8
  22963416.592    22963418.007      894780.087 9   5949646.241 9
  21400736.372    21400738.989    -4011712.645 9  -1775023.158 8
  20592868.546    20592871.944     -292732.980 9    958374.027 6
 86  6 17  0  9 53.0800000  0  4G 6G 8G 9G11
  20443700.596    20443702.551     -849358.129 9    441383.592 9
  22967352.198    22967353.629      915463.951 9   5965763.524 9
  21397861.104    21397865.057    -4026823.351 9  -1786797.736 9
  20593430.279    20593433.550     -289782.140 8    960673.414 7
 86  6 17  0  9 59.0800000  0  4G 6G 8G 9G11
  20443690.191    20443692.267     -849412.507 9    441341.208 8
  22971289.989    22971292.542      936156.215 9   5981887.365 9
  21394987.380    21394990.351    -4041924.458 9  -1798564.827 8
  20593994.953    20593999.191     -286809.235 9    962989.961 8
 86  6 17  0 10  5.0800000  0  4G 6G 8G 9G11
  20443683.271    20443685.553     -849448.275 9    441313.327 8
  22975228.893    22975231.011      956856.595 9   5998017.520 9
  21392115.804    21392118.077    -4057016.148 9  -1810324.580 8
  20594566.130    20594568.268     -283814.507 8    965323.503 7
 86  6 17  0 10 11.0800000  0  4G 6G 8G 9G11
  20443680.117    20443681.993     -849465.400 9    441299.983 8
  22979169.759    22979172.449      977565.035 9   6014153.972 9
  21389246.287    21389247.591    -4072098.494 9  -1822077.047 8
  20595139.673    20595142.296     -280798.032 7    967674.008 6
 86  6 17  0 10 17.0800000  0  4G 6G 8G 9G11
  20443680.804    20443683.990     -849463.931 9    441301.128 8
  22983111.999    22983113.278      998281.562 9   6030296.705 9
  21386378.177    21386381.247    -4087171.275 9  -1833822.081 7
  20595717.336    20595722.589     -277759.780 9    970041.485 7
 86  6 17  0 10 23.0800000  0  4G 6G 8G 9G11
  20443685.071    20443686.785     -849443.674 9    441316.905 8
  22987055.971    22987057.959     1019006.255 9   6046445.820 8
  21383511.678    21383513.659    -4102234.500 9  -1845559.638 7
  20596299.746    20596302.801     -274699.592 8    972426.052 7
 86  6 17  0 10 29.0800000  0  4G 6G 8G 9G11
  20443692.833    20443694.133     -849404.606 9    441347.349 8
  22991001.685    22991002.396     1039739.131 9   6062601.302 9
  21380646.528    21380649.153    -4117288.293 9  -1857289.864 7
  20596887.466    20596889.248     -271617.502 9    974827.681 6
 86  6 17  0 10 35.0800000  0  4G 6G 8G 9G11
  20443703.679    20443705.627     -849346.794 9    441392.408 9
  22994948.183    22994950.509     1060480.098 9   6078763.086 9
  21377785.205    21377785.481    -4132332.444 9  -1869012.576 8
  20597477.147    20597481.015     -268513.565 8    977246.347 6
 86  6 17  0 10 41.0800000  0  4G 6G 8G 9G11
  20443718.198    20443719.225     -849270.277 9    441452.024 8
  22998896.274    22998898.563     1081229.029 9   6094931.079 8
  21374923.587    21374925.016    -4147367.036 9  -1880727.834 8
  20598073.340    20598073.934     -265387.840 8    979681.963 6
 86  6 17  0 10 47.0800000  0  4G 6G 8G 9G11
  20443736.679    20443737.210     -849174.904 9    441526.352 8
  23002846.683    23002847.851     1101986.023 9   6111105.353 9
  21372065.240    21372065.099    -4162391.934 9  -1892435.544 8
  20598671.736    20598674.113     -262240.249 8    982134.627 6
 86  6 17  0 10 53.0800000  0  4G 6G 8G 9G11
  20443757.688    20443759.452     -849060.804 9    441615.253 8
  23006798.054    23006800.193     1122750.954 9   6127285.812 9
  21369207.335    21369207.572    -4177407.276 9  -1904135.812 8
  20599275.654    20599276.734     -259070.911 9    984604.255 7
 86  6 17  0 10 59.0800000  0  4G 6G 8G 9G11
  20443781.928    20443784.350     -848927.995 9    441718.731 8
  23010750.238    23010752.958     1143523.800 9   6143472.440 9
  21366352.111    21366352.888    -4192413.090 9  -1915828.642 8
  20599882.994    20599884.070     -255879.783 8    987090.831 6
 86  6 17  0 11  5.0800000  0  4G 6G 8G 9G11
  20443812.035    20443813.902     -848776.361 9    441836.899 8
  23014705.200    23014707.644     1164304.652 9   6159665.304 9
  21363498.924    21363498.995    -4207409.128 9  -1927513.856 8
  20600494.440    20600494.903     -252666.881 9    989594.407 6
 86  6 17  0 11 11.0800000  0  4G 6G 8G 9G11
  20443843.896    20443845.731     -848605.898 9    441969.718 8
  23018660.859    23018662.978     1185093.384 9   6175864.307 9
  21360646.783    21360648.416    -4222395.464 9  -1939191.521 7
  20601109.721    20601111.488     -249432.221 9    992114.925 6
 86  6 17  0 11 17.0800000  0  4G 6G 8G 9G11
  20443880.019    20443881.658     -848416.653 9    442117.171 8
  23022618.759    23022619.813     1205890.002 9   6192069.463 8
  21357796.326    21357797.904    -4237372.174 9  -1950861.671 8
  20601730.193    20601730.413     -246175.910 9    994652.301 6
 86  6 17  0 11 23.0800000  0  4G 6G 8G 9G11
  20443919.290    20443921.256     -848208.557 9    442279.312 7
  23026577.628    23026581.146     1226694.415 9   6208280.676 9
  21354947.808    21354949.292    -4252339.085 9  -1962524.200 8
  20602353.573    20602354.408     -242897.930 8    997206.573 7
 86  6 17  0 11 29.0800000  0  4G 6G 8G 9G11
  20443962.513    20443963.948     -847981.626 9    442456.139 8
  23030538.399    23030541.060     1247506.711 9   6224498.057 9
  21352102.159    21352102.049    -4267296.215 9  -1974179.104 8
  20602981.317    20602982.755     -239598.191 9    999777.801 6
 86  6 17  0 11 35.0800000  0  4G 6G 8G 9G11
  20444010.095    20444012.755     -847735.839 9    442647.660 8
  23034500.091    23034503.122     1268326.817 9   6240721.503 9
  21349257.737    21349258.074    -4282243.595 9  -1985826.408 7
  20603613.969    20603614.904     -236276.723 9   1002365.946 7
 86  6 17  0 11 41.0800000  0  4G 6G 8G 9G11
  20444059.602    20444061.796     -847471.172 9    442853.901 8
  23038463.486    23038465.850     1289154.670 9   6256950.993 9
  21346414.635    21346416.072    -4297181.226 9  -1997466.115 7
  20604250.141    20604250.146     -232933.588 9   1004970.994 7
 86  6 17  0 11 47.0800000  0  4G 6G 8G 9G11
  20444113.150    20444115.931     -847187.655 9    443074.816 8
  23042428.284    23042431.590     1309990.293 9   6273186.538 9
  21343574.036    21343574.463    -4312108.938 9  -2009098.098 8
  20604890.663    20604889.797     -229568.793 9   1007592.918 6
 86  6 17  0 11 53.0800000  0  4G 6G 8G 9G11
  20444171.675    20444173.580     -846885.207 9    443310.477 7
  23046394.655    23046397.503     1330833.658 9   6289428.111 9
  21340735.387    21340736.020    -4327026.926 9  -2020722.493 8
  20605534.291    20605536.051     -226182.307 9   1010231.729 7
 86  6 17  0 11 59.0800000  0  4G 6G 8G 9G11
  20444233.128    20444235.264     -846563.874 9    443560.871 7
  23050362.459    23050365.515     1351684.709 9   6305675.678 9
  21337898.209    21337899.313    -4341934.978 9  -2032339.163 8
  20606183.970    20606184.147     -222774.217 9   1012887.372 7
 86  6 17  0 12  5.0800000  0  4G 6G 8G 9G11
  20444297.188    20444300.537     -846223.651 9    443825.973 7
  23054331.607    23054335.242     1372543.400 9   6321929.199 9
  21335062.765    21335063.505    -4356833.248 9  -2043948.196 8
  20606835.882    20606835.560     -219344.530 9   1015559.869 7
 86  6 17  0 12 11.0800000  0  4G 6G 8G 9G11
  20444366.702    20444368.980     -845864.481 9    444105.832 9
  23058303.251    23058305.069     1393409.743 9   6338188.685 8
  21332230.003    21332231.299    -4371721.617 9  -2055549.521 8
  20607493.431    20607493.493     -215893.255 9   1018249.188 7
 86  6 17  0 12 17.0800000  0  4G 6G 8G 9G11
  20444438.267    20444440.926     -845486.444 9    444400.417 8
  23062274.638    23062277.695     1414283.696 9   6354454.088 9
  21329397.772    21329399.853    -4386600.061 9  -2067143.113 8
  20608153.900    20608153.262     -212420.385 9   1020955.315 7
 86  6 17  0 12 23.0800000  0  4G 6G 8G 9G11
  20444514.163    20444516.160     -845089.478 9    444709.730 8
  23066248.839    23066251.614     1435165.252 9   6370725.421 9
  21326568.779    21326569.597    -4401468.640 9  -2078729.013 8
  20608818.917    20608819.352     -208925.928 9   1023678.260 8
 86  6 17  0 12 29.0800000  0  4G 6G 8G 9G11
  20444592.653    20444595.844     -844673.480 9    445033.876 9
  23070223.430    23070226.509     1456054.340 9   6387002.624 9
  21323741.455    21323743.035    -4416327.173 9  -2090307.086 9
  20609488.159    20609489.423     -205409.880 8   1026418.045 8
 86  6 17  0 12 35.0800000  0  4G 6G 8G 9G11
  20444675.357    20444677.968     -844238.559 9    445372.779 8
  23074200.077    23074203.773     1476950.976 9   6403285.709 9
  21320916.141    21320917.507    -4431175.743 9  -2101877.399 7
  20610160.004    20610162.870     -201872.220 9   1029174.674 7
 86  6 17  0 12 41.0800000  0  4G 6G 8G 9G11
  20444760.735    20444764.208     -843784.648 9    445726.467 8
  23078177.559    23078180.348     1497855.096 9   6419574.630 9
  21318091.818    21318093.807    -4446014.398 9  -2113439.984 9
  20610838.416    20610840.842     -198313.041 9   1031948.042 7
 86  6 17  0 12 47.0800000  0  4G 6G 8G 9G11
  20444850.104    20444854.178     -843311.717 9    446094.985 8
  23082157.094    23082160.400     1518766.707 9   6435869.373 9
  21315269.963    21315272.148    -4460842.954 9  -2124994.703 8
  20611519.305    20611522.043     -194732.304 9   1034738.224 8
 86  6 17  0 12 53.0800000  0  4G 6G 8G 9G11
  20444944.923    20444948.070     -842819.803 9    446478.284 8
  23086137.591    23086141.261     1539685.838 9   6452169.997 9
  21312450.071    21312452.514    -4475661.470 9  -2136541.607 7
  20612204.672    20612206.141     -191130.046 9   1037545.177 7
 86  6 17  0 12 59.0800000  0  4G 6G 8G 9G11
  20445041.879    20445045.617     -842308.908 9    446876.396 9
  23090119.832    23090123.260     1560612.386 9   6468476.396 9
  21309632.779    21309634.574    -4490469.916 9  -2148080.650 8
  20612893.945    20612896.355     -187506.270 9   1040368.902 7
 86  6 17  0 13  5.0800000  0  4G 6G 8G 9G11
  20445143.515    20445146.177     -841778.965 9    447289.342 8
  23094103.662    23094107.208     1581546.325 9   6484788.554 8
  21306815.990    21306817.973    -4505268.285 9  -2159611.834 9
  20613588.710    20613589.062     -183861.035 8   1043209.346 7
 86  6 17  0 13 11.0800000  0  4G 6G 8G 9G11
  20445247.868    20445250.084     -841229.987 9    447717.126 8
  23098088.043    23098092.369     1602487.666 9   6501106.472 9
  21304002.305    21304004.263    -4520056.543 9  -2171135.148 8
  20614284.398    20614288.869     -180194.262 8   1046066.580 8
 86  6 17  0 13 17.0800000  0  4G 6G 8G 9G11
  20445357.320    20445358.315     -840661.923 9    448159.777 8
  23102074.996    23102078.260     1623436.419 9   6517430.154 9
  21301189.992    21301192.668    -4534834.674 9  -2182650.577 8
  20614986.835    20614989.587     -176506.036 8   1048940.538 7
 86  6 17  0 13 23.0800000  0  4G 6G 8G 9G11
  20445468.483    20445470.030     -840074.842 9    448617.240 8
  23106062.696    23106065.939     1644392.473 9   6533759.549 9
  21298379.716    21298380.828    -4549602.673 9  -2194158.108 8
  20615692.709    20615695.374     -172796.377 8   1051831.166 7
 86  6 17  0 13 29.0800000  0  4G 6G 8G 9G11
  20445584.267    20445586.615     -839468.644 9    449089.603 9
  23110051.936    23110055.642     1665355.832 9   6550094.621 9
  21295571.737    21295574.020    -4564360.466 9  -2205657.680 9
  20616401.859    20616405.683     -169065.223 9   1054738.568 8
 86  6 17  0 13 35.0800000  0  4G 6G 8G 9G11
  20445702.035    20445704.602     -838843.375 9    449576.821 9
  23114042.990    23114046.832     1686326.531 9   6566435.416 9
  21292765.190    21292767.648    -4579108.101 9  -2217149.341 8
  20617115.883    20617121.482     -165312.641 9   1057662.660 7
 86  6 17  0 13 41.0800000  0  4G 6G 8G 9G11
  20445824.207    20445826.574     -838198.997 8    450078.945 8
  23118034.927    23118038.275     1707304.415 9   6582781.813 8
  21289961.021    21289963.932    -4593845.466 9  -2228633.000 8
  20617834.020    20617839.207     -161538.626 8   1060603.449 7
 86  6 17  0 13 47.0800000  0  4G 6G 8G 9G11
  20445950.471    20445953.503     -837535.487 9    450595.965 8
  23122027.662    23122032.268     1728289.584 9   6599133.889 9
  21287158.521    21287160.418    -4608572.606 9  -2240108.693 8
  20618555.932    20618560.991     -157743.220 8   1063560.920 7
 86  6 17  0 13 53.0800000  0  4G 6G 8G 9G11
  20446079.241    20446082.772     -836852.886 9    451127.857 9
  23126022.760    23126025.994     1749282.003 9   6615491.616 9
  21284358.441    21284360.853    -4623289.490 9  -2251576.388 8
  20619282.393    20619287.036     -153926.444 8   1066535.042 7
 86  6 17  0 13 59.0800000  0  4G 6G 8G 9G11
  20446214.189    20446216.981     -836151.128 9    451674.685 8
  23130018.665    23130022.286     1770281.571 9   6631854.913 9
  21281560.115    21281562.684    -4637996.041 9  -2263036.037 8
  20620012.836    20620017.718     -150088.253 9   1069525.828 7
 86  6 17  0 14  5.0800000  0  4G 6G 8G 9G11
  20446349.615    20446354.310     -835430.190 9    452236.461 8
  23134015.860    23134020.053     1791288.329 9   6648223.803 8
  21278763.886    21278765.608    -4652692.397 9  -2274487.742 8
  20620747.352    20620751.925     -146228.630 9   1072533.337 7
 86  6 17  0 14 11.0800000  0  4G 6G 8G 9G11
  20446491.635    20446494.414     -834690.091 9    452813.150 8
  23138014.836    23138019.193     1812302.256 9   6664598.284 9
  21275968.917    21275970.231    -4667378.347 9  -2285931.340 8
  20621486.482    20621490.507     -142347.681 9   1075557.461 7
 86  6 17  0 14 17.0800000  0  4G 6G 8G 9G11
  20446636.635    20446639.653     -833930.861 8    453404.762 8
  23142014.769    23142018.925     1833323.284 9   6680978.295 9
  21273175.746    21273178.191    -4682053.934 9  -2297366.856 8
  20622229.957    20622231.840     -138445.349 9   1078598.241 7
 86  6 17  0 14 23.0800000  0  4G 6G 8G 9G11
  20446785.062    20446787.891     -833152.454 9    454011.329 9
  23146016.436    23146020.255     1854351.413 9   6697363.844 9
  21270386.054    21270387.796    -4696719.274 9  -2308794.383 8
  20622976.109    20622979.721     -134521.701 9   1081655.640 7
 86  6 17  0 14 29.0800000  0  4G 6G 8G 9G11
  20446936.794    20446938.950     -832354.839 9    454632.826 8
  23150019.367    23150023.102     1875386.596 9   6713754.895 9
  21267596.874    21267597.434    -4711374.075 9  -2320213.717 8
  20623728.097    20623730.494     -130576.788 9   1084729.592 7
 86  6 17  0 14 35.0800000  0  4G 6G 8G 9G11
  20447091.949    20447094.794     -831538.033 9    455269.305 8
  23154023.316    23154027.795     1896428.765 9   6730151.377 8
  21264809.472    21264810.725    -4726018.563 9  -2331624.991 8
  20624482.595    20624485.648     -126610.602 9   1087820.140 7
 86  6 17  0 14 41.0800000  0  4G 6G 8G 9G11
  20447250.254    20447253.524     -830702.035 8    455920.742 8
  23158029.054    23158033.251     1917477.986 9   6746553.359 8
  21262025.193    21262026.232    -4740652.518 9  -2343028.067 7
  20625240.539    20625243.119     -122623.063 9   1090927.306 7
 86  6 17  0 14 47.0800000  0  4G 6G 8G 9G11
  20447413.563    20447415.911     -829846.802 9    456587.142 8
  23162035.931    23162040.041     1938534.126 9   6762960.726 9
  21259241.986    21259243.748    -4755276.128 9  -2354423.087 8
  20626005.064    20626006.143     -118614.303 9   1094051.016 7
 86  6 17  0 14 53.0800000  0  4G 6G 8G 9G11
  20447580.115    20447583.064     -828972.336 8    457268.550 8
  23166043.865    23166047.951     1959597.286 9   6779373.590 9
  21256460.847    21256462.519    -4769889.221 9  -2365809.906 9
  20626771.893    20626774.343     -114584.233 9   1097191.342 8
 86  6 17  0 14 59.0800000  0  4G 6G 8G 9G11
  20447750.430    20447751.461     -828078.607 9    457964.952 8
  23170054.003    23170057.816     1980667.370 9   6795791.818 8
  21253681.377    21253683.255    -4784491.940 9  -2377188.652 7
  20627542.585    20627543.493     -110532.952 9   1100348.182 7
 86  6 17  0 15  5.0800000  0  4G 6G 8G 9G11
  20447923.711    20447925.266     -827165.670 9    458676.348 9
  23174064.992    23174068.561     2001744.321 9   6812215.409 8
  21250905.230    21250907.149    -4799084.067 9  -2388559.136 8
  20628317.728    20628318.477     -106460.388 9   1103521.606 8
 86  6 17  0 15 11.0800000  0  4G 6G 8G 9G11
  20448101.094    20448102.254     -826233.485 9    459402.730 7
  23178076.845    23178080.084     2022828.173 9   6828644.378 8
  21248130.285    21248132.358    -4813665.663 9  -2399921.419 8
  20629096.837    20629097.153     -102366.581 9   1106711.579 7
 86  6 17  0 15 17.0800000  0  4G 6G 8G 9G11
  20448282.709    20448282.728     -825281.942 9    460144.179 8
  23182089.837    23182093.271     2043918.883 9   6845078.695 9
  21245357.000    21245359.698    -4828236.670 9  -2411275.443 8
  20629879.790    20629880.184      -98251.546 9   1109918.106 7
 86  6 17  0 15 23.0800000  0  4G 6G 8G 9G11
  20448467.507    20448467.660     -824311.127 8    460900.659 7
  23186104.431    23186108.422     2065016.434 9   6861518.343 9
  21242586.643    21242589.255    -4842797.100 9  -2422621.232 7
  20630665.822    20630668.073      -94115.261 9   1113141.183 8
 86  6 17  0 15 29.0800000  0  4G 6G 8G 9G11
  20448655.384    20448656.936     -823320.985 9    461672.211 8
  23190120.926    23190123.984     2086120.861 9   6877963.339 8
  21239818.427    21239820.580    -4857346.895 9  -2433958.732 8
  20631456.891    20631459.057      -89957.790 9   1116380.764 7
 86  6 17  0 15 35.0800000  0  4G 6G 8G 9G11
  20448847.743    20448848.873     -822311.541 9    462458.783 8
  23194137.095    23194141.180     2107232.043 9   6894413.604 8
  21237051.647    21237052.532    -4871886.023 9  -2445287.918 8
  20632252.709    20632254.935      -85779.185 9   1119636.824 7
 86  6 17  0 15 41.0800000  0  4G 6G 8G 9G11
  20449044.059    20449043.491     -821282.770 9    463260.426 8
  23198156.390    23198160.103     2128349.994 9   6910869.147 9
  21234287.315    21234287.473    -4886414.495 9  -2456608.802 9
  20633051.493    20633053.815      -81579.445 9   1122909.354 7
 86  6 17  0 15 47.0800000  0  4G 6G 8G 9G11
  20449243.129    20449243.741     -820234.662 9    464077.135 8
  23202175.713    23202180.942     2149474.663 9   6927329.922 9
  21231523.940    21231525.982    -4900932.286 9  -2467921.367 7
  20633855.037    20633856.991      -77358.552 9   1126198.349 8
 86  6 17  0 15 53.0800000  0  4G 6G 8G 9G11
  20449446.090    20449446.717     -819167.191 9    464908.934 8
  23206197.454    23206201.596     2170606.069 9   6943795.950 8
  21228763.345    21228765.373    -4915439.419 9  -2479225.627 8
  20634661.920    20634665.058      -73116.528 9   1129503.818 8
 86  6 17  0 15 59.0800000  0  4G 6G 8G 9G11
  20449653.465    20449653.550     -818080.351 9    465755.815 7
  23210220.554    23210223.362     2191744.208 9   6960267.216 8
  21226004.664    21226006.526    -4929935.839 9  -2490521.543 9
  20635473.323    20635475.757      -68853.361 9   1132825.780 7
 86  6 17  0 16  5.0800000  0  4G 6G 8G 9G11
  20449863.854    20449863.483     -816974.129 9    466617.817 8
  23214244.242    23214246.847     2212889.004 9   6976743.671 8
  21223248.104    21223250.128    -4944421.423 9  -2501808.999 8
  20636289.088    20636291.639      -64569.065 9   1136164.186 6
 86  6 17  0 16 11.0800000  0  4G 6G 8G 9G11
  20450077.704    20450077.800     -815848.561 9    467494.877 7
  23218268.145    23218272.811     2234040.413 9   6993225.277 8
  21220493.896    21220495.321    -4958896.339 9  -2513088.155 8
  20637108.518    20637110.240      -60263.697 9   1139519.014 8
 86  6 17  0 16 17.0800000  0  4G 6G 8G 9G11
  20450296.203    20450296.674     -814703.581 9    468387.059 7
  23222294.908    23222298.673     2255198.459 9   7009712.066 8
  21217742.083    21217742.804    -4973360.474 9  -2524358.892 8
  20637931.582    20637933.247      -55937.284 9   1142890.235 8
 86  6 17  0 16 23.0800000  0  4G 6G 8G 9G11
  20450517.269    20450516.201     -813539.186 9    469294.391 8
  23226322.496    23226326.165     2276363.094 9   7026203.983 8
  21214991.406    21214992.902    -4987813.715 9  -2535621.161 8
  20638759.254    20638760.892      -51589.861 9   1146277.854 8
 86  6 17  0 16 29.0800000  0  4G 6G 8G 9G11
  20450742.130    20450741.566     -812355.321 9    470216.883 8
  23230351.555    23230354.687     2297534.347 9   7042701.053 8
  21212243.297    21212244.835    -5002256.124 9  -2546874.977 8
  20639589.632    20639592.026      -47221.390 9   1149681.861 8
 86  6 17  0 16 35.0800000  0  4G 6G 8G 9G11
  20450970.725    20450970.941     -811152.080 8    471154.473 8
  23234382.325    23234384.693     2318712.099 9   7059203.197 9
  21209496.856    21209497.852    -5016687.725 9  -2558120.382 8
  20640425.557    20640427.367      -42831.896 9   1153102.247 7
 86  6 17  0 16 41.0800000  0  4G 6G 8G 9G11
  20451203.662    20451202.991     -809929.393 9    472107.212 8
  23238412.582    23238416.874     2339896.304 9   7075710.353 9
  21206752.394    21206754.681    -5031108.482 9  -2569357.334 9
  20641263.791    20641265.828      -38421.434 9   1156538.968 8
 86  6 17  0 16 47.0800000  0  4G 6G 8G 9G11
  20451439.799    20451440.541     -808687.280 8    473075.092 7
  23242444.067    23242448.310     2361087.042 9   7092222.611 9
  21204010.859    21204012.678    -5045518.271 9  -2580585.725 7
  20642107.058    20642109.637      -33989.876 9   1159992.127 8
 86  6 17  0 16 53.0800000  0  4G 6G 8G 9G11
  20451679.068    20451680.449     -807425.664 9    474058.164 8
  23246477.995    23246482.450     2382284.251 9   7108739.897 8
  21201271.626    21201271.996    -5059917.163 9  -2591805.645 8
  20642954.579    20642956.431      -29537.327 9   1163461.649 7
 86  6 17  0 16 59.0800000  0  4G 6G 8G 9G11
  20451923.656    20451924.620     -806144.585 9    475056.396 8
  23250513.538    23250517.517     2403487.892 9   7125262.214 9
  21198532.830    21198534.386    -5074305.189 9  -2603017.091 9
  20643805.516    20643808.969      -25063.822 9   1166947.493 7
 86  6 17  0 17  5.0800000  0  4G 6G 8G 9G11
  20452170.976    20452171.593     -804844.079 8    476069.777 8
  23254549.344    23254552.627     2424697.949 9   7141789.521 8
  21195796.553    21195798.413    -5088682.265 9  -2614220.004 8
  20644660.991    20644663.860      -20569.406 9   1170449.645 8
 86  6 17  0 17 11.0800000  0  4G 6G 8G 9G11
  20452422.986    20452423.834     -803524.055 8    477098.361 8
  23258586.738    23258590.796     2445914.390 9   7158321.802 8
  21193063.718    21193064.139    -5103048.386 9  -2625414.374 8
  20645519.284    20645522.811      -16053.991 9   1173968.155 8
 86  6 17  0 17 17.0800000  0  4G 6G 8G 9G11
  20452677.099    20452678.836     -802184.510 8    478142.161 7
  23262625.566    23262628.980     2467137.235 9   7174859.077 8
  21190331.799    21190333.046    -5117403.471 9  -2636600.149 7
  20646383.088    20646385.997      -11517.667 8   1177502.954 7
 86  6 17  0 17 23.0800000  0  4G 6G 8G 9G11
  20452936.492    20452937.282     -800825.445 9    479201.163 8
  23266664.242    23266668.905     2488366.439 9   7191401.305 8
  21187601.719    21187603.492    -5131747.487 9  -2647777.293 8
  20647251.182    20647252.276       -6960.387 8   1181054.089 8
 86  6 17  0 17 29.0800000  0  4G 6G 8G 9G11
  20453199.578    20453200.161     -799446.902 9    480275.365 8
  23270705.601    23270709.636     2509601.956 9   7207948.456 9
  21184873.930    21184875.739    -5146080.496 9  -2658945.883 9
  20648121.996    20648124.704       -2382.234 9   1184621.475 8
 86  6 17  0 17 35.0800000  0  4G 6G 8G 9G11
  20453465.589    20453465.809     -798048.731 9    481364.846 8
  23274748.093    23274752.055     2530843.752 9   7224500.494 8
  21182149.198    21182150.870    -5160402.371 9  -2670105.775 9
  20648997.103    20648999.455        2216.785 9   1188205.116 7
 86  6 17  0 17 41.0800000  0  4G 6G 8G 9G11
  20453735.154    20453736.045     -796631.029 9    482469.546 7
  23278791.613    23278795.248     2552091.835 9   7241057.441 8
  21179425.701    21179427.259    -5174713.173 9  -2681257.046 8
  20649876.058    20649877.870        6836.734 8   1191805.077 9
 86  6 17  0 17 47.0800000  0  4G 6G 8G 9G11
  20454008.667    20454009.953     -795193.784 9    483589.485 7
  23282835.261    23282839.353     2573346.170 9   7257619.234 8
  21176704.509    21176706.145    -5189012.882 9  -2692399.678 8
  20650758.779    20650761.430       11477.552 9   1195421.306 8
 86  6 17  0 17 53.0800000  0  4G 6G 8G 9G11
  20454285.855    20454287.115     -793737.019 9    484724.606 8
  23286882.000    23286885.956     2594606.714 9   7274185.888 7
  21173985.673    21173987.122    -5203301.432 9  -2703533.598 9
  20651645.850    20651649.573       16139.194 9   1199053.756 8
 86  6 17  0 17 59.0800000  0  4G 6G 8G 9G11
  20454566.868    20454567.285     -792260.681 9    485874.999 8
  23290928.767    23290933.003     2615873.428 9   7290757.352 9
  21171268.631    21171269.866    -5217578.854 9  -2714658.867 8
  20652536.352    20652540.950       20821.657 8   1202702.421 8
 86  6 17  0 18  5.0800000  0  4G 6G 8G 9G11
  20454852.251    20454852.500     -790764.694 9    487040.705 8
  23294977.120    23294981.051     2637146.335 8   7307333.631 8
  21168554.578    21168555.629    -5231845.112 9  -2725775.429 9
  20653431.190    20653436.246       25524.957 9   1206367.336 8
 86  6 17  0 18 11.0800000  0  4G 6G 8G 9G11
  20455139.268    20455140.196     -789249.158 9    488221.638 7
  23299026.259    23299029.852     2658425.353 9   7323914.690 8
  21165841.670    21165842.600    -5246100.205 9  -2736883.290 9
  20654330.065    20654335.669       30249.048 9   1210048.434 7
 86  6 17  0 18 17.0800000  0  4G 6G 8G 9G11
  20455431.232    20455434.221     -787713.971 9    489417.880 8
  23303075.962    23303079.957     2679710.525 8   7340500.525 8
  21163131.345    21163133.467    -5260344.004 9  -2747982.351 8
  20655233.445    20655237.632       34993.960 8   1213745.771 8
 86  6 17  0 18 23.0800000  0  4G 6G 8G 9G11
  20455727.061    20455729.431     -786159.161 9    490629.415 8
  23307128.490    23307132.155     2701001.803 7   7357091.118 8
  21160423.147    21160424.302    -5274576.575 9  -2759072.662 8
  20656140.790    20656144.887       39759.638 9   1217459.280 8
 86  6 17  0 18 29.0800000  0  4G 6G 8G 9G11
  20456026.670    20456030.280     -784584.719 9    491856.248 7
  23311180.359    23311185.740     2722299.164 9   7373686.453 8
  21157716.477    21157718.499    -5288797.916 9  -2770154.225 9
  20657051.200    20657054.753       44546.082 8   1221188.994 8
 86  6 17  0 18 35.0800000  0  4G 6G 8G 9G11
  20456330.285    20456333.137     -782990.653 9    493098.374 7
  23315234.481    23315238.995     2743602.586 8   7390286.527 8
  21155012.820    21155013.910    -5303007.859 9  -2781226.906 8
  20657965.845    20657969.740       49353.285 9   1224934.868 8
 86  6 17  0 18 41.0800000  0  4G 6G 8G 9G11
  20456638.199    20456640.555     -781376.895 9    494355.841 8
  23319290.179    23319293.685     2764912.052 8   7406891.295 9
  21152310.390    21152312.104    -5317206.477 9  -2792290.766 8
  20658885.036    20658888.507       54181.247 9   1228696.922 8
 86  6 17  0 18 47.0800000  0  4G 6G 8G 9G11
  20456948.174    20456950.206     -779743.441 9    495628.672 9
  23323345.790    23323350.328     2786227.562 8   7423500.766 7
  21149610.287    21149612.208    -5331393.756 9  -2803345.774 8
  20659808.208    20659810.388       59029.979 8   1232475.150 8
 86  6 17  0 18 53.0800000  0  4G 6G 8G 9G11
  20457263.835    20457264.061     -778090.319 9    496916.821 8
  23327402.659    23327407.405     2807548.951 8   7440114.834 8
  21146913.250    21146914.754    -5345569.753 9  -2814392.004 9
  20660734.413    20660738.023       63899.434 9   1236269.527 8
 86  6 17  0 18 59.0800000  0  4G 6G 8G 9G11
  20457582.275    20457582.897     -776417.504 9    498220.309 8
  23331461.865    23331465.927     2828876.379 9   7456733.592 8
  21144217.292    21144219.469    -5359734.309 9  -2825429.323 8
  20661665.711    20661668.637       68789.558 9   1240080.028 8
 86  6 17  0 19  5.0800000  0  4G 6G 8G 9G11
  20457904.264    20457905.489     -774725.020 9    499539.126 8
  23335521.821    23335525.544     2850209.691 8   7473356.952 8
  21141523.868    21141526.550    -5373887.486 9  -2836457.773 8
  20662600.389    20662602.969       73700.367 9   1243906.616 8
 86  6 17  0 19 11.0800000  0  4G 6G 8G 9G11
  20458229.998    20458231.419     -773012.824 9    500873.307 8
  23339582.068    23339586.295     2871548.938 7   7489984.920 7
  21138831.745    21138835.110    -5388029.236 9  -2847477.306 8
  20663538.628    20663540.906       78631.878 8   1247749.352 8
 86  6 17  0 19 17.0800000  0  4G 6G 8G 9G11
  20458559.593    20458560.085     -771280.951 9    502222.809 8
  23343644.344    23343648.751     2892894.045 8   7506617.467 8
  21136142.712    21136145.848    -5402159.574 9  -2858487.961 8
  20664481.301    20664483.854       83583.991 9   1251608.146 8
 86  6 17  0 19 23.0800000  0  4G 6G 8G 9G11
  20458892.482    20458892.756     -769529.312 9    503587.725 9
  23347706.827    23347711.499     2914245.039 8   7523254.598 8
  21133455.986    21133458.069    -5416278.426 9  -2869489.653 7
  20665426.781    20665429.834       88556.693 9   1255482.977 8
 86  6 17  0 19 29.0800000  0  4G 6G 8G 9G11
  20459229.390    20459230.242     -767757.965 9    504967.988 8
  23351771.409    23351776.617     2935601.849 9   7539896.267 8
  21130772.166    21130773.423    -5430385.761 9  -2880482.381 8
  20666377.069    20666380.595       93549.994 9   1259373.869 8
 86  6 17  0 19 35.0800000  0  4G 6G 8G 9G11
  20459569.253    20459572.482     -765966.840 9    506363.669 8
  23355836.808    23355840.518     2956964.453 8   7556542.425 8
  21128088.984    21128091.368    -5444481.594 9  -2891466.140 8
  20667330.518    20667333.958       98563.912 9   1263280.817 9
 86  6 17  0 19 41.0800000  0  4G 6G 8G 9G11
  20459915.029    20459916.887     -764155.923 9    507774.768 8
  23359903.401    23359906.614     2978332.840 8   7573193.115 7
  21125409.339    21125410.914    -5458565.898 9  -2902440.915 8
  20668289.032    20668291.531      103598.447 9   1267203.839 7
 86  6 17  0 19 47.0800000  0  4G 6G 8G 9G11
  20460263.588    20460265.831     -762325.203 9    509201.305 8
  23363971.619    23363974.424     2999707.022 7   7589848.314 8
  21122731.271    21122732.786    -5472638.577 9  -2913406.644 8
  20669251.111    20669254.365      108653.551 9   1271142.874 7
 86  6 17  0 19 53.0800000  0  4G 6G 8G 9G11
  20460615.464    20460617.386     -760474.787 9    510643.181 8
  23368039.828    23368042.162     3021086.947 9   7606507.991 7
  21120055.284    21120057.672    -5486699.760 9  -2924363.401 7
  20670216.467    20670219.976      113729.204 9   1275097.934 8
 86  6 17  0 19 59.0800000  0  4G 6G 8G 9G11
  20460971.292    20460973.381     -758604.536 9    512100.516 8
  23372109.820    23372113.169     3042472.576 9   7623172.103 7
  21117381.718    21117383.879    -5500749.235 9  -2935311.048 7
  20671185.983    20671189.023      118825.447 9   1279069.031 7
 86  6 17  0 20  5.0800000  0  4G 6G 8G 9G11
  20461329.931    20461332.594     -756714.520 9    513573.246 8
  23376180.068    23376182.239     3063863.855 8   7639840.624 7
  21114710.204    21114711.934    -5514787.168 9  -2946249.695 8
  20672159.970    20672163.253      123942.240 9   1283056.141 8
 86  6 17  0 20 11.0800000  0  4G 6G 8G 9G11
  20461693.623    20461696.358     -754804.663 9    515061.447 9
  23380252.008    23380254.040     3085260.828 8   7656513.578 7
  21112041.981    21112043.198    -5528813.409 9  -2957179.233 8
  20673136.715    20673141.167      129079.617 8   1287059.293 8
 86  6 17  0 20 17.0800000  0  4G 6G 8G 9G11
  20462060.161    20462062.856     -752874.960 9    516565.107 9
  23384324.733    23384325.871     3106663.460 8   7673190.963 7
  21109375.492    21109376.941    -5542827.953 9  -2968099.657 8
  20674119.195    20674122.034      134237.544 8   1291078.458 8
 86  6 17  0 20 23.0800000  0  4G 6G 8G 9G11
  20462432.161    20462434.385     -750925.428 9    518084.222 9
  23388398.383    23388400.572     3128071.732 8   7689872.706 7
  21106710.131    21106711.192    -5556830.806 9  -2979010.973 8
  20675104.554    20675108.536      139415.948 9   1295113.571 8
 86  6 17  0 20 29.0800000  0  4G 6G 8G 9G11
  20462805.905    20462808.978     -748956.048 9    519618.802 7
  23392472.228    23392475.304     3149485.606 9   7706558.836 7
  21104047.779    21104049.876    -5570822.064 9  -2989913.251 8
  20676093.276    20676096.846      144614.767 9   1299164.614 8
 86  6 17  0 20 35.0800000  0  4G 6G 8G 9G11
  20463184.023    20463187.307     -746966.797 9    521168.861 9
  23396549.425    23396550.837     3170905.055 9   7723249.324 7
  21101387.684    21101389.248    -5584801.445 9  -3000806.258 9
  20677086.378    20677090.018      149834.108 9   1303231.632 8
 86  6 17  0 20 41.0800000  0  4G 6G 8G 9G11
  20463565.993    20463570.960     -744957.692 9    522734.390 8
  23400626.602    23400628.074     3192330.054 9   7739944.122 7
  21098730.042    21098731.630    -5598769.018 9  -3011690.082 8
  20678083.827    20678087.511      155073.936 8   1307314.609 7
 86  6 17  0 20 47.0800000  0  4G 6G 8G 9G11
  20463952.783    20463955.968     -742928.707 9    524315.419 7
  23404704.527    23404707.682     3213760.605 8   7756643.250 8
  21096075.065    21096076.222    -5612724.801 9  -3022564.716 9
  20679084.641    20679088.125      160334.228 9   1311413.544 8
 86  6 17  0 20 53.0800000  0  4G 6G 8G 9G11
  20464342.222    20464346.690     -740879.809 9    525911.959 9
  23408783.383    23408785.539     3235196.622 9   7773346.638 7
  21093421.430    21093422.442    -5626668.926 9  -3033430.265 7
  20680089.747    20680091.772      165614.960 9   1315528.398 8
 86  6 17  0 20 59.0800000  0  4G 6G 8G 9G11
  20464735.947    20464740.198     -738811.078 9    527523.954 8
  23412863.972    23412866.374     3256638.090 9   7790054.284 7
  21090770.558    21090770.776    -5640601.196 9  -3044286.571 8
  20681098.285    20681101.827      170915.967 9   1319659.054 8
 86  6 17  0 21  5.0800000  0  4G 6G 8G 9G11
  20465133.485    20465137.605     -736722.395 9    529151.500 8
  23416944.954    23416947.833     3278085.037 8   7806766.169 7
  21088121.440    21088122.599    -5654521.489 9  -3055133.554 7
  20682111.021    20682114.229      176237.414 9   1323805.631 7
 86  6 17  0 21 11.0800000  0  4G 6G 8G 9G11
  20465535.478    20465538.022     -734613.819 9    530794.543 7
  23421027.187    23421030.171     3299537.398 9   7823482.282 8
  21085474.754    21085476.306    -5668429.987 9  -3065971.339 8
  20683127.458    20683130.697      181579.230 9   1327968.080 8
 86  6 17  0 21 17.0800000  0  4G 6G 8G 9G11
  20465940.390    20465943.396     -732485.346 9    532453.095 9
  23425109.943    23425113.541     3320995.178 8   7840202.635 7
  21082830.775    21082832.470    -5682326.612 9  -3076799.878 8
  20684148.149    20684150.714      186941.370 8   1332146.373 7
 86  6 17  0 21 23.0800000  0  4G 6G 8G 9G11
  20466349.080    20466351.911     -730336.966 9    534127.154 7
  23429195.032    23429197.296     3342458.339 8   7856927.176 7
  21080188.334    21080189.084    -5696211.391 9  -3087619.182 8
  20685172.657    20685176.111      192323.932 8   1336340.571 7
 86  6 17  0 21 29.0800000  0  4G 6G 8G 9G11
  20466761.630    20466763.462     -728168.677 9    535816.734 8
  23433280.371    23433283.801     3363926.789 7   7873655.823 7
  21077548.222    21077549.361    -5710084.181 9  -3098429.147 8
  20686200.586    20686203.565      197726.831 8   1340550.630 7
 86  6 17  0 21 35.0800000  0  4G 6G 8G 9G11
  20467179.267    20467178.983     -725980.387 9    537521.890 8
  23437366.611    23437369.859     3385400.565 7   7890388.633 7
  21074911.124    21074911.758    -5723945.054 9  -3109229.830 8
  20687233.479    20687235.660      203150.019 9   1344776.491 7
 86  6 17  0 21 41.0800000  0  4G 6G 8G 9G11
  20467599.245    20467600.763     -723772.190 9    539242.560 7
  23441453.717    23441456.428     3406879.666 8   7907125.612 8
  21072275.857    21072276.099    -5737793.960 9  -3120021.176 8
  20688269.378    20688270.561      208593.506 9   1349018.158 6
 86  6 17  0 21 47.0800000  0  4G 6G 8G 9G11
  20468023.108    20468024.223     -721544.015 9    540978.804 8
  23445542.531    23445545.709     3428364.049 8   7923866.666 7
  21069642.328    21069643.927    -5751630.761 9  -3130803.097 7
  20689308.283    20689310.091      214057.257 9   1353275.632 7
 86  6 17  0 21 53.0800000  0  4G 6G 8G 9G11
  20468450.692    20468451.690     -719295.867 9    542730.620 8
  23449631.660    23449635.354     3449853.641 8   7940611.797 7
  21067010.945    21067013.039    -5765455.572 9  -3141575.671 9
  20690351.395    20690352.918      219541.274 9   1357548.886 7
 86  6 17  0 21 59.0800000  0  4G 6G 8G 9G11
  20468882.264    20468883.232     -717027.737 9    544497.982 7
  23453721.873    23453724.586     3471348.468 8   7957361.000 8
  21064382.445    21064384.632    -5779268.381 9  -3152338.908 8
  20691399.313    20691401.410      225045.502 9   1361837.897 8
 86  6 17  0 22  5.0800000  0  4G 6G 8G 9G11
  20469317.613    20469319.136     -714739.618 9    546280.933 8
  23457813.903    23457816.154     3492848.545 8   7974114.308 8
  21061756.185    21061758.513    -5793069.031 9  -3163092.654 8
  20692450.107    20692454.276      230569.973 9   1366142.678 8
 86  6 17  0 22 11.0800000  0  4G 6G 8G 9G11
  20469757.029    20469757.799     -712431.454 9    548079.484 7
  23461905.321    23461908.493     3514353.768 9   7990871.618 7
  21059132.852    21059135.626    -5806857.585 9  -3173836.977 8
  20693505.452    20693508.151      236114.659 8   1370463.217 7
 86  6 17  0 22 17.0800000  0  4G 6G 8G 9G11
  20470199.393    20470200.445     -710103.292 9    549893.635 7
  23465999.238    23466001.709     3535864.173 8   8007632.967 8
  21056510.778    21056513.156    -5820634.104 9  -3184571.925 9
  20694564.175    20694566.685      241679.535 8   1374799.488 8
 86  6 17  0 22 23.0800000  0  4G 6G 8G 9G11
  20470646.829    20470647.191     -707755.082 9    551723.420 7
  23470092.359    23470096.776     3557379.759 9   8024398.341 7
  21053890.896    21053893.893    -5834398.459 9  -3195297.402 9
  20695627.819    20695631.375      247264.622 9   1379151.508 7
 86  6 17  0 22 29.0800000  0  4G 6G 8G 9G11
  20471097.365    20471096.441     -705386.849 9    553568.776 7
  23474188.654    23474191.215     3578900.437 8   8041167.707 6
  21051273.868    21051276.286    -5848150.651 9  -3206013.385 8
  20696694.355    20696697.152      252869.890 9   1383519.237 8
 86  6 17  0 22 35.0800000  0  4G 6G 8G 9G11
  20471550.651    20471552.298     -702998.590 9    555429.760 8
  23478284.933    23478286.658     3600426.223 9   8057941.031 7
  21048659.995    21048660.643    -5861890.660 9  -3216719.898 8
  20697765.084    20697767.878      258495.328 9   1387902.699 8
 86  6 17  0 22 41.0800000  0  4G 6G 8G 9G11
  20472009.957    20472010.434     -700590.296 9    557306.352 7
  23482382.048    23482384.914     3621957.082 8   8074718.304 7
  21046046.830    21046048.815    -5875618.441 9  -3227416.854 7
  20698839.003    20698841.127      264140.994 9   1392301.933 7
 86  6 17  0 22 47.0800000  0  4G 6G 8G 9G11
  20472471.374    20472472.592     -698161.923 9    559198.591 7
  23486479.735    23486482.547     3643492.955 8   8091499.508 7
  21043436.940    21043439.601    -5889334.086 9  -3238104.367 8
  20699917.154    20699920.178      269806.753 9   1396716.803 8
 86  6 17  0 22 53.0800000  0  4G 6G 8G 9G11
  20472937.988    20472938.635     -695713.519 9    561106.435 8
  23490579.404    23490582.087     3665033.793 8   8108284.557 7
  21040829.012    21040831.579    -5903037.469 9  -3248782.327 9
  20700998.817    20701002.583      275492.530 9   1401147.277 7
 86  6 17  0 22 59.0800000  0  4G 6G 8G 9G11
  20473408.699    20473408.276     -693245.015 9    563029.946 8
  23494679.630    23494681.499     3686579.657 8   8125073.529 7
  21038224.126    21038225.889    -5916728.570 9  -3259450.720 8
  20702085.228    20702087.419      281198.396 9   1405593.420 8
 86  6 17  0 23  5.0800000  0  4G 6G 8G 9G11
  20473880.881    20473881.877     -690756.446 9    564969.089 7
  23498780.046    23498782.867     3708130.493 8   8141866.391 7
  21035621.509    21035622.843    -5930407.428 9  -3270109.571 8
  20703175.087    20703177.466      286924.383 9   1410055.217 7
 86  6 17  0 23 11.0800000  0  4G 6G 8G 9G11
  20474358.801    20474359.322     -688247.764 9    566923.902 8
  23502881.909    23502886.116     3729686.268 8   8158663.098 6
  21033020.470    21033021.502    -5944073.938 9  -3280758.786 8
  20704268.937    20704270.803      292670.378 9   1414532.625 7
 86  6 17  0 23 17.0800000  0  4G 6G 8G 9G11
  20474839.584    20474840.554     -685719.029 9    568894.346 8
  23506983.840    23506987.813     3751246.963 8   8175463.627 6
  21030422.693    21030425.219    -5957728.014 9  -3291398.327 8
  20705366.180    20705368.289      298436.412 9   1419025.648 7
 86  6 17  0 23 23.0800000  0  4G 6G 8G 9G11
  20475324.856    20475325.910     -683170.120 9    570880.505 7
  23511087.869    23511093.072     3772812.556 8   8192267.975 7
  21027826.809    21027828.027    -5971369.750 9  -3302028.246 9
  20706466.742    20706469.495      304222.484 9   1423534.259 8
 86  6 17  0 23 29.0800000  0  4G 6G 8G 9G11
  20475813.931    20475814.189     -680601.129 9    572882.308 8
  23515192.373    23515194.729     3794383.025 7   8209076.122 8
  21025232.888    21025234.341    -5984999.201 9  -3312648.599 7
  20707571.712    20707574.594      310028.510 9   1428058.446 7
 86  6 17  0 23 35.0800000  0  4G 6G 8G 9G11
  20476306.781    20476308.265     -678011.996 9    574899.816 8
  23519298.397    23519302.101     3815958.308 7   8225888.043 7
  21022642.351    21022643.750    -5998616.244 9  -3323259.279 8
  20708680.145    20708683.328      315854.498 9   1432598.178 7
 86  6 17  0 23 41.0800000  0  4G 6G 8G 9G11
  20476803.402    20476804.009     -675402.730 9    576933.010 8
  23523404.098    23523408.061     3837538.451 7   8242703.707 7
  21020053.692    21020055.139    -6012220.816 9  -3333860.240 8
  20709793.944    20709794.636      321700.546 9   1437153.535 8
 86  6 17  0 23 47.0800000  0  4G 6G 8G 9G11
  20477304.134    20477305.094     -672773.279 9    578981.927 6
  23527511.692    23527514.926     3859123.408 7   8259523.141 7
  21017467.514    21017468.937    -6025812.963 9  -3344451.519 8
  20710910.231    20710911.783      327566.590 9   1441724.487 8
 86  6 17  0 23 53.0800000  0  4G 6G 8G 9G11
  20477808.715    20477808.263     -670123.657 9    581046.559 8
  23531621.819    23531625.119     3880713.129 6   8276346.297 7
  21014883.233    21014884.617    -6039392.692 9  -3355033.130 8
  20712029.869    20712032.076      333452.626 9   1446311.011 8
 86  6 17  0 23 59.0800000  0  4G 6G 8G 9G11
  20478316.971    20478316.376     -667453.876 9    583126.921 8
  23535729.931    23535734.157     3902307.640 7   8293173.175 6
  21012301.115    21012302.460    -6052959.841 9  -3365604.928 8
  20713154.486    20713156.176      339358.635 9   1450913.102 8
 86  6 17  0 24  5.0800000  0  4G 6G 8G 9G11
  20478827.886    20478829.212     -664763.893 9    585223.000 8
  23539841.078    23539842.703     3923906.873 7   8310003.742 7
  21009721.944    21009722.439    -6066514.509 9  -3376167.003 8
  20714281.789    20714283.282      345284.574 9   1455530.713 7
 86  6 17  0 24 11.0800000  0  4G 6G 8G 9G11
  20479343.379    20479346.140     -662053.769 9    587334.785 8
  23543953.425    23543954.020     3945510.790 6   8326837.946 7
  21007144.834    21007145.564    -6080056.591 9  -3386719.282 9
  20715412.831    20715415.370      351230.375 9   1460163.817 7
 86  6 17  0 24 17.0800000  0  4G 6G 8G 9G11
  20479861.915    20479865.193     -659323.464 9    589462.282 8
  23548062.957    23548065.773     3967119.380 7   8343675.789 7
  21004570.455    21004571.385    -6093586.194 9  -3397261.825 9
  20716547.463    20716550.344      357196.042 9   1464812.392 8
 86  6 17  0 24 23.0800000  0  4G 6G 8G 9G11
  20480385.809    20480388.532     -656572.944 9    591605.530 8
  23552175.426    23552178.765     3988732.611 7   8360517.267 7
  21001998.006    21001998.621    -6107103.209 9  -3407794.566 8
  20717687.394    20717689.846      363181.538 9   1469476.412 8
 86  6 17  0 24 29.0800000  0  4G 6G 8G 9G11
  20480912.795    20480915.957     -653802.183 9    593764.561 8
  23556290.586    23556291.563     4010350.520 7   8377362.381 7
  20999428.239    20999429.342    -6120607.585 9  -3418317.461 9
  20718829.293    20718832.403      369186.924 9   1474155.926 7
 86  6 17  0 24 35.0800000  0  4G 6G 8G 9G11
  20481444.820    20481447.277     -651011.298 9    595939.275 8
  23560403.607    23560408.411     4031973.024 6   8394211.063 7
  20996860.855    20996862.294    -6134099.382 9  -3428830.534 8
  20719976.375    20719978.770      375212.142 9   1478850.912 7
 86  6 17  0 24 41.0800000  0  4G 6G 8G 9G11
  20481979.487    20481982.496     -648200.114 9    598129.781 7
  23564521.807    23564523.915     4053600.106 7   8411063.328 6
  20994295.785    20994296.977    -6147578.453 9  -3439333.716 8
  20721125.961    20721128.970      381257.166 9   1483561.322 8
 86  6 17  0 24 47.0800000  0  4G 6G 8G 9G11
  20482518.661    20482521.208     -645368.680 9    600336.101 7
  23568637.173    23568639.789     4075231.779 5   8427919.160 6
  20991733.540    20991734.468    -6161044.996 9  -3449827.121 8
  20722280.270    20722283.351      387322.024 8   1488287.190 8
 86  6 17  0 24 53.0800000  0  4G 6G 8G 9G11
  20483061.354    20483063.585     -642516.970 9    602558.206 8
  23572754.416    23572757.158     4096868.021 7   8444778.551 6
  20989172.383    20989173.253    -6174498.680 9  -3460310.514 8
  20723438.598    20723440.849      393406.723 9   1493028.519 8
 86  6 17  0 24 59.0800000  0  4G 6G 8G 9G11
  20483606.786    20483610.054     -639645.068 9    604796.059 8
  23576872.755    23576874.973     4118508.764 8   8461641.445 5
  20986614.668    20986616.013    -6187939.669 9  -3470784.008 9
  20724599.943    20724602.239      399511.194 9   1497785.236 8
 86  6 17  0 25  5.0800000  0  4G 6G 8G 9G11
  20484158.529    20484160.510     -636752.906 9    607049.684 8
  23580990.064    23580996.140     4140153.956 7   8478507.842 6
  20984059.749    20984061.060    -6201367.954 9  -3481247.609 8
  20725765.184    20725767.439      405635.386 9   1502557.357 8
 86  6 17  0 25 11.0800000  0  4G 6G 8G 9G11
  20484713.185    20484715.478     -633840.478 9    609319.094 8
  23585112.042    23585112.807     4161803.663 8   8495377.737 7
  20981506.270    20981507.680    -6214783.401 9  -3491701.197 8
  20726933.973    20726937.098      411779.332 9   1507344.837 8
 86  6 17  0 25 17.0800000  0  4G 6G 8G 9G11
  20485270.811    20485272.620     -630907.756 9    611604.343 9
  23589233.483    23589233.248     4183457.814 7   8512251.100 6
  20978955.938    20978959.060    -6228186.115 9  -3502144.872 8
  20728106.480    20728109.476      417942.984 8   1512147.674 7
 86  6 17  0 25 23.0800000  0  4G 6G 8G 9G11
  20485831.706    20485835.626     -627954.668 9    613905.449 8
  23593354.301    23593353.701     4205116.422 6   8529127.921 6
  20976407.561    20976409.427    -6241576.079 9  -3512578.606 8
  20729283.156    20729286.467      424126.412 9   1516965.928 8
 86  6 17  0 25 29.0800000  0  4G 6G 8G 9G11
  20486397.873    20486400.942     -624981.350 9    616222.314 8
  23597476.833    23597478.368     4226779.389 7   8546008.154 6
  20973862.377    20973864.188    -6254953.122 9  -3523002.269 9
  20730463.562    20730466.631      430329.524 9   1521799.517 7
 86  6 17  0 25 35.0800000  0  4G 6G 8G 9G11
  20486967.894    20486970.453     -621987.719 9    618555.006 9
  23601600.627    23601601.062     4248446.729 6   8562891.763 6
  20971319.229    20971320.603    -6268317.390 9  -3533415.990 8
  20731646.946    20731649.573      436552.283 8   1526648.411 8
 86  6 17  0 25 41.0800000  0  4G 6G 8G 9G11
  20487541.603    20487543.794     -618973.802 9    620903.516 8
  23605723.617    23605723.424     4270118.456 7   8579778.832 6
  20968778.071    20968780.665    -6281668.670 9  -3543819.573 8
  20732834.982    20732838.608      442794.712 9   1531512.637 8
 86  6 17  0 25 47.0800000  0  4G 6G 8G 9G11
  20488120.228    20488121.690     -615939.499 9    623267.907 9
  23609849.524    23609851.816     4291794.505 7   8596669.268 4
  20966239.691    20966241.967    -6295007.086 9  -3554213.157 8
  20734026.907    20734029.617      449056.813 9   1536392.199 8
 86  6 17  0 25 53.0800000  0  4G 6G 8G 9G11
  20488701.143    20488703.355     -612884.867 9    625648.133 8
  23613974.771    23613975.643     4313474.900 7   8613563.062 5
  20963704.429    20963707.411    -6308332.652 9  -3564596.704 7
  20735221.871    20735224.553      455338.554 9   1541287.046 7
 86  6 17  0 25 59.0800000  0  4G 6G 8G 9G11
  20489286.485    20489289.023     -609809.882 9    628044.230 8
  23618101.290    23618102.621     4335159.567 7   8630460.202 5
  20961171.276    20961173.453    -6321645.287 9  -3574970.191 8
  20736420.620    20736423.258      461639.903 9   1546197.191 8
 86  6 17  0 26  5.0800000  0  4G 6G 8G 9G11
  20489875.480    20489877.577     -606714.580 9    630456.146 8
  23622228.397    23622228.284     4356848.469 8   8647360.658 5
  20958640.197    20958641.405    -6334944.949 9  -3585333.568 8
  20737624.883    20737627.263      467960.838 9   1551122.586 7
 86  6 17  0 26 11.0800000  0  4G 6G 8G 9G11
  20490468.860    20490470.254     -603598.982 9    632883.895 8
  23626357.810    23626358.670     4378541.609 6   8664264.373 5
  20956112.098    20956113.609    -6348231.677 9  -3595686.864 8
  20738830.830    20738833.985      474301.337 9   1556063.246 7
 86  6 17  0 26 17.0800000  0  4G 6G 8G 9G11
  20491064.249    20491065.923     -600462.953 9    635327.556 9
  23630486.977    23630486.260     4400238.987 7   8681171.428 5
  20953585.692    20953589.230    -6361505.351 9  -3606029.977 8
  20740041.460    20740044.944      480661.467 9   1561019.174 8
 86  6 17  0 26 23.0800000  0  4G 6G 8G 9G11
  20491665.260    20491666.634     -597306.553 9    637787.089 8
  23634616.473    23634615.437     4421940.600 7   8698081.785 5
  20951062.437    20951064.839    -6374765.985 9  -3616362.943 9
  20741255.338    20741259.131      487041.130 9   1565990.343 8
 86  6 17  0 26 29.0800000  0  4G 6G 8G 9G11
  20492269.525    20492271.364     -594129.760 9    640262.505 8
  23638746.463    23638746.776     4443646.369 6   8714995.357 5
  20948542.163    20948543.488    -6388013.548 9  -3626685.715 7
  20742472.721    20742475.761      493440.311 9   1570976.723 8
 86  6 17  0 26 35.0800000  0  4G 6G 8G 9G11
  20492878.117    20492880.071     -590932.574 9    642753.818 7
  23642877.584    23642878.652     4465356.282 7   8731912.168 5
  20946023.484    20946025.281    -6401248.009 9  -3636998.279 7
  20743694.582    20743696.736      499859.030 9   1575978.311 8
 86  6 17  0 26 41.0800000  0  4G 6G 8G 9G11
  20493490.299    20493491.744     -587715.011 8    645261.009 8
  23647010.725    23647011.190     4487070.343 6   8748832.189 6
  20943508.312    20943510.136    -6414469.420 9  -3647300.672 8
  20744919.806    20744922.288      506297.287 9   1580995.144 7
 86  6 17  0 26 47.0800000  0  4G 6G 8G 9G11
  20494106.351    20494108.270     -584476.995 9    647784.140 9
  23651141.358    23651142.682     4508788.512 7   8765755.452 6
  20940995.070    20940996.180    -6427677.600 9  -3657592.767 9
  20746148.865    20746151.446      512755.060 9   1586027.171 8
 86  6 17  0 26 53.0800000  0  4G 6G 8G 9G11
  20494726.836    20494728.848     -581218.596 9    650323.151 7
  23655274.726    23655276.907     4530510.788 7   8782681.877 5
  20938483.092    20938485.510    -6440872.710 9  -3667874.667 9
  20747381.457    20747384.153      519232.289 9   1591074.363 7
 86  6 17  0 26 59.0800000  0  4G 6G 8G 9G11
  20495350.262    20495350.994     -577939.735 9    652878.089 8
  23659409.850    23659412.378     4552237.076 7   8799611.446 7
  20935975.026    20935976.237    -6454054.687 9  -3678146.334 9
  20748617.645    20748620.412      525728.964 9   1596136.709 8
 86  6 17  0 27  5.0800000  0  4G 6G 8G 9G11
  20495977.214    20495979.826     -574640.511 9    655448.910 8
  23663543.201    23663545.381     4573967.414 7   8816544.179 6
  20933469.085    20933470.052    -6467223.473 9  -3688407.720 8
  20749857.978    20749860.672      532245.060 9   1601214.185 8
 86  6 17  0 27 11.0800000  0  4G 6G 8G 9G11
  20496608.116    20496611.458     -571320.825 9    658035.673 8
  23667680.451    23667683.798     4595701.755 6   8833480.024 6
  20930965.696    20930967.898    -6480379.000 9  -3698658.781 9
  20751101.302    20751103.998      538780.533 9   1606306.759 7
 86  6 17  0 27 17.0800000  0  4G 6G 8G 9G11
  20497244.315    20497246.620     -567980.704 9    660638.365 8
  23671815.672    23671819.028     4617440.067 6   8850418.952 5
  20928465.026    20928465.927    -6493521.326 9  -3708899.547 8
  20752347.690    20752351.961      545335.450 9   1611414.494 8
 86  6 17  0 27 23.0800000  0  4G 6G 8G 9G11
  20497884.349    20497887.364     -564620.042 9    663257.054 8
  23675952.671    23675957.108     4639182.338 8   8867360.973 6
  20925966.580    20925967.522    -6506650.408 9  -3719129.997 9
  20753600.059    20753602.441      551909.804 9   1616537.362 9
 86  6 17  0 27 29.0800000  0  4G 6G 8G 9G11
  20498527.475    20498529.983     -561238.999 9    665891.634 7
  23680092.145    23680094.528     4660928.568 7   8884306.085 6
  20923470.521    20923472.651    -6519766.187 9  -3729350.089 9
  20754854.173    20754857.298      558503.542 8   1621675.335 8
 86  6 17  0 27 35.0800000  0  4G 6G 8G 9G11
  20499175.668    20499177.062     -557837.414 9    668542.228 8
  23684230.084    23684234.243     4682678.699 7   8901254.232 5
  20920977.639    20920978.632    -6532868.614 9  -3739559.772 8
  20756112.725    20756117.394      565116.612 9   1626828.381 8
 86  6 17  0 27 41.0800000  0  4G 6G 8G 9G11
  20499827.277    20499829.127     -554415.383 9    671208.739 9
  23688370.478    23688374.070     4704432.765 6   8918205.426 6
  20918487.046    20918487.729    -6545957.787 9  -3749759.111 7
  20757374.837    20757378.235      571749.010 9   1631996.480 8
 86  6 17  0 27 47.0800000  0  4G 6G 8G 9G11
  20500483.019    20500484.076     -550972.869 9    673891.223 8
  23692509.707    23692515.285     4726190.708 6   8935159.663 6
  20915998.281    20915999.217    -6559033.518 9  -3759948.000 8
  20758640.084    20758644.825      578400.695 9   1637179.616 8
 86  6 17  0 27 53.0800000  0  4G 6G 8G 9G11
  20501142.332    20501142.191     -547509.890 9    676589.660 7
  23696652.417    23696655.606     4747952.465 6   8952116.868 6
  20913513.081    20913513.637    -6572095.895 9  -3770126.481 8
  20759909.640    20759914.109      585071.701 8   1642377.787 9
 86  6 17  0 27 59.0800000  0  4G 6G 8G 9G11
  20501805.020    20501806.091     -544026.378 9    679304.070 9
  23700792.392    23700799.145     4769718.111 7   8969077.110 5
  20911029.847    20911031.211    -6585144.848 9  -3780294.491 9
  20761183.399    20761186.596      591761.985 9   1647590.999 8
 86  6 17  0 28  5.0800000  0  4G 6G 8G 9G11
  20502471.631    20502473.128     -540522.378 9    682034.450 8
  23704935.228    23704941.228     4791487.492 7   8986040.253 6
  20908548.392    20908550.377    -6598180.451 9  -3790452.105 9
  20762459.535    20762462.546      598471.557 9   1652819.235 9
 86  6 17  0 28 11.0800000  0  4G 6G 8G 9G11
  20503142.016    20503143.290     -536997.799 9    684780.882 8
  23709078.025    23709083.311     4813260.679 6   9003006.364 5
  20906070.375    20906071.929    -6611202.561 9  -3800599.202 9
  20763740.951    20763743.419      605200.391 9   1658062.474 8
 86  6 17  0 28 17.0800000  0  4G 6G 8G 9G11
  20503816.046    20503818.456     -533452.754 9    687543.252 8
  23713223.318    23713227.403     4835037.636 7   9019975.414 6
  20903595.376    20903596.335    -6624211.162 9  -3810735.770 9
  20765024.285    20765026.754      611948.477 9   1663320.727 7
 86  6 17  0 28 23.0800000  0  4G 6G 8G 9G11
  20504494.995    20504496.295     -529887.161 9    690321.644 8
  23717368.689    23717371.449     4856818.349 6   9036947.384 4
  20901122.551    20901123.592    -6637206.380 9  -3820861.908 9
  20766312.154    20766315.754      618715.823 9   1668593.982 9
 86  6 17  0 28 29.0800000  0  4G 6G 8G 9G11
  20505176.647    20505178.001     -526300.971 9    693116.081 8
  23721513.967    23721517.189     4878602.759 7   9053922.237 6
  20898652.000    20898652.768    -6650188.059 9  -3830977.512 9
  20767603.274    20767607.502      625502.374 9   1673882.197 8
 86  6 17  0 28 35.0800000  0  4G 6G 8G 9G11
  20505864.009    20505864.780     -522694.262 9    695926.495 8
  23725659.851    23725666.058     4900390.851 7   9070899.943 5
  20896184.396    20896185.814    -6663156.327 9  -3841082.650 9
  20768898.699    20768902.395      632308.080 9   1679185.348 7
 86  6 17  0 28 41.0800000  0  4G 6G 8G 9G11
  20506554.103    20506554.552     -519067.041 9    698752.902 9
  23729807.079    23729812.990     4922182.609 6   9087880.533 4
  20893719.331    20893720.770    -6676110.894 9  -3851177.113 7
  20770196.201    20770201.212      639132.991 8   1684503.455 8
 86  6 17  0 28 47.0800000  0  4G 6G 8G 9G11
  20507248.464    20507248.295     -515419.223 9    701595.362 7
  23733952.587    23733958.786     4943978.085 7   9104864.024 5
  20891256.833    20891258.953    -6689051.972 9  -3861261.080 9
  20771498.693    20771503.463      645977.060 9   1689836.497 8
 86  6 17  0 28 53.0800000  0  4G 6G 8G 9G11
  20507947.151    20507946.499     -511750.822 9    704453.873 8
  23738103.787    23738107.333     4965777.163 6   9121850.305 6
  20888796.380    20888798.811    -6701979.400 9  -3871334.400 8
  20772805.538    20772810.291      652840.304 9   1695184.459 9
 86  6 17  0 28 59.0800000  0  4G 6G 8G 9G11
  20508648.066    20508649.624     -508061.794 9    707328.439 9
  23742250.899    23742256.406     4987579.865 7   9138839.403 4
  20886338.785    20886341.160    -6714893.158 9  -3881397.072 9
  20774116.058    20774118.981      659722.641 8   1700547.329 9
 86  6 17  0 29  5.0800000  0  4G 6G 8G 9G11
  20509354.145    20509354.451     -504352.239 9    710218.987 8
  23746401.269    23746404.139     5009386.107 6   9155831.289 6
  20883883.180    20883886.755    -6727793.300 9  -3891449.131 9
  20775428.425    20775432.251      666624.070 9   1705925.067 9
 86  6 17  0 29 11.0800000  0  4G 6G 8G 9G11
  20510062.828    20510063.998     -500622.100 8    713125.599 7
  23750551.872    23750555.518     5031195.917 6   9172825.936 4
  20881431.472    20881434.975    -6740679.746 9  -3901490.518 9
  20776745.299    20776749.812      673544.544 8   1711317.637 8
 86  6 17  0 29 17.0800000  0  4G 6G 8G 9G11
  20510776.806    20510778.632     -496871.317 9    716048.287 9
  23754702.115    23754706.950     5053009.242 6   9189823.331 6
  20878981.378    20878985.225    -6753552.502 9  -3911521.238 8
  20778066.094    20778069.147      680484.112 9   1716725.091 8
 86  6 17  0 29 23.0800000  0  4G 6G 8G 9G11
  20511494.240    20511496.130     -493099.942 8    718987.008 7
  23758853.336    23758859.463     5074826.123 7   9206823.493 5
  20876534.343    20876538.572    -6766411.642 9  -3921541.345 8
  20779390.942    20779393.723      687442.710 9   1722147.371 8
 86  6 17  0 29 29.0800000  0  4G 6G 8G 9G11
  20512215.532    20512217.261     -489307.970 9    721941.794 8
  23763006.837    23763008.572     5096646.415 6   9223826.308 5
  20874089.957    20874092.134    -6779257.038 9  -3931550.734 9
  20780718.874    20780721.556      694420.335 9   1727584.489 8
 86  6 17  0 29 35.0800000  0  4G 6G 8G 9G11
  20512942.002    20512943.644     -485495.381 9    724912.640 8
  23767158.281    23767162.854     5118470.173 6   9240831.860 5
  20871647.884    20871651.795    -6792088.713 9  -3941549.454 9
  20782049.615    20782053.597      701416.972 9   1733036.414 8
 86  6 17  0 29 41.0800000  0  4G 6G 8G 9G11
  20513671.250    20513673.126     -481662.173 9    727899.530 8
  23771311.001    23771315.683     5140297.365 6   9257840.034 4
  20869209.107    20869211.822    -6804906.522 9  -3951537.349 9
  20783384.465    20783388.529      708432.595 9   1738503.130 9
 86  6 17  0 29 47.0800000  0  4G 6G 8G 9G11
  20514405.524    20514405.934     -477808.346 9    730902.519 8
  23775467.686    23775472.882     5162127.980 6   9274850.910 3
  20866771.884    20866774.611    -6817710.562 9  -3961514.527 9
  20784723.057    20784727.328      715467.241 9   1743984.680 9
 86  6 17  0 29 53.0800000  0  4G 6G 8G 9G11
  20515141.834    20515143.212     -473933.881 9    733921.582 8
  23779622.075    23779626.896     5183962.020 5   9291864.430 5
  20864339.375    20864341.570    -6830500.847 9  -3971480.971 8
  20786065.561    20786069.471      722520.816 9   1749480.969 8
 86  6 17  0 29 59.0800000  0  4G 6G 8G 9G11
  20515883.655    20515884.589     -470038.755 9    736956.761 8
  23783776.503    23783781.077     5205799.417 6   9308880.577 5
  20861907.025    20861910.003    -6843277.235 9  -3981436.602 8
  20787411.839    20787415.279      729593.382 9   1754992.048 8
 86  6 17  0 30  5.0800000  0  4G 6G 8G 9G11
  20516628.222    20516629.130     -466122.992 9    740007.988 8
  23787931.771    23787936.873     5227640.229 5   9325899.374 6
  20859478.419    20859481.220    -6856039.729 9  -3991381.390 8
  20788760.725    20788765.178      736684.846 9   1760517.865 9
 86  6 17  0 30 11.0800000  0  4G 6G 8G 9G11
  20517377.718    20517378.874     -462186.507 9    743075.378 8
  23792088.862    23792094.438     5249484.324 3   9342920.734 3
  20857052.676    20857055.712    -6868788.353 9  -4001315.392 7
  20790114.443    20790117.400      743795.279 9   1766058.460 8
 86  6 17  0 30 17.0800000  0  4G 6G 8G 9G11
  20518130.922    20518132.157     -458229.336 9    746158.899 7
  23796245.591    23796253.241     5271331.798 5   9359944.736 4
  20854629.623    20854632.009    -6881523.038 9  -4011238.512 7
  20791471.669    20791473.625      750924.628 9   1771613.797 9
 86  6 17  0 30 23.0800000  0  4G 6G 8G 9G11
  20518888.014    20518889.004     -454251.447 9    749258.551 8
  23800402.394    23800408.213     5293182.565 5   9376971.322 6
  20852208.728    20852211.895    -6894243.808 9  -4021150.792 9
  20792831.947    20792835.943      758072.863 9   1777183.854 8
 86  6 17  0 30 29.0800000  0  4G 6G 8G 9G11
  20519647.480    20519649.590     -450252.874 9    752374.305 8
  23804561.620    23804568.951     5315036.583 5   9394000.380 4
  20849791.104    20849792.487    -6906950.630 9  -4031052.214 8
  20794195.370    20794199.865      765239.946 8   1782768.590 8
 86  6 17  0 30 35.0800000  0  4G 6G 8G 9G11
  20520413.019    20520414.354     -446233.646 9    755506.168 8
  23808721.523    23808726.639     5336893.763 3   9411031.985 5
  20847374.756    20847377.714    -6919643.408 9  -4040942.678 8
  20795563.599    20795566.482      772425.901 9   1788368.037 7
 86  6 17  0 30 41.0800000  0  4G 6G 8G 9G11
  20521182.147    20521184.115     -442193.739 9    758654.143 8
  23812881.194    23812890.706     5358754.222 5   9428066.074 5
  20844962.374    20844965.558    -6932322.261 9  -4050822.299 8
  20796934.747    20796937.958      779630.725 9   1793982.183 8
 86  6 17  0 30 47.0800000  0  4G 6G 8G 9G11
  20521956.046    20521956.651     -438133.119 8    761818.264 8
  23817041.262    23817048.797     5380617.867 3   9445102.690 6
  20842553.503    20842554.055    -6944987.087 9  -4060690.994 9
  20798308.789    20798311.553      786854.361 9   1799610.986 8
 86  6 17  0 30 53.0800000  0  4G 6G 8G 9G11
  20522733.037    20522732.642     -434051.779 9    764998.510 9
  23821206.276    23821208.979     5402484.640 1   9462141.721 5
  20840145.634    20840147.398    -6957637.816 9  -4070548.703 8
  20799687.162    20799689.560      794096.755 9   1805254.412 9
 86  6 17  0 30 59.0800000  0  4G 6G 8G 9G11
  20523513.670    20523514.166     -429949.708 9    768194.936 8
  23825361.861    23825374.242     5424354.656 4   9479183.239 5
  20837742.278    20837742.489    -6970274.448 9  -4080395.417 8
  20801068.643    20801072.083      801357.978 9   1810912.511 9
 86  6 17  0 31  5.0800000  0  4G 6G 8G 9G11
  20524297.636    20524298.996     -425826.927 9    771407.494 8
  23829526.488    23829532.759     5446227.733 2   9496227.190 6
  20835339.331    20835340.566    -6982897.013 9  -4090231.179 8
  20802454.431    20802457.069      808637.931 9   1816585.201 8
 86  6 17  0 31 11.0800000  0  4G 6G 8G 9G11
  20525086.193    20525086.277     -421683.392 9    774636.219 8
  23833689.740    23833698.363     5468103.942 3   9513273.565 5
  20832940.776    20832940.275    -6995505.460 9  -4100055.935 8
  20803843.198    20803846.063      815936.628 9   1822272.487 8
 86  6 17  0 31 17.0800000  0  4G 6G 8G 9G11
  20525877.867    20525879.208     -417519.104 9    777881.097 8
  23837854.783    23837858.140     5489983.234 2   9530322.359 6
  20830543.749    20830545.079    -7008099.837 9  -4109869.739 8
  20805235.494    20805239.317      823254.037 9   1827974.375 9
 86  6 17  0 31 23.0800000  0  4G 6G 8G 9G11
  20526674.485    20526675.291     -413334.112 9    781142.139 7
  23842020.345    23842025.135     5511865.609 2   9547373.514 5
  20828149.784    20828149.762    -7020680.015 9  -4119672.460 7
  20806631.270    20806634.464      830590.149 9   1833690.805 9
 86  6 17  0 31 29.0800000  0  4G 6G 8G 9G11
  20527474.693    20527475.542     -409128.361 9    784419.339 7
  23846184.298    23846190.244     5533750.989 4   9564427.037 6
  20825757.786    20825759.896    -7033245.998 9  -4129464.138 9
  20808031.165    20808034.734      837944.999 9   1839421.858 8
 86  6 17  0 31 35.0800000  0  4G 6G 8G 9G11
  20528279.906    20528280.508     -404901.865 8    787712.693 7
  23850349.631    23850357.741     5555639.363 4   9581482.923 6
  20823370.052    20823371.577    -7045797.814 9  -4139244.766 9
  20809434.509    20809437.636      845318.547 8   1845167.459 8
 86  6 17  0 31 41.0800000  0  4G 6G 8G 9G11
  20529086.890    20529087.202     -400654.604 9    791022.256 7
  23854515.092    23854519.255     5577530.740 2   9598541.087 5
  20820983.916    20820985.503    -7058335.423 9  -4149014.327 8
  20810840.445    20810843.999      852710.757 9   1850927.637 9
 86  6 17  0 31 47.0800000  0  4G 6G 8G 9G11
  20529899.258    20529899.021     -396386.634 9    794347.955 7
  23858684.325    23858685.200     5599425.060 3   9615601.598 6
  20818600.606    20818602.546    -7070858.788 9  -4158772.793 7
  20812251.402    20812254.054      860121.521 9   1856702.254 9
 86  6 17  0 31 53.0800000  0  4G 6G 8G 9G11
  20530715.671    20530716.505     -392097.848 9    797689.863 8
  23862851.585    23862855.222     5621322.318 5   9632664.382 5
  20816220.055    20816222.028    -7083368.006 9  -4168520.221 8
  20813664.962    20813667.832      867550.889 9   1862491.372 9
 86  6 17  0 31 59.0800000  0  4G 6G 8G 9G11
  20531535.110    20531535.386     -387788.219 9    801048.005 7
  23867020.908    23867022.438     5643222.534 5   9649729.505 5
  20813843.041    20813844.664    -7095862.799 9  -4178256.433 8
  20815081.431    20815085.243      874998.872 9   1868294.992 9
 86  6 17  0 32  5.0800000  0  4G 6G 8G 9G11
  20532359.262    20532360.226     -383457.827 9    804422.336 7
  23871187.278    23871189.408     5665125.650 5   9666796.828 4
  20811466.848    20811469.432    -7108343.328 9  -4187981.528 8
  20816502.433    20816505.802      882465.429 8   1874113.085 9
 86  6 17  0 32 11.0800000  0  4G 6G 8G 9G11
  20533187.256    20533187.525     -379106.670 9    807812.852 8
  23875353.797    23875355.898     5687031.625 5   9683866.421 5
  20809095.333    20809097.312    -7120809.508 9  -4197695.424 8
  20817926.855    20817930.710      889950.557 9   1879945.652 8
 86  6 17  0 32 17.0800000  0  4G 6G 8G 9G11
  20534018.989    20534019.704     -374734.712 9    811219.554 7
  23879523.744    23879527.426     5708940.486 5   9700938.228 5
  20806724.970    20806726.843    -7133261.358 9  -4207398.172 8
  20819354.570    20819357.678      897454.219 9   1885792.649 9
 86  6 17  0 32 23.0800000  0  4G 6G 8G 9G11
  20534855.056    20534855.537     -370341.885 8    814642.534 8
  23883693.586    23883695.571     5730852.195 6   9718012.281 4
  20804359.027    20804360.370    -7145698.726 9  -4217089.631 8
  20820785.689    20820790.117      904976.466 9   1891654.147 8
 86  6 17  0 32 29.0800000  0  4G 6G 8G 9G11
  20535694.776    20535696.530     -365928.273 9    818081.735 8
  23887864.868    23887865.225     5752766.711 7   9735088.528 5
  20801994.764    20801996.647    -7158121.707 9  -4226769.862 8
  20822221.187    20822224.098      912517.243 9   1897530.079 8
 86  6 17  0 32 35.0800000  0  4G 6G 8G 9G11
  20536538.535    20536539.031     -361493.803 9    821537.155 8
  23892033.429    23892034.848     5774684.022 4   9752166.960 4
  20799633.363    20799634.416    -7170530.236 9  -4236438.845 8
  20823659.588    20823662.369      920076.510 9   1903420.414 9
 86  6 17  0 32 41.0800000  0  4G 6G 8G 9G11
  20537385.474    20537387.779     -357038.558 9    825008.772 8
  23896206.574    23896206.130     5796604.123 4   9769247.537 3
  20797274.767    20797276.976    -7182924.324 9  -4246096.574 8
  20825102.082    20825104.338      927654.230 9   1909325.120 8
 86  6 17  0 32 47.0800000  0  4G 6G 8G 9G11
  20538237.958    20538238.329     -352562.402 9    828496.687 6
  23900377.709    23900378.906     5818526.986 6   9786330.281 3
  20794919.032    20794921.884    -7195303.959 9  -4255743.051 8
  20826547.456    20826549.362      935250.428 9   1915244.241 8
 86  6 17  0 32 53.0800000  0  4G 6G 8G 9G11
  20539094.252    20539095.937     -348065.451 9    832000.806 7
  23904550.179    23904550.870     5840452.563 5   9803415.132 1
  20792565.824    20792569.606    -7207669.062 9  -4265378.188 7
  20827996.148    20827999.915      942865.067 8   1921177.724 8
 86  6 17  0 32 59.0800000  0  4G 6G 8G 9G11
  20539952.829    20539955.140     -343547.690 9    835521.138 7
  23908724.255    23908726.136     5862380.891 6   9820502.132 2
  20790215.633    20790218.015    -7220019.649 9  -4275002.029 8
  20829448.829    20829452.242      950498.153 9   1927125.586 8
 86  6 17  0 33  5.0800000  0  4G 6G 8G 9G11
  20540817.978    20540819.352     -339009.057 9    839057.731 8
  23912898.452    23912895.428     5884311.824 5   9837591.196 3
  20787868.963    20787870.414    -7232355.748 9  -4284614.569 8
  20830904.903    20830908.284      958149.600 9   1933087.754 8
 86  6 17  0 33 11.0800000  0  4G 6G 8G 9G11
  20541686.085    20541685.878     -334449.530 9    842610.597 7
  23917069.496    23917070.669     5906245.444 6   9854682.305 3
  20785524.017    20785526.031    -7244677.231 9  -4294215.720 8
  20832365.086    20832367.165      965819.426 9   1939064.230 7
 86  6 17  0 33 17.0800000  0  4G 6G 8G 9G11
  20542557.168    20542559.363     -329869.141 9    846179.735 8
  23921246.159    23921246.816     5928181.748 6   9871775.559 4
  20783183.299    20783183.876    -7256984.094 9  -4303805.475 8
  20833827.369    20833829.620      973507.633 9   1945055.059 8
 86  6 17  0 33 23.0800000  0  4G 6G 8G 9G11
  20543432.783    20543434.376     -325267.865 9    849765.136 8
  23925419.635    23925418.718     5950120.656 7   9888870.776 2
  20780843.898    20780844.821    -7269276.423 9  -4313383.930 8
  20835295.234    20835296.054      981214.205 9   1951060.173 8
 86  6 17  0 33 29.0800000  0  4G 6G 8G 9G11
  20544312.439    20544313.796     -320645.698 9    853366.829 8
  23929596.125    23929595.483     5972062.139 7   9905968.059 4
  20778507.746    20778509.465    -7281554.067 9  -4322950.910 8
  20836764.645    20836766.095      988939.094 9   1957079.568 7
 86  6 17  0 33 35.0800000  0  4G 6G 8G 9G11
  20545195.647    20545197.749     -316002.666 9    856984.767 8
  23933769.676    23933770.921     5994006.227 5   9923067.340 2
  20776173.909    20776173.582    -7293817.048 9  -4332506.480 8
  20838237.804    20838239.653      996682.287 9   1963113.222 8
 86  6 17  0 33 41.0800000  0  4G 6G 8G 9G11
  20546083.840    20546084.553     -311338.808 9    860618.945 7
  23937945.722    23937946.667     6015952.871 6   9940168.607 1
  20773843.219    20773843.542    -7306065.362 9  -4342050.626 7
  20839715.042    20839716.305     1004443.797 9   1969161.159 7
 86  6 17  0 33 47.0800000  0  4G 6G 8G 9G11
  20546975.213    20546976.233     -306654.029 9    864269.416 8
  23942124.314    23942126.587     6037902.021 6   9957271.833 3
  20771515.224    20771515.647    -7318299.018 9  -4351583.346 8
  20841195.098    20841197.363     1012223.637 9   1975223.362 8
 86  6 17  0 33 53.0800000  0  4G 6G 8G 9G11
  20547870.523    20547871.744     -301948.383 9    867936.162 7
  23946301.165    23946300.484     6059853.642 7   9974376.990 3
  20769189.984    20769190.923    -7330517.871 9  -4361104.524 8
  20842679.077    20842680.656     1020021.748 9   1981299.831 8
 86  6 17  0 33 59.0800000  0  4G 6G 8G 9G11
  20548769.243    20548770.028     -297221.750 9    871619.245 8
  23950479.498    23950480.222     6081807.831 4   9991484.166 2
  20766867.705    20766867.870    -7342722.068 9  -4370614.283 8
  20844166.771    20844168.753     1027838.100 9   1987390.485 8
 86  6 17  0 34  5.0800000  0  4G 6G 8G 9G11
  20549672.928    20549673.625     -292474.225 9    875318.621 7
  23954657.973    23954658.615     6103764.401 6  10008593.152 3
  20764547.747    20764547.663    -7354911.482 9  -4380112.532 8
  20845657.462    20845661.113     1035672.656 9   1993495.326 8
 86  6 17  0 34 11.0800000  0  4G 6G 8G 9G11
  20550580.083    20550580.708     -287705.857 9    879034.214 8
  23958835.699    23958836.685     6125723.402 5  10025704.065 1
  20762231.073    20762231.357    -7367086.183 9  -4389599.308 8
  20847151.900    20847154.794     1043525.378 9   1999614.336 7
 86  6 17  0 34 17.0800000  0  4G 6G 8G 9G11
  20551490.943    20551492.038     -282916.552 9    882766.143 8
  23963013.658    23963016.706     6147684.849 6  10042816.863 3
  20759916.868    20759917.471    -7379246.012 9  -4399074.500 9
  20848649.942    20848652.538     1051396.340 9   2005747.552 7
 86  6 17  0 34 23.0800000  0  4G 6G 8G 9G11
  20552405.584    20552408.680     -278106.282 9    886514.391 8
  23967195.060    23967194.530     6169648.727 6  10059931.562 1
  20757604.792    20757606.677    -7391391.012 9  -4408538.127 7
  20850150.617    20850153.744     1059285.482 9   2011894.936 7
 86  6 17  0 34 29.0800000  0  4G 6G 8G 9G11
  20553326.040    20553327.038     -273275.101 9    890278.937 8
  23971371.129    23971373.745     6191614.968 4  10077048.106 1
  20755297.022    20755297.621    -7403521.181 9  -4417990.197 7
  20851656.302    20851658.554     1067192.758 8   2018056.464 7
 86  6 17  0 34 35.0800000  0  4G 6G 8G 9G11
  20554248.652    20554250.571     -268422.950 9    894059.835 7
  23975555.328    23975555.609     6213583.539 4  10094166.455 1
  20752991.317    20752992.829    -7415636.512 9  -4427430.718 8
  20853163.348    20853166.602     1075118.177 8   2024232.108 9
 86  6 17  0 34 41.0800000  0  4G 6G 8G 9G11
  20555177.124    20555177.760     -263549.871 9    897857.025 8
  23979735.546    23979737.569     6235554.420 3  10111286.598 2
  20750688.710    20750689.632    -7427736.851 9  -4436859.543 8
  20854674.609    20854678.396     1083061.671 9   2030421.839 7
 86  6 17  0 34 47.0800000  0  4G 6G 8G 9G11
  20556109.165    20556110.903     -258655.843 9    901670.551 8
  23983917.553    23983920.496     6257527.666 4  10128408.596 1
  20748389.239    20748390.842    -7439822.304 9  -4446276.777 8
  20856189.067    20856192.309     1091023.249 9   2036625.666 8
 86  6 17  0 34 53.0800000  0  4G 6G 8G 9G11
  20557044.159    20557046.216     -253740.847 9    905500.409 8
  23988096.844    23988098.796     6279503.248 5  10145532.428 3
  20746092.115    20746093.419    -7451892.903 9  -4455682.437 8
  20857707.788    20857711.999     1099002.985 9   2042843.650 9
 86  6 17  0 34 59.0800000  0  4G 6G 8G 9G11
  20557982.860    20557985.848     -248804.915 9    909346.599 7
  23992279.482    23992281.953     6301481.090 6  10162657.972 1
  20743797.493    20743799.386    -7463948.478 9  -4465076.390 7
  20859230.641    20859234.354     1107000.768 9   2049075.681 8
 86  6 17  0 35  5.0800000  0  4G 6G 8G 9G11
  20558927.258    20558927.885     -243847.998 9    913209.122 8
  23996464.089    23996463.953     6323461.124 5  10179785.294 1
  20741506.387    20741507.865    -7475988.934 9  -4474458.575 7
  20860755.530    20860759.315     1115016.661 9   2055321.841 7
 86  6 17  0 35 11.0800000  0  4G 6G 8G 9G11
  20559874.122    20559875.321     -238870.160 9    917087.958 8
  24000643.867    24000651.253     6345443.414 4  10196914.316 1
  20739218.004    20739218.852    -7488014.494 9  -4483829.128 8
  20862284.624    20862287.651     1123050.557 9   2061582.022 7
 86  6 17  0 35 17.0800000  0  4G 6G 8G 9G11
  20560826.040    20560825.623     -233871.304 9    920983.171 8
  24004827.665    24004831.384     6367427.885 5  10214045.087 1
  20736932.961    20736934.144    -7500024.921 9  -4493187.897 7
  20863815.951    20863820.248     1131102.457 8   2067856.233 8
 86  6 17  0 35 23.0800000  0  4G 6G 8G 9G11
  20561780.154    20561781.506     -228851.396 9    924894.785 8
  24009010.001    24009021.946     6389414.610 4  10231177.549 1
  20734649.860    20734652.133    -7512020.375 9  -4502534.998 8
  20865351.969    20865356.569     1139172.393 9   2074144.486 7
 86  6 17  0 35 29.0800000  0  4G 6G 8G 9G11
  20562739.697    20562740.827     -223810.615 9    928822.666 8
  24013198.329    24013198.002     6411403.384 3  10248311.704 1
  20732370.757    20732372.219    -7524000.743 9  -4511870.358 7
  20866890.252    20866894.261     1147260.259 8   2080446.722 9
 86  6 17  0 35 35.0800000  0  4G 6G 8G 9G11
  20563704.257    20563704.427     -218748.942 9    932766.828 8
  24017380.923    24017385.690     6433394.181 4  10265447.378 1
  20730093.964    20730095.035    -7535966.132 9  -4521194.032 8
  20868432.981    20868437.824     1155365.941 9   2086762.838 8
 86  6 17  0 35 41.0800000  0  4G 6G 8G 9G11
  20564667.832    20564670.595     -213666.097 9    936727.478 8
  24021566.230    24021571.536     6455387.287 4  10282584.806 1
  20727820.319    20727821.117    -7547916.219 9  -4530505.787 8
  20869980.003    20869982.875     1163489.699 9   2093093.036 8
 86  6 17  0 35 47.0800000  0  4G 6G 8G 9G11
  20565640.087    20565642.951     -208562.470 9    940704.333 8
  24025752.907    24025754.408     6477382.301 4  10299723.776 1
  20725549.328    20725549.007    -7559851.402 9  -4539805.918 9
  20871528.431    20871531.414     1171631.223 9   2099437.076 7
 86  6 17  0 35 53.0800000  0  4G 6G 8G 9G11
  20566615.908    20566617.104     -203437.662 9    944697.681 8
                  24029940.365     6499379.482 4
  20723280.070    20723281.215    -7571771.276 9  -4549094.132 8
  20873081.821    20873084.990     1179790.821 9   2105795.203 8
 86  6 17  0 35 59.0800000  0  4G 6G 8G 9G11
  20567594.121    20567596.630     -198292.021 9    948707.269 7
  24034124.941    24034212.885     6521378.622 3  10362844.099 1
  20721015.518    20721017.480    -7583676.079 9  -4558370.606 8
  20874637.560    20874640.999     1187968.145 9   2112167.138 7
 86  6 17  0 36  5.0800000  0  4G 6G 8G 9G11
  20568576.508    20568579.122     -193125.153 8    952733.402 7
                  24038313.342     6543402.858 1
  20718752.768    20718754.185    -7595565.505 9  -4567635.090 7
  20876197.793    20876201.159     1196163.480 9   2118553.124 8
 86  6 17  0 36 11.0800000  0  4G 6G 8G 9G11
  20569565.174    20569566.417     -187937.300 9    956775.890 7
                  24043425.841   -18024241.545 4
  20716492.517    20716494.628    -7607439.694 9  -4576887.706 8
  20877761.240    20877763.292     1204376.652 8   2124952.987 7
 86  6 17  0 36 17.0800000  0  4G 6G 8G 9G11
  20570555.161    20570559.332     -182728.374 9    960834.778 8
                  24047141.624   -18091361.395 4
  20714236.456    20714237.850    -7619298.596 9  -4586128.402 9
  20879326.397    20879329.492     1212607.644 9   2131366.765 7
 86  6 17  0 36 23.0800000  0  4G 6G 8G 9G11
  20571551.614    20571551.904     -177498.450 8    964910.049 7
                  24051828.127   -18111788.515 4
  20711982.399    20711985.757    -7631142.274 9  -4595357.244 8
  20880897.415    20880899.496     1220856.482 9   2137794.418 9
 86  6 17  0 36 29.0800000  0  4G 6G 8G 9G11
  20572550.905    20572551.979     -172247.460 9    969001.726 8
                  24056485.326   -18134161.469 4
  20709732.094    20709734.637    -7642970.595 9  -4604574.118 8
  20882470.252    20882472.046     1229123.128 9   2144235.954 8
 86  6 17  0 36 35.0800000  0  4G 6G 8G 9G11
  20573554.062    20573554.323     -166975.443 9    973109.772 7
                  24060221.291   -18198498.586 4
  20707484.140    20707486.234    -7654783.696 9  -4613779.131 8
  20884045.881    20884048.694     1237407.555 9   2150691.347 7
 86  6 17  0 36 41.0800000  0  4G 6G 8G 9G11
  20574560.964    20574561.803     -161682.361 9    977234.245 7
                  24064472.495   -18221733.392 4
  20705238.697    20705241.426    -7666581.440 9  -4622972.167 8
  20885625.730    20885628.340     1245709.746 9   2157160.605 7
 86  6 17  0 36 47.0800000  0  4G 6G 8G 9G11
  20575572.586    20575572.473     -156368.273 9    981375.091 8
                  24068563.779   -18245189.654 4
  20702996.193    20702998.861    -7678363.745 9  -4632153.183 9
  20887208.698    20887210.879     1254029.680 9   2163643.663 7
 86  6 17  0 36 53.0800000  0  4G 6G 8G 9G11
  20576588.113    20576589.056     -151033.129 9    985532.348 8
                  25758807.560   -18268699.413 4
  20700757.164    20700759.799    -7690130.689 9  -4641322.233 9
  20888795.801    20888797.595     1262367.329 9   2170140.530 8
 86  6 17  0 36 59.0800000  0  4G 6G 8G 9G11
  20577606.835    20577608.002     -145676.857 9    989706.052 7
                  25771366.659   -18246683.900 4
  20698520.985    20698524.319    -7701882.180 9  -4650479.229 7
  20890385.310    20890387.919     1270722.687 9   2176651.193 7
 86  6 17  0 37  5.0800000  0  4G 6G 8G 9G11
  20578629.837    20578629.616     -140299.538 9    993896.176 6
                  25784105.675   -18224666.677 4
  20696286.490    20696290.487    -7713618.276 9  -4659624.240 8
  20891978.109    20891979.815     1279095.664 9   2183175.599 8
 86  6 17  0 37 11.0800000  0  4G 6G 8G 9G11
  20579656.560    20579657.063     -134901.189 9    998102.675 6
                  25796756.775   -18202647.744 4
  20694057.331    20694059.984    -7725338.944 9  -4668757.214 8
  20893574.683    20893576.493     1287486.329 9   2189713.786 7
 86  6 17  0 37 17.0800000  0  4G 6G 8G 9G11
  20580688.007    20580689.179     -129481.741 8   1002325.622 7
                  25809202.739   -18180627.101 4
  20691830.101    20691832.378    -7737044.098 9  -4677878.111 8
  20895174.583    20895177.175     1295894.623 9   2196265.702 7
 86  6 17  0 37 23.0800000  0  4G 6G 8G 9G11
  20581722.257    20581724.363     -124041.195 8   1006565.002 7
                  25821678.008   -18158604.747 4
  20689605.561    20689608.568    -7748733.691 9  -4686986.895 9
  20896778.554    20896779.832     1304320.552 9   2202831.352 8
 86  6 17  0 37 29.0800000  0  4G 6G 8G 9G11
  20582762.605    20582763.011     -118579.593 9   1010820.793 7
                  25834094.666   -18136580.683 4
  20687384.566    20687387.308    -7760407.829 9  -4696083.617 8
  20898385.406    20898386.554     1312764.105 9   2209410.743 8
 86  6 17  0 37 35.0800000  0  4G 6G 8G 9G11
  20583806.333    20583805.378     -113096.836 9   1015093.064 6
                  25846452.714   -18114554.910 4
  20685165.660    20685168.467    -7772066.331 9  -4705168.163 8
  20899995.446    20899997.741     1321225.286 9   2216003.873 7
 86  6 17  0 37 41.0800000  0  4G 6G 8G 9G11
  20584853.762    20584853.835     -107593.033 9   1019381.743 8
                  25858898.678   -18092527.426 4
  20682950.205    20682952.392    -7783709.369 9  -4714240.651 8
  20901609.108    20901610.532     1329704.068 9   2222610.723 7
 86  6 17  0 37 47.0800000  0  4G 6G 8G 9G11
  20585904.578    20585906.109     -102068.142 8   1023686.851 6
                  25871930.746   -18070498.232 4
  20680737.035    20680740.138    -7795336.708 9  -4723300.906 8
  20903225.571    20903227.295     1338200.406 8   2229231.248 7
 86  6 17  0 37 53.0800000  0  4G 6G 8G 9G11
  20586960.021    20586961.306      -96522.114 9   1028008.439 7
                  25884142.268   -18048467.328 4
  20678527.438    20678528.994    -7806948.496 9  -4732349.055 7
  20904847.905    20904846.985     1346714.239 9   2235865.393 8
 86  6 17  0 37 59.0800000  0  4G 6G 8G 9G11
  20588018.991    20588020.633      -90954.987 9   1032346.449 7
                  25896558.926   -18026434.713 4
  20676320.650    20676322.438    -7818544.631 9  -4741385.011 8
  20906470.012    20906472.105     1355245.586 9   2242513.185 7
 86  6 17  0 38  5.0800000  0  4G 6G 8G 9G11
  20589082.164    20589083.512      -85366.756 9   1036700.898 7
                  25909034.195   -18004400.389 4
  20674116.993    20674118.749    -7830125.047 9  -4750408.703 8
  20908096.722    20908099.002     1363794.446 9   2249174.651 7
 86  6 17  0 38 11.0800000  0  4G 6G 8G 9G11
  20590149.492    20590152.168      -79757.379 8   1041071.839 7
                  25921773.211   -17982364.355 4
  20671917.098    20671917.135    -7841689.828 9  -4759420.218 8
  20909726.453    20909728.447     1372360.773 9   2255849.707 8
 86  6 17  0 38 17.0800000  0  4G 6G 8G 9G11
  20591220.392    20591223.303      -74126.908 9   1045459.216 7
                  25934189.869   -17960326.610 4
  20669719.349    20669719.999    -7853238.870 9  -4768419.470 7
  20911360.076    20911362.727     1380944.572 8   2262538.368 8
 86  6 17  0 38 23.0800000  0  4G 6G 8G 9G11
  20592295.429    20592299.562      -68475.290 8   1049863.087 8
                  25946375.827   -17938287.155 4
  20667524.282    20667526.400    -7864772.167 9  -4777406.459 7
  20912996.887    20912999.814     1389545.824 9   2269240.663 7
 86  6 17  0 38 29.0800000  0  4G 6G 8G 9G11
  20593375.569    20593378.635      -62802.583 8   1054283.365 7
                  25958562.337   -17916245.991 4
  20665332.131    20665333.116    -7876289.774 9  -4786381.203 9
  20914636.609    20914640.078     1398164.572 9   2275956.560 8
 86  6 17  0 38 35.0800000  0  4G 6G 8G 9G11
  20594459.135    20594461.354      -57108.675 8   1058720.162 8
                  25970866.067   -17894203.116 4
  20663142.861    20663143.695    -7887791.520 9  -4795343.613 9
  20916280.619    20916283.255     1406800.806 9   2282686.094 8
 86  6 17  0 38 41.0800000  0  4G 6G 8G 9G11
  20595548.077    20595549.247      -51393.638 9   1063173.453 6
                  25983257.713   -17872158.530 4
  20660958.183    20660959.405    -7899277.491 9  -4804293.703 8
  20917926.464    20917929.931     1415454.414 9   2289429.161 7
 86  6 17  0 38 47.0800000  0  4G 6G 8G 9G11
  20596638.361    20596640.771      -45657.419 9   1067643.224 7
                  25995825.190   -17850112.235 4
  20658775.279    20658776.435    -7910747.628 9  -4813231.475 8
  20919576.597    20919579.408     1424125.345 9   2296185.728 8
 86  6 17  0 38 53.0800000  0  4G 6G 8G 9G11
  20597734.120    20597737.566      -39900.120 7   1072129.426 6
                  26008656.415   -17828064.230 4
  20656595.563    20656595.960    -7922202.014 9  -4822156.978 7
  20921228.967    20921232.864     1432813.571 9   2302955.781 8
 86  6 17  0 38 59.0800000  0  4G 6G 8G 9G11
  20598833.585    20598836.203      -34121.630 8   1076632.152 6
                  26021135.976   -17806014.514 4
  20654418.939    20654419.900    -7933640.486 9  -4831070.071 9
  20922886.655    20922889.180     1441519.089 9   2309739.305 8
 86  6 17  0 39  5.0800000  0  4G 6G 8G 9G11
  20599938.934    20599940.610      -28322.015 7   1081151.321 7
                  26033791.369   -17783963.089 4
  20652245.365    20652244.997    -7945063.128 9  -4839970.820 8
  20924546.151    20924550.532     1450241.909 9   2316536.290 8
 86  6 17  0 39 11.0800000  0  4G 6G 8G 9G11
  20601045.506    20601048.483      -22501.284 8   1085686.965 8
                  26046124.405   -17761909.953 4
  20650074.848    20650077.101    -7956469.842 9  -4848859.174 8
  20926209.351    20926212.289     1458981.993 9   2323346.745 8
 86  6 17  0 39 17.0800000  0  4G 6G 8G 9G11
  20602157.403    20602161.419      -16659.386 9   1090239.087 7
                  26058691.882   -17739855.107 4
  20647907.210    20647908.111    -7967860.559 9  -4857735.060 7
  20927876.301    20927880.227     1467739.373 9   2330170.684 7
 86  6 17  0 39 23.0800000  0  4G 6G 8G 9G11
  20603273.549    20603275.830      -10796.346 9   1094807.691 8
                  26071171.444   -17717798.551 4
  20645743.169    20645743.110    -7979235.444 9  -4866598.590 8
  20929546.225    20929548.307     1476513.962 9   2337008.037 7
 86  6 17  0 39 29.0800000  0  4G 6G 8G 9G11
  20604393.580    20604396.012       -4912.145 8   1099392.791 7
                  26083826.837   -17695740.285 4
  20643581.255    20643582.070    -7990594.304 9  -4875449.664 7
  20931219.469    20931220.906     1485305.829 9   2343858.823 7
 86  6 17  0 39 35.0800000  0  4G 6G 8G 9G11
  20605517.496    20605519.609         993.298 9   1103994.430 8
                  26096482.230   -17673680.309 4
  20641421.940    20641424.514    -8001937.270 9  -4884288.326 8
  20932896.061    20932897.486     1494114.916 9   2350723.057 8
 86  6 17  0 39 41.0800000  0  4G 6G 8G 9G11
  20606646.059    20606648.685        6919.886 9   1108612.539 8
                  26109228.393   -17651618.622 4
  20639266.735    20639268.671    -8013264.143 9  -4893114.463 8
  20934574.690    20934577.927     1502941.225 9   2357600.707 8
 86  6 17  0 39 47.0800000  0  3G 6G 9G11
  20607777.058    20607780.862       12867.678 9   1113247.163 9
  20637114.477    20637115.616    -8024574.915 9  -4901928.052 7
  20936258.106    20936262.005     1511784.711 9   2364491.745 8
 86  6 17  0 39 53.0800000  0  3G 6G 9G11
  20608912.718    20608915.616       18836.643 8   1117898.307 7
  20634965.784    20634966.297    -8035869.601 9  -4910729.097 8
  20937943.901    20937946.942     1520645.321 9   2371396.109 9
 86  6 17  0 39 59.0800000  0  3G 6G 9G11
  20610053.107    20610056.517       24826.781 9   1122565.950 8
  20632818.988    20632819.246    -8047148.292 9  -4919517.694 8
  20939633.787    20939635.196     1529523.056 9   2378313.821 8
 86  6 17  0 40  5.0800000  0  3G 6G 9G11
  20611195.727    20611199.524       30838.171 9   1127250.134 8
  20630675.431    20630677.614    -8058410.761 9  -4928293.641 7
  20941325.936    20941329.433     1538417.954 9   2385244.915 8
 86  6 17  0 40 11.0800000  0  3G 6G 9G11
  20612343.671    20612346.990       36870.787 9   1131950.871 7
  20628535.953    20628536.425    -8069657.130 9  -4937057.042 7
  20943021.961    20943024.328     1547329.972 9   2392189.338 8
 86  6 17  0 40 17.0800000  0  3G 6G 9G11
  20613496.912    20613499.550       42924.537 8   1136668.067 9
  20626398.528    20626399.901    -8080887.377 9  -4945807.872 7
  20944721.135    20944724.577     1556259.101 9   2399147.103 7
 86  6 17  0 40 23.0800000  0  3G 6G 9G11
  20614652.357    20614656.144       48999.484 8   1141401.789 8
  20624264.905    20624265.381    -8092101.449 9  -4954546.120 7
  20946424.243    20946427.199     1565205.271 9   2406118.142 8
 86  6 17  0 40 29.0800000  0  3G 6G 9G11
  20615813.131    20615815.749       55095.727 9   1146152.112 8
  20622133.595    20622135.400    -8103299.281 9  -4963271.698 8
  20948129.654    20948133.481     1574168.543 9   2413102.513 8
 86  6 17  0 40 35.0800000  0  3G 6G 9G11
  20616977.467    20616979.998       61213.138 9   1150918.916 8
  20620005.434    20620007.566    -8114480.878 9  -4971984.633 8
  20949838.600    20949840.998     1583148.842 9   2420100.148 8
 86  6 17  0 40 41.0800000  0  3G 6G 9G11
  20618146.233    20618147.777       67351.731 9   1155702.243 8
  20617881.410    20617882.522    -8125646.289 9  -4980684.953 7
  20951550.453    20951553.721     1592146.103 9   2427110.994 8
 86  6 17  0 40 47.0800000  0  3G 6G 9G11
  20619318.085    20619318.774       73511.553 5   1160502.096 5
  20615759.409    20615759.583    -8136795.462 6  -4989372.612 5
  20953265.244    20953269.230     1601160.379 8   2434135.114 5
 86  6 17  0 40 53.0800000  0  3G 6G 9G11
  20620495.503    20620496.377       79692.587 1   1165318.507 1
  20613640.769    20613642.732    -8147928.336 9  -4998047.582 8
  20954984.527    20954987.682     1610191.639 9   2441172.447 8
 86  6 17  0 40 59.0800000  0  4G 6G 8G 9G11
  20621674.149    20621675.563       85894.899 8   1170151.451 8
                  24243846.920   -19593690.238 6
  20611524.942    20611527.976    -8159044.902 9  -5006709.840 8
  20956707.373    20956711.204     1619239.886 6   2448223.035 4
 86  6 17  0 41  5.0800000  0  4G 6G 8G 9G11
  20622858.035    20622859.677       92118.422 9   1175000.951 7
                  24248047.212   -19571614.102 7
  20609413.086    20609415.344    -8170145.143 9  -5015359.377 8
  20958430.713    20958435.828     1628305.045 6   2455286.799 4
 86  6 17  0 41 11.0800000  0  4G 6G 8G 9G11
  20624045.297    20624047.910       98363.151 8   1179866.980 9
                  24252263.235   -19549537.258 6
  20607304.344    20607305.997    -8181229.031 9  -5023996.176 8
  20960158.800    20960163.079     1637387.114 4   2462363.733 5
 86  6 17  0 41 17.0800000  0  4G 6G 8G 9G11
  20625238.424    20625240.753      104629.117 9   1184749.558 7
                  24256471.038   -19527459.218 1
  20605198.578    20605199.948    -8192296.573 9  -5032620.233 8
  20961889.708    20961893.325     1646486.067 5   2469453.814 4
 86  6 17  0 41 23.0800000  0  4G 6G 8G 9G11
  20626434.759    20626436.315      110916.242 9   1189648.606 7
  24260673.537    24260657.725   -19505380.414 4  25218635.099 5
  20603095.819    20603096.898    -8203347.872 9  -5041231.627 8
  20963625.270    20963629.388     1655601.857 6   2476557.035 5
 86  6 17  0 41 29.0800000  0  4G 6G 8G 9G11
  20627634.483    20627638.571      117224.670 9   1194564.256 8
  24264882.500    24264861.576   -19483300.635 1  25235840.149 5
  20600995.799    20600996.835    -8214382.545 9  -5049830.075 9
  20965362.683    20965367.260     1664734.585 6   2483673.441 5
 86  6 17  0 41 35.0800000  0  4G 6G 8G 9G11
  20628839.431    20628841.347      123554.330 8   1199496.454 8
  24269083.985    24269062.966   -19461219.853 1  25253045.961 5
  20598898.558    20598900.097    -8225400.842 9  -5058415.768 8
  20967105.037    20967109.175     1673884.112 6   2490802.963 5
 86  6 17  0 41 41.0800000  0  4G 6G 8G 9G11
  20630048.529    20630050.699      129905.228 9   1204445.201 8
  24273282.462    24273262.776   -19439138.236 1  25270252.395 4
  20596805.253    20596807.201    -8236402.680 9  -5066988.628 8
  20968849.890    20968853.567     1683050.511 5   2497945.597 5
 86  6 17  0 41 47.0800000  0  4G 6G 8G 9G11
  20631260.581    20631262.671      136277.399 9   1209410.543 7
  24277483.046    24277466.322   -19417055.811 1  25287459.487 4
  20594711.198    20594716.362    -8247388.056 1  -5075548.667 1
  20970596.699    20970600.127     1692233.663 9   2505101.303 9
 86  6 17  0 41 53.0800000  0  4G 6G 8G 9G11
  20632478.764    20632479.196      142670.681 9   1214392.321 7
  24281684.212    24281668.441   -19394972.678 1  25304667.153 5
  20592629.682    20592620.915    -8258357.073 6  -5084095.951 1
  20972347.597    20972349.081     1701433.465 9   2512269.977 7
 86  6 17  0 41 59.0800000  0  4G 6G 8G 9G11
                  20633693.031      149074.571 1
  24285889.828    24285871.509   -19372888.558 2  25321875.517 6
                  20215856.360   -20136627.188 1
  20974101.327    20974104.105     1710650.173 9   2519451.829 8
 86  6 17  0 42  5.0800000  0  4G 6G 8G 9G11
                  20634924.965   -20158769.891 8
  24290083.172    24290073.975   -19350803.652 1  25339084.513 5
                  20588460.525   -20166474.251 9
  20975858.551    20975860.541     1719883.619 9   2526646.724 8
 86  6 17  0 42 11.0800000  0  4G 6G 8G 9G11
                  20636154.307   -20152312.944 9
  24294289.237    24294275.595   -19328717.967 1  25356294.118 5
                  20586384.473   -20177393.356 9
  20977619.127    20977621.482     1729133.810 9   2533854.657 9
 86  6 17  0 42 17.0800000  0  4G 6G 8G 9G11
  20637386.158    20637386.610   -20145834.405 9  25625658.620 5
  24298493.558    24298480.058   -19306631.616 1  25373504.285 4
  20584309.548    20584312.379   -20188295.875 9  25610910.985 6
  20979383.048    20979384.393     1738400.738 9   2541075.656 8
 86  6 17  0 42 23.0800000  0  4G 6G 8G 9G11
  20638623.235    20638625.358   -20139334.932 9  25630723.149 7
  24302693.377    24302683.849   -19284544.776 2  25390714.779 5
  20582238.023    20582239.703   -20199182.157 9  25602428.162 8
  20981149.203    20981150.837     1747684.078 9   2548309.423 8
 86  6 17  0 42 29.0800000  0  4G 6G 8G 9G11
  20639863.560    20639864.667   -20132814.471 9  25635804.411 8
  24306896.240    24306886.287   -19262457.024 1  25407926.024 6
  20580169.418    20580170.349   -20210051.558 9  25593957.991 8
  20982918.965    20982920.638     1756984.270 9   2555556.324 8
 86  6 17  0 42 35.0800000  0  4G 6G 8G 9G11
  20641107.830    20641109.595   -20126272.165 9  25640902.300 7
  24311102.155    24311089.837   -19240368.515 1  25425137.824 5
  20578105.076    20578105.397   -20220904.248 9  25585501.360 7
  20984692.131    20984693.917     1766301.177 9   2562816.261 7
 86  6 17  0 42 41.0800000  0  4G 6G 8G 9G11
  20642356.956    20642359.094   -20119708.609 9  25646016.759 8
  24315300.534    24315293.938   -19218279.347 1  25442350.149 4
  20576043.059    20576042.652   -20231740.158 9  25577057.785 8
  20986468.701    20986470.420     1775634.689 9   2570089.117 8
 86  6 17  0 42 47.0800000  0  4G 6G 8G 9G11
  20643609.402    20643612.714   -20113123.756 9  25651147.800 7
  24319504.493    24319499.100   -19196189.470 1  25459563.012 5
  20573983.794    20573982.750   -20242559.436 9  25568627.194 8
  20988247.249    20988249.266     1784984.788 9   2577374.912 8
 86  6 17  0 42 53.0800000  0  4G 6G 8G 9G11
  20644865.635    20644870.614   -20106517.635 9  25656295.420 8
  24323705.328    24323704.407   -19174098.981 1  25476776.319 4
  20571927.466    20571928.465   -20253362.042 9  25560209.577 7
  20990029.799    20990031.715     1794351.453 9   2584673.599 8
 86  6 17  0 42 59.0800000  0  4G 6G 8G 9G11
  20646126.575    20646130.502   -20099890.416 9  25661459.476 8
  24327909.899    24327904.303   -19152008.230 1  25493989.964 5
  20569874.107    20569875.239   -20264148.059 9  25551804.880 7
  20991815.155    20991817.588     1803734.506 9   2591985.069 8
 86  6 17  0 43  5.0800000  0  4G 6G 8G 9G11
  20647392.048    20647395.788   -20093242.046 9  25666640.015 8
  24332114.927    24332111.169   -19129916.942 1  25511203.911 1
  20567824.213    20567827.682   -20274917.450 9  25543413.152 7
  20993603.579    20993606.105     1813133.941 9   2599309.300 9
 86  6 17  0 43 11.0800000  0  4G 6G 8G 9G11
  20648661.826    20648665.853   -20086572.410 9  25671837.141 8
  24336318.726    24336313.423   -19107825.121 1  25528418.350 2
  20565778.502    20565779.175   -20285670.088 9  25535034.473 7
  20995395.313    20995397.751     1822549.947 9   2606646.458 8
 86  6 17  0 43 17.0800000  0  4G 6G 8G 9G11
  20649934.138    20649938.064   -20079881.475 9  25677050.858 7
  24340522.782    24340518.932   -19085732.708 1  25545633.183 2
  20563736.242    20563737.087   -20296405.886 9  25526668.924 8
  20997190.173    20997192.674     1831982.513 9   2613996.489 8
 86  6 17  0 43 23.0800000  0  4G 6G 8G 9G11
  20651211.724    20651216.611   -20073169.087 9  25682281.283 8
  24344722.951    24344725.498   -19063639.650 1  25562848.576 3
  20561697.245    20561697.580   -20307124.612 9  25518316.667 8
  20998988.239    20998991.068     1841431.759 9   2621359.552 7
 86  6 17  0 43 29.0800000  0  4G 6G 8G 9G11
  20652493.863    20652496.891   -20066435.260 9  25687528.408 8
  24348930.714    24348925.872   -19041545.884 1  25580064.426 2
  20559660.445    20559662.798   -20317826.380 9  25509977.620 8
  21000789.735    21000791.538     1850897.600 9   2628735.519 8
 86  6 17  0 43 35.0800000  0  4G 6G 8G 9G11
  20653778.352    20653782.821   -20059680.148 9  25692792.125 8
  24353134.874    24353130.006   -19019451.733 1  25597280.652 2
  20557626.405    20557628.493   -20328511.277 9  25501651.726 8
  21002593.981    21002596.468     1860379.891 9   2636124.331 7
 86  6 17  0 43 41.0800000  0  4G 6G 8G 9G11
  20655068.234    20655070.810   -20052903.933 8  25698072.288 9
  24357335.899    24357337.366   -18997357.343 2  25614497.071 2
  20555596.063    20555598.352   -20339179.584 8  25493338.777 9
  21004400.603    21004403.173     1869878.406 9   2643525.767 8
 86  6 17  0 43 47.0800000  0  4G 6G 8G 9G11
  20656362.425    20656365.134   -20046106.520 9  25703368.971 8
  24361536.963    24361541.661   -18975262.512 2  25631713.785 1
  20553569.160    20553572.654   -20349830.985 9  25485038.969 8
  21006211.371    21006214.562     1879393.270 9   2650939.955 7
 86  6 17  0 43 53.0800000  0  4G 6G 8G 9G11
  20657660.136    20657661.938   -20039287.498 9  25708682.492 8
  24365739.660    24365749.336   -18953167.016 1  25648931.057 2
  20551546.103    20551548.468   -20360465.121 9  25476752.635 8
  21008025.690    21008028.439     1888924.803 9   2658367.107 7
 86  6 17  0 43 59.0800000  0  4G 6G 8G 9G11
  20658961.824    20658964.371   -20032447.225 9  25714012.568 8
  24369949.101    24369949.077   -18931071.146 2  25666148.596 2
  20549526.595    20549528.970   -20371082.465 9  25468479.376 8
  21009841.898    21009845.188     1898472.643 9   2665806.986 8
 86  6 17  0 44  5.0800000  0  4G 6G 8G 9G11
  20660267.553    20660270.143   -20025585.900 9  25719359.049 8
  24374146.388    24374158.068   -18908975.228 2  25683366.225 2
  20547509.062    20547510.687   -20381682.983 9  25460219.230 8
  21011662.944    21011664.882     1908036.582 9   2673259.408 7
 86  6 17  0 44 11.0800000  0  4G 6G 8G 9G11
  20661578.693    20661579.129   -20018702.906 9  25724722.422 9
  24378355.412    24378359.835   -18886878.523 2  25700584.383 1
  20545495.118    20545496.905   -20392266.198 9  25451972.576 8
  21013486.448    21013488.224     1917617.182 9   2680724.820 7
 86  6 17  0 44 17.0800000  0  4G 6G 8G 9G11
  20662890.775    20662892.883   -20011798.706 9  25730102.321 8
  24382556.314    24382566.189   -18864781.581 1  25717802.810 1
  20543484.721    20543487.146   -20402832.433 9  25443739.134 8
  21015311.900    21015314.411     1927214.038 9   2688202.877 7
 86  6 17  0 44 23.0800000  0  4G 6G 8G 9G11
  20664209.418    20664211.190   -20004873.341 9  25735498.708 8
  24386763.564    24386770.499   -18842684.427 1  25735021.297 1
  20541476.902    20541479.905   -20413381.779 9  25435518.870 8
  21017141.415    21017143.139     1936826.985 9   2695693.491 7
 86  6 17  0 44 29.0800000  0  4G 6G 8G 9G11
  20665531.504    20665532.904   -19997926.415 9  25740911.896 8
  24390970.586    24390974.700   -18820586.797 3  25752240.190 1
  20539473.282    20539476.037   -20423913.826 9  25427312.086 9
  21018973.737    21018975.718     1946456.452 9   2703196.968 8
 86  6 17  0 44 35.0800000  0  4G 6G 8G 9G11
  20666857.795    20666859.168   -19990958.204 9  25746341.658 7
  24395174.440    24395178.528   -18798488.817 3  25769459.406 1
  20537472.762    20537474.906   -20434428.774 9  25419118.619 8
  21020809.893    21020810.747     1956102.196 9   2710713.138 8
 86  6 17  0 44 41.0800000  0  4G 6G 8G 9G11
  20668187.699    20668188.704   -19983968.809 9  25751787.947 8
                  24399377.784   -18776390.790 3
  20535474.330    20535476.603   -20444926.737 9  25410938.376 9
  21022647.392    21022649.387     1965763.997 9   2718241.812 7
 86  6 17  0 44 47.0800000  0  4G 6G 8G 9G11
  20669521.279    20669523.089   -19976958.180 9  25757250.763 8
  24403583.134    24403642.045   -18754292.572 3  25832562.452 1
  20533480.038    20533481.197   -20455407.695 9  25402771.407 8
  21024489.152    21024490.682     1975441.920 9   2725783.050 7
 86  6 17  0 44 53.0800000  0  4G 6G 8G 9G11
  20670859.030    20670861.838   -19969925.980 9  25762730.396 8
  24407790.009    24407789.997   -18732193.937 4  25849782.160 2
  20531488.562    20531490.482   -20465871.218 9  25394618.010 8
  21026333.780    21026336.080     1985136.239 9   2733337.048 7
 86  6 17  0 44 59.0800000  0  4G 6G 8G 9G11
  20672201.773    20672203.388   -19962872.494 9  25768226.617 8
  24411994.785    24411999.817   -18710095.188 4  25867001.965 2
  20529501.283    20529504.042   -20476317.628 9  25386477.953 9
  21028181.238    21028183.017     1994846.680 9   2740903.637 8
 86  6 17  0 45  5.0800000  0  4G 6G 8G 9G11
  20673548.609    20673548.589   -19955797.922 9  25773739.263 8
  24416199.914    24416203.731   -18687996.452 4  25884222.255 1
  20527516.208    20527518.556   -20486747.034 9  25378351.150 8
  21030032.674    21030034.977     2004573.140 9   2748482.671 7
 86  6 17  0 45 11.0800000  0  4G 6G 8G 9G11
  20674897.966    20674899.823   -19948702.007 9  25779268.553 7
  24420404.808    24420413.611   -18665897.535 5  25901442.181 1
  20525534.947    20525536.647   -20497159.210 9  25370237.763 8
  21031886.201    21031888.418     2014315.787 9   2756074.363 7
 86  6 17  0 45 17.0800000  0  4G 6G 8G 9G11
  20676253.083    20676254.950   -19941584.507 9  25784814.646 7
  24424608.162    24424616.236   -18643798.219 4  25918662.363 1
  20523556.425    20523560.014   -20507553.876 9  25362138.019 8
  21033742.620    21033744.994     2024074.768 9   2763678.759 8
 86  6 17  0 45 23.0800000  0  4G 6G 8G 9G11
  20677611.148    20677612.702   -19934445.688 9  25790377.354 9
  24428817.367    24428820.957   -18621698.828 5  25935882.648 1
  20521582.415    20521585.049   -20517931.262 9  25354051.743 8
  21035603.243    21035605.845     2033849.876 9   2771295.724 7
 86  6 17  0 45 29.0800000  0  4G 6G 8G 9G11
  20678973.773    20678975.373   -19927285.592 9  25795956.651 7
  24433025.520    24433022.981   -18599599.326 4  25953103.034 1
  20519610.751    20519611.726   -20528291.465 9  25345978.864 8
  21037466.268    21037468.774     2043641.058 9   2778925.226 8
 86  6 17  0 45 35.0800000  0  4G 6G 8G 9G11
  20680340.033    20680341.630   -19920104.147 8  25801552.572 8
  24437228.968    24437233.576   -18577499.735 6  25970323.552 1
  20517641.873    20517644.379   -20538634.267 9  25337919.540 7
  21039332.361    21039335.073     2053448.279 9   2786567.198 8
 86  6 17  0 45 41.0800000  0  4G 6G 8G 9G11
  20681710.508    20681713.567   -19912901.352 9  25807165.140 8
  24441433.831    24441432.966   -18555400.076 4  25987544.033 1
  20515677.422    20515678.554   -20548959.708 9  25329873.750 8
  21041202.025    21041204.845     2063271.558 9   2794221.705 8
 86  6 17  0 45 47.0800000  0  4G 6G 8G 9G11
  20683084.653    20683087.021   -19905677.215 9  25812794.335 8
  24445638.431    24445640.770   -18533300.372 6  26004764.527 1
  20513715.832    20513717.370   -20559267.878 9  25321841.410 8
  21043073.728    21043076.431     2073110.795 9   2801888.648 7
 86  6 17  0 45 53.0800000  0  4G 6G 8G 9G11
  20684463.583    20684466.065   -19898431.734 8  25818440.154 7
  24449844.353    24449843.935   -18511200.628 6  26021985.142 3
  20511757.858    20511759.945   -20569558.660 9  25313822.628 8
  21044949.319    21044953.154     2082966.069 9   2809568.077 7
 86  6 17  0 45 59.0800000  0  4G 6G 8G 9G11
  20685847.051    20685849.357   -19891164.919 9  25824102.602 8
  24454049.856    24454048.515   -18489100.866 6  26039205.679 2
  20509802.249    20509803.071   -20579831.984 9  25305817.425 7
  21046828.173    21046830.573     2092837.370 9   2817260.001 8
 86  6 17  0 46  5.0800000  0  4G 6G 8G 9G11
  20687233.781    20687235.465   -19883876.674 9  25829781.744 8
  24458255.970    24458256.371   -18467001.164 6  26056426.254 1
  20507850.055    20507851.746   -20590087.911 9  25297825.809 7
  21048709.340    21048712.062     2102724.572 9   2824964.297 8
 86  6 17  0 46 11.0800000  0  4G 6G 8G 9G11
  20688624.753    20688627.018   -19876567.045 9  25835477.559 8
  24462461.082    24462461.219   -18444901.359 5  26073646.862 1
  20505902.193    20505902.964   -20600326.320 9  25289847.820 7
  21050593.977    21050597.489     2112627.779 9   2832681.099 8
 86  6 17  0 46 17.0800000  0  4G 6G 8G 9G11
  20690020.189    20690021.461   -19869236.115 9  25841189.971 8
  24466666.337    24466672.572   -18422801.637 6  26090867.417 1
  20503957.106    20503958.841   -20610547.288 9  25281883.442 8
  21052481.502    21052484.249     2122546.914 9   2840410.287 7
 86  6 17  0 46 23.0800000  0  4G 6G 8G 9G11
  20691419.945    20691420.888   -19861883.837 9  25846919.004 7
  24470871.768    24470873.161   -18400702.025 6  26108087.875 3
  20502015.426    20502016.311   -20620750.760 9  25273932.690 8
  21054372.090    21054375.160     2132482.003 9   2848151.921 7
 86  6 17  0 46 29.0800000  0  4G 6G 8G 9G11
  20692822.584    20692824.755   -19854510.229 8  25852664.678 8
  24475077.481    24475080.744   -18378602.465 5  26125308.315 1
  20500076.654    20500078.907   -20630936.720 9  25265995.576 7
  21056265.937    21056269.283     2142433.003 9   2855905.941 7
 86  6 17  0 46 35.0800000  0  4G 6G 8G 9G11
  20694230.263    20694232.643   -19847115.222 9  25858427.003 9
  24479281.623    24479282.010   -18356502.997 5  26142528.665 2
  20498142.158    20498143.315   -20641105.223 8  25258072.081 8
  21058162.366    21058165.628     2152399.828 9   2863672.304 8
 86  6 17  0 46 41.0800000  0  4G 6G 8G 9G11
  20695641.643    20695642.602   -19839698.908 9  25864205.952 8
  24483486.211    24483488.817   -18334403.664 6  26159748.931 2
  20496210.807    20496211.564   -20651256.103 9  25250162.305 7
  21060062.908    21060065.212     2162382.506 9   2871451.002 7
 86  6 17  0 46 47.0800000  0  4G 6G 8G 9G11
  20697057.137    20697057.712   -19832261.174 9  25870001.583 9
  24487696.646    24487695.439   -18312304.496 4  26176969.043 1
  20494282.215    20494282.713   -20661389.346 9  25242266.279 8
  21061965.232    21061969.326     2172381.018 9   2879242.054 8
 86  6 17  0 46 53.0800000  0  4G 6G 8G 9G11
  20698476.026    20698478.403   -19824802.111 9  25875813.835 7
  24491898.292    24491900.275   -18290205.448 6  26194189.075 5
  20492357.448    20492357.926   -20671505.049 9  25234383.903 9
  21063871.327    21063873.964     2182395.352 9   2887045.441 8
 86  6 17  0 46 59.0800000  0  4G 6G 8G 9G11
  20699898.745    20699901.801   -19817321.699 9  25881642.717 9
  24496104.368    24496105.146   -18268106.622 6  26211408.951 3
  20490435.837    20490437.075   -20681603.144 9  25226515.259 7
  21065779.402    21065782.219     2192425.476 9   2894861.115 8
 86  6 17  0 47  5.0800000  0  4G 6G 8G 9G11
  20701326.090    20701329.308   -19809819.906 9  25887488.265 8
  24500309.206    24500310.843   -18246007.998 6  26228628.668 2
  20488518.100    20488519.152   -20691683.504 9  25218660.445 7
  21067691.280    21067693.515     2202471.409 9   2902689.113 8
 86  6 17  0 47 11.0800000  0  4G 6G 8G 9G11
  20702757.025    20702760.749   -19802296.694 8  25893350.496 6
  24504514.817    24504514.271   -18223909.606 5  26245848.170 4
  20486602.091    20486603.887   -20701746.270 9  25210819.329 7
  21069605.909    21069609.321     2212533.015 9   2910529.336 9
 86  6 17  0 47 17.0800000  0  4G 6G 8G 9G11
  20704193.319    20704195.263   -19794752.193 9  25899229.323 7
  24508718.135    24508721.840   -18201811.446 5  26263067.508 4
  20484691.547    20484691.210   -20711791.437 9  25202991.926 7
  21071523.968    21071526.272     2222610.315 9   2918381.773 7
 86  6 17  0 47 23.0800000  0  4G 6G 8G 9G11
  20705632.790    20705636.072   -19787186.301 9  25905124.806 8
  24512925.016    24512926.857   -18179713.600 6  26280286.613 3
  20482782.587    20482785.235   -20721818.862 9  25195178.354 8
  21073443.801    21073447.164     2232703.379 9   2926246.497 7
 86  6 17  0 47 29.0800000  0  4G 6G 8G 9G11
  20707076.702    20707080.338   -19779599.059 9  25911036.944 8
  24517129.682    24517129.976   -18157615.940 6  26297505.548 6
  20480878.777    20480879.800   -20731828.487 9  25187378.643 8
  21075367.933    21075370.196     2242812.144 9   2934123.459 7
 86  6 17  0 47 35.0800000  0  4G 6G 8G 9G11
  20708525.320    20708528.005   -19771990.413 9  25916965.758 7
  24521335.959    24521336.141   -18135518.603 5  26314724.255 5
  20478976.637    20478978.485   -20741820.416 9  25179592.741 8
  21077295.093    21077298.037     2252936.604 9   2942012.653 7
 86  6 17  0 47 41.0800000  0  4G 6G 8G 9G11
  20709978.307    20709978.853   -19764360.391 9  25922911.237 8
  24525539.571    24525541.962   -18113421.538 7  26331942.730 4
  20477079.773    20477080.719   -20751794.478 9  25171820.743 7
  21079223.885    21079227.937     2263076.762 9   2949914.071 8
 86  6 17  0 47 47.0800000  0  4G 6G 8G 9G11
  20711434.270    20711435.776   -19756709.011 9  25928873.331 7
  24529745.177    24529746.533   -18091324.827 5  26349160.964 5
  20475185.522    20475185.691   -20761750.824 9  25164062.542 8
  21081156.655    21081159.741     2273232.558 9   2957827.679 8
 86  6 17  0 47 53.0800000  0  4G 6G 8G 9G11
  20712893.490    20712894.992   -19749036.229 9  25934852.120 7
  24533950.428    24533949.549   -18069228.486 6  26366378.901 5
  20473293.876    20473295.217   -20771689.289 9  25156318.290 8
  21083093.545    21083095.206     2283403.951 9   2965753.433 8
 86  6 17  0 47 59.0800000  0  4G 6G 8G 9G11
  20714358.106    20714358.673   -19741342.071 9  25940847.569 8
  24538155.077    24538154.698   -18047132.476 6  26383596.544 6
  20471405.826    20471407.855   -20781609.996 9  25148587.870 8
  21085031.641    21085033.915     2293590.914 9   2973691.331 7
 86  6 17  0 48  5.0800000  0  4G 6G 8G 9G11
  20715826.052    20715825.874   -19733626.510 9  25946859.686 8
  24542362.233    24542359.889   -18025036.927 5  26400813.879 5
  20469522.240    20469522.691   -20791512.824 9  25140871.392 7
  21086973.968    21086974.783     2303793.483 9   2981641.382 8
 86  6 17  0 48 11.0800000  0  4G 6G 8G 9G11
  20717297.230    20717299.413   -19725889.616 9  25952888.442 8
  24546562.816    24546565.392   -18002941.750 6  26418030.880 5
  20467640.638    20467641.222   -20801397.770 9  25133168.835 8
  21088918.245    21088919.860     2314011.619 9   2989603.565 8
 86  6 17  0 48 17.0800000  0  4G 6G 8G 9G11
  20718773.728    20718774.187   -19718131.337 9  25958933.846 8
  24550770.265    24550770.057   -17980847.001 6  26435247.572 5
  20465762.873    20465764.176   -20811264.794 9  25125480.236 7
  21090865.266    21090866.654     2324245.277 9   2997577.843 8
 86  6 17  0 48 23.0800000  0  4G 6G 8G 9G11
  20720254.500    20720255.118   -19710351.785 9  25964995.816 7
  24554972.703    24554972.665   -17958752.759 6  26452463.857 6
  20463888.464    20463890.284   -20821113.934 9  25117805.592 8
  21092815.494    21092817.411     2334494.321 9   3005564.106 8
 86  6 17  0 48 29.0800000  0  4G 6G 8G 9G11
  20721738.246    20721739.818   -19702550.944 9  25971074.406 7
  24559176.949    24559177.114   -17936659.029 6  26469679.740 7
  20462016.907    20462019.056   -20830945.229 9  25110144.836 8
  21094769.381    21094770.228     2344758.815 9   3013562.424 9
 86  6 17  0 48 35.0800000  0  4G 6G 8G 9G11
  20723227.919    20723229.255   -19694728.680 9  25977169.663 9
  24563381.280    24563379.213   -17914565.894 6  26486895.185 4
  20460150.054    20460151.926   -20840758.616 9  25102498.045 8
  21096724.420    21096726.190     2355038.714 9   3021572.740 8
 86  6 17  0 48 41.0800000  0  4G 6G 8G 9G11
  20724720.896    20724721.636   -19686885.166 9  25983281.483 7
  24567586.948    24567586.551   -17892473.235 6  26504110.229 6
  20458285.910    20458287.595   -20850554.021 9  25094865.268 7
  21098683.810    21098686.023     2365334.081 9   3029595.084 8
 86  6 17  0 48 47.0800000  0  4G 6G 8G 9G11
  20726218.013    20726219.223   -19679020.143 9  25989410.067 9
  24571789.557    24571791.702   -17870381.046 5  26521324.926 5
  20456425.610    20456426.499   -20860331.413 9  25087246.520 8
  21100645.942    21100647.040     2375644.941 9   3037629.529 9
 86  6 17  0 48 53.0800000  0  4G 6G 8G 9G11
  20727719.307    20727719.594   -19671133.751 9  25995555.309 8
  24575993.303    24575993.638   -17848289.413 6  26538539.159 6
  20454569.288    20454570.455   -20870090.788 9  25079641.821 7
  21102610.905    21102612.423     2385971.261 9   3045676.000 8
 86  6 17  0 48 59.0800000  0  4G 6G 8G 9G11
  20729223.968    20729224.525   -19663225.951 9  26001717.235 7
  24580197.503    24580198.406   -17826198.352 6  26555752.979 5
  20452715.113    20452717.325   -20879832.043 9  25072051.227 8
  21104579.106    21104580.334     2396312.894 9   3053734.411 8
 86  6 17  0 49  5.0800000  0  4G 6G 8G 9G11
  20730733.772    20730734.373   -19655296.826 9  26007895.774 8
  24584401.238    24584402.585   -17804107.900 6  26572966.305 5
  20450864.610    20450866.568   -20889555.317 9  25064474.660 8
  21106549.707    21106550.832     2406669.882 9   3061804.796 8
 86  6 17  0 49 11.0800000  0  4G 6G 8G 9G11
  20732246.423    20732246.071   -19647346.340 9  26014090.961 8
  24588603.831    24588606.092   -17782018.059 6  26590179.150 6
  20449017.704    20449019.195   -20899260.475 9  25056912.186 8
  21108523.581    21108524.489     2417042.277 9   3069887.166 8
 86  6 17  0 49 17.0800000  0  4G 6G 8G 9G11
  20733762.974    20733764.207   -19639374.500 9  26020302.775 8
  24592808.689    24592810.691   -17759928.856 6  26607391.502 6
  20447175.291    20447175.182   -20908947.586 9  25049363.807 8
  21110500.364    21110501.434     2427430.001 9   3077981.514 8
 86  6 17  0 49 23.0800000  0  4G 6G 8G 9G11
  20735283.898    20735285.052   -19631381.267 9  26026531.259 8
  24597010.871    24597013.415   -17737840.252 6  26624603.396 6
  20445334.432    20445336.071   -20918616.458 9  25041829.621 9
  21112480.783    21112482.055     2437833.036 9   3086087.770 8
 86  6 17  0 49 29.0800000  0  4G 6G 8G 9G11
  20736808.147    20736808.999   -19623366.651 9  26032776.414 8
  24601212.695    24601215.270   -17715752.344 6  26641814.756 7
  20443497.733    20443498.645   -20928267.198 9  25034309.569 8
  21114463.118    21114464.258     2448251.284 9   3094205.890 9
 86  6 17  0 49 35.0800000  0  4G 6G 8G 9G11
  20738336.884    20738338.672   -19615330.688 9  26039038.184 8
  24605416.303    24605418.698   -17693665.116 7  26659025.574 5
  20441664.268    20441665.644   -20937899.821 9  25026803.634 8
  21116447.578    21116448.746     2458684.779 9   3102335.890 9
 86  6 17  0 49 41.0800000  0  4G 6G 8G 9G11
  20739870.411    20739871.857   -19607273.344 9  26045316.630 8
  24609620.564    24609622.165   -17671578.608 5  26676235.838 7
  20439834.675    20439836.458   -20947514.276 9  25019311.846 8
  21118436.612    21118436.854     2469133.533 9   3110477.771 8
 86  6 17  0 49 47.0800000  0  3G 6G 9G11
  20741406.755    20741409.328   -19599194.579 9  26051611.764 8
  20438009.023    20438009.632   -20957110.405 9  25011834.355 8
  21120427.533    21120429.205     2479597.544 9   3118631.545 8
 86  6 17  0 49 53.0800000  0  3G 6G 9G11
  20742948.562    20742949.987   -19591094.459 9  26057923.537 8
  20436186.510    20436186.288   -20966688.322 9  25004371.033 8
  21122421.774    21122422.691     2490076.751 9   3126797.158 8
 86  6 17  0 49 59.0800000  0  3G 6G 9G11
  20744495.063    20744495.482   -19582973.091 9  26064251.860 8
  20434367.391    20434368.363   -20976248.101 9  24996921.856 8
  21124418.822    21124421.409     2500571.077 9   3134974.560 8
 86  6 17  0 50  5.0800000  0  3G 6G 9G11
  20746045.030    20746045.299   -19574830.238 9  26070596.951 8
  20432551.660    20432552.969   -20985789.489 9  24989487.016 8
  21126418.848    21126421.133     2511080.665 9   3143163.845 9
 86  6 17  0 50 11.0800000  0  3G 6G 9G11
  20747597.843    20747598.609   -19566666.035 9  26076958.654 8
  20430738.733    20430740.753   -20995312.541 9  24982066.469 8
  21128420.788    21128423.247     2521605.337 9   3151364.889 8
 86  6 17  0 50 17.0800000  0  3G 6G 9G11
  20749155.593    20749157.387   -19558480.378 8  26083337.096 9
  20428930.071    20428932.492   -21004817.280 9  24974660.170 8
  21130426.594    21130428.394     2532145.226 9   3159577.790 8
 86  6 17  0 50 23.0800000  0  3G 6G 9G11
  20750717.561    20750718.295   -19550273.431 9  26089732.116 7
  20427125.510    20427125.994   -21014303.709 9  24967268.145 7
  21132434.975    21132437.449     2542700.227 9   3167802.459 8
 86  6 17  0 50 29.0800000  0  3G 6G 9G11
  20752283.554    20752283.917   -19542045.055 9  26096143.835 8
  20425323.439    20425324.462   -21023771.839 9  24959890.380 7
  21134447.159    21134449.863     2553270.365 9   3176038.922 9
 86  6 17  0 50 35.0800000  0  3G 6G 9G11
  20753853.200    20753855.541   -19533795.294 9  26102572.206 8
  20423525.023    20423526.336   -21033221.483 9  24952527.026 7
  21136460.804    21136463.166     2563855.556 9   3184287.129 9
 86  6 17  0 50 41.0800000  0  3G 6G 9G11
  20755426.470    20755428.270   -19525524.218 9  26109017.197 8
  20421730.449    20421731.386   -21042652.802 9  24945177.939 7
  21138477.943    21138479.991     2574455.788 9   3192547.049 8
 86  6 17  0 50 47.0800000  0  3G 6G 9G11
  20757004.628    20757006.923   -19517231.677 8  26115478.917 8
  20419939.854    20419941.010   -21052065.651 9  24937843.250 7
  21140497.371    21140500.297     2585071.098 9   3200818.719 8
 86  6 17  0 50 53.0800000  0  3G 6G 9G11
  20758586.863    20758588.478   -19508917.858 9  26121957.211 8
  20418152.160    20418152.977   -21061460.075 9  24930522.934 7
  21142519.638    21142522.680     2595701.311 9   3209101.997 8
 86  6 17  0 50 59.0800000  0  3G 6G 9G11
  20760172.196    20760175.241   -19500582.597 8  26128452.211 7
  20416367.909    20416368.951   -21070835.965 9  24923217.040 8
  21144545.754    21144548.943     2606346.603 9   3217397.032 9
 86  6 17  0 51  5.0800000  0  3G 6G 9G11
  20761762.093    20761765.832   -19492225.949 9  26134963.876 9
  20414587.529    20414588.586   -21080193.416 9  24915925.529 7
  21146573.250    21146577.369     2617006.864 9   3225703.728 8
 86  6 17  0 51 11.0800000  0  3G 6G 9G11
  20763355.784    20763359.023   -19483847.885 9  26141492.226 8
  20412810.043    20412810.227   -21089532.291 9  24908648.485 8
  21148606.131    21148608.976     2627682.113 9   3234022.090 8
 86  6 17  0 51 17.0800000  0  3G 6G 9G11
  20764954.425    20764958.379   -19475448.581 8  26148037.129 7
  20411036.829    20411037.457   -21098852.755 9  24901385.797 7
  21150640.009    21150643.316     2638372.194 9   3242352.030 8
 86  6 17  0 51 23.0800000  0  3G 6G 9G11
  20766556.867    20766560.351   -19467027.849 9  26154598.733 8
  20409266.295    20409268.363   -21108154.631 9  24894137.577 8
  21152676.837    21152680.340     2649077.231 9   3250693.609 9
 86  6 17  0 51 29.0800000  0  3G 6G 9G11
  20768163.927    20768166.775   -19458585.667 8  26161177.061 8
  20407498.843    20407500.744   -21117437.791 9  24886903.952 8
  21154717.668    21154720.173     2659797.262 9   3259046.880 8
 86  6 17  0 51 35.0800000  0  3G 6G 9G11
  20769773.433    20769777.131   -19450122.190 9  26167771.960 8
  20405736.037    20405738.162   -21126702.459 9  24879684.720 8
  21156760.621    21156762.364     2670532.064 9   3267411.651 9
 86  6 17  0 51 41.0800000  0  3G 6G 9G11
  20771388.847    20771391.981   -19441637.199 8  26174383.649 7
  20403976.187    20403979.281   -21135948.381 9  24872480.096 8
  21158806.320    21158808.693     2681281.827 9   3275788.094 9
 86  6 17  0 51 47.0800000  0  3G 6G 9G11
  20773007.717    20773009.749   -19433130.886 9  26181011.933 8
  20402221.270    20402222.622   -21145175.724 9  24865289.979 8
  21160855.108    21160857.639     2692046.369 9   3284176.057 8
 86  6 17  0 51 53.0800000  0  3G 6G 9G11
  20774631.258    20774633.584   -19424603.127 9  26187656.946 8
  20400467.832    20400471.717   -21154384.264 9  24858114.484 8
  21162906.074    21162907.963     2702825.756 9   3292575.572 8
 86  6 17  0 51 59.0800000  0  3G 6G 9G11
  20776257.818    20776259.166   -19416054.149 8  26194318.484 7
  20398719.459    20398722.937   -21163574.376 9  24850953.345 8
  21164959.872    21164962.719     2713619.858 9   3300986.554 8
 86  6 17  0 52  5.0800000  0  3G 6G 9G11
  20777888.488    20777891.353   -19407483.721 9  26200996.724 8
  20396974.520    20396977.250   -21172745.653 9  24843806.917 6
  21167016.561    21167020.576     2724428.793 9   3309409.108 9
 86  6 17  0 52 11.0800000  0  3G 6G 9G11
  20779523.238    20779525.278   -19398891.971 9  26207691.604 8
  20395232.528    20395235.202   -21181898.225 9  24836675.035 8
  21169076.283    21169078.409     2735252.397 9   3317843.073 8
 86  6 17  0 52 17.0800000  0  3G 6G 9G11
  20781162.163    20781165.427   -19390278.836 8  26214403.117 7
  20393494.171    20393496.564   -21191032.102 8  24829557.723 7
  21171138.465    21171140.540     2746090.698 9   3326288.510 9
 86  6 17  0 52 23.0800000  0  3G 6G 9G11
  20782804.994    20782807.624   -19381644.288 9  26221131.340 8
  20391760.051    20391762.770   -21200147.113 9  24822455.121 8
  21173203.823    21173206.254     2756943.814 9   3334745.480 9
 86  6 17  0 52 29.0800000  0  3G 6G 9G11
  20784451.764    20784454.308   -19372988.449 9  26227876.134 7
  20390028.437    20390029.412   -21209243.368 9  24815367.131 7
  21175272.073    21175274.406     2767811.616 9   3343213.895 9
 86  6 17  0 52 35.0800000  0  3G 6G 9G11
  20786102.638    20786105.359   -19364311.135 8  26234637.678 8
  20388301.451    20388303.091   -21218320.816 9  24808293.789 7
  21177342.356    21177345.427     2778694.148 9   3351693.782 8
 86  6 17  0 52 41.0800000  0  3G 6G 9G11
  20787757.921    20787761.561   -19355612.525 8  26241415.806 8
  20386577.634    20386579.624   -21227379.474 9  24801235.099 6
  21179416.331    21179419.747     2789591.258 9   3360185.042 8
 86  6 17  0 52 47.0800000  0  3G 6G 9G11
  20789418.167    20789420.925   -19346892.522 8  26248210.604 8
  20384857.917    20384859.971   -21236419.306 9  24794191.065 8
  21181492.136    21181495.138     2800503.064 9   3368687.750 8
 86  6 17  0 52 53.0800000  0  3G 6G 9G11
  20791081.049    20791085.702   -19338151.207 9  26255022.014 7
  20383140.899    20383142.615   -21245440.288 9  24787161.731 8
  21183571.716    21183574.552     2811429.439 9   3377201.809 8
 86  6 17  0 52 59.0800000  0  3G 6G 9G11
  20792750.283    20792752.246   -19329388.434 9  26261850.157 8
  20381427.765    20381429.168   -21254442.365 9  24780147.124 8
  21185654.564    21185656.639     2822370.492 9   3385727.306 8
 86  6 17  0 53  5.0800000  0  3G 6G 9G11
  20794422.510    20794423.745   -19320604.375 9  26268694.870 8
  20379718.781    20379720.494   -21263425.536 9  24773147.257 8
  21187739.295    21187741.569     2833326.084 9   3394264.127 9
 86  6 17  0 53 11.0800000  0  3G 6G 9G11
  20796097.073    20796100.289   -19311798.979 9  26275556.215 8
  20378013.048    20378014.616   -21272389.769 9  24766162.136 7
  21189826.754    21189828.967     2844296.177 9   3402812.249 8
 86  6 17  0 53 17.0800000  0  3G 6G 9G11
  20797776.598    20797780.714   -19302972.183 9  26282434.237 8
  20376309.968    20376312.813   -21281335.061 9  24759191.785 8
  21191917.383    21191919.437     2855280.885 9   3411371.760 9
 86  6 17  0 53 23.0800000  0  3G 6G 9G11
  20799460.613    20799463.567   -19294124.047 9  26289328.881 7
  20374611.621    20374613.527   -21290261.452 9  24752236.152 8
  21194011.587    21194012.173     2866280.027 9   3419942.516 8
 86  6 17  0 53 29.0800000  0  3G 6G 9G11
  20801148.234    20801150.574   -19285254.465 9  26296240.246 8
  20372917.374    20372917.715   -21299168.734 9  24745295.415 9
  21196106.911    21196108.653     2877293.687 9   3428524.592 9
 86  6 17  0 53 35.0800000  0  3G 6G 9G11
  20802840.327    20802841.635   -19276363.658 8  26303168.156 8
  20371225.198    20371226.932   -21308057.161 9  24738369.369 8
  21198204.895    21198206.522     2888321.694 9   3437117.848 8
 86  6 17  0 53 41.0800000  0  3G 6G 9G11
  20804536.313    20804538.652   -19267451.398 8  26310112.749 7
  20369537.200    20369539.077   -21316926.372 9  24731458.296 7
  21200306.227    21200308.187     2899364.299 9   3445722.478 9
 86  6 17  0 53 47.0800000  0  3G 6G 9G11
  20806237.171    20806238.706   -19258517.786 9  26317074.002 8
  20367853.237    20367854.895   -21325776.566 9  24724562.048 8
  21202409.937    21202412.196     2910421.335 9   3454338.329 9
 86  6 17  0 53 53.0800000  0  3G 6G 9G11
  20807940.511    20807942.574   -19249562.833 9  26324051.880 8
  20366172.584    20366173.860   -21334607.796 9  24717680.592 8
  21204518.078    21204519.566     2921492.741 9   3462965.409 9
 86  6 17  0 53 59.0800000  0  3G 6G 9G11
  20809648.191    20809651.607   -19240586.554 8  26331046.371 8
  20364496.616    20364497.588   -21343419.784 8  24710814.093 8
  21206627.138    21206629.115     2932578.536 9   3471603.680 9
 86  6 17  0 54  5.0800000  0  3G 6G 9G11
  20811360.062    20811363.468   -19231588.933 8  26338057.501 9
  20362823.222    20362824.560   -21352212.782 9  24703962.405 8
  21208738.375    21208741.136     2943678.713 9   3480253.161 8
 86  6 17  0 54 11.0800000  0  3G 6G 9G11
  20813076.234    20813079.643   -19222569.881 8  26345085.322 7
  20361153.970    20361155.226   -21360986.475 9  24697125.765 7
  21210854.704    21210857.193     2954793.264 9   3488913.840 9
 86  6 17  0 54 17.0800000  0  3G 6G 9G11
  20814796.446    20814800.558   -19213529.614 8  26352129.674 8
  20359487.073    20359489.175   -21369741.094 9  24690303.992 8
  21212971.632    21212974.608     2965922.032 9   3497585.605 9
 86  6 17  0 54 23.0800000  0  3G 6G 9G11
  20816520.735    20816524.798   -19204467.863 8  26359190.763 8
  20357825.662    20357827.290   -21378476.528 9  24683497.163 9
  21215091.914    21215095.831     2977065.198 9   3506268.594 9
 86  6 17  0 54 29.0800000  0  3G 6G 9G11
  20818248.310    20818253.824   -19195384.858 8  26366268.409 9
  20356167.809    20356169.367   -21387192.972 9  24676705.131 7
  21217215.824    21217217.470     2988222.585 9   3514962.665 9
 86  6 17  0 54 35.0800000  0  3G 6G 9G11
  20819981.254    20819986.524   -19186280.483 9  26373362.718 8
  20354512.379    20354514.293   -21395889.893 9  24669928.313 8
  21219342.459    21219344.755     2999394.315 9   3523667.914 8
 86  6 17  0 54 41.0800000  0  3G 6G 9G11
  20821717.222    20821721.490   -19177154.812 8  26380473.643 8
  20352860.411    20352862.464   -21404567.736 9  24663166.356 7
  21221470.147    21221473.494     3010580.199 9   3532384.182 8
 86  6 17  0 54 47.0800000  0  3G 6G 9G11
  20823458.245    20823462.505   -19168007.772 9  26387601.190 7
  20351211.936    20351215.448   -21413226.284 9  24656419.439 8
  21223602.132    21223603.602     3021780.289 9   3541111.532 8
 86  6 17  0 54 53.0800000  0  3G 6G 9G11
  20825203.082    20825206.419   -19158839.348 8  26394745.418 8
  20349568.783    20349571.975   -21421865.587 8  24649687.508 8
  21225735.458    21225738.133     3032994.674 9   3549850.002 9
 86  6 17  0 54 59.0800000  0  3G 6G 9G11
  20826952.727    20826954.916   -19149649.611 9  26401906.238 8
  20347927.451    20347930.482   -21430485.685 9  24642970.553 8
  21227872.364    21227874.048     3044223.159 9   3558599.472 9
 86  6 17  0 55  5.0800000  0  3G 6G 9G11
  20828706.303    20828707.546   -19140438.502 9  26409083.736 8
  20346291.634    20346293.543   -21439086.334 9  24636268.748 8
  21230011.271    21230013.819     3055465.884 9   3567360.031 8
 86  6 17  0 55 11.0800000  0  3G 6G 9G11
  20830461.960    20830464.160   -19131206.157 9  26416277.772 8
  20344658.699    20344662.130   -21447667.600 9  24629582.058 8
  21232153.988    21232157.433     3066722.678 9   3576131.555 9
 86  6 17  0 55 17.0800000  0  3G 6G 9G11
  20832223.651    20832225.929   -19121952.400 9  26423488.496 7
  20343028.891    20343031.307   -21456229.490 9  24622910.449 8
  21234297.675    21234301.196     3077993.664 9   3584914.143 8
 86  6 17  0 55 23.0800000  0  3G 6G 9G11
  20833988.955    20833990.860   -19112677.378 9  26430715.776 8
  20341403.910    20341407.390   -21464772.177 9  24616253.818 8
  21236445.884    21236449.114     3089278.690 9   3593707.646 8
 86  6 17  0 55 29.0800000  0  3G 6G 9G11
  20835758.619    20835759.519   -19103381.042 9  26437959.671 7
  20339781.506    20339784.938   -21473295.319 9  24609612.400 8
  21238596.526    21238599.401     3100577.807 9   3602512.154 8
 86  6 17  0 55 35.0800000  0  3G 6G 9G11
  20837530.487    20837532.092   -19094063.369 9  26445220.190 8
  20338163.156    20338166.025   -21481799.071 9  24602986.104 8
  21240748.886    21240752.178     3111891.001 8   3611327.623 8
 86  6 17  0 55 41.0800000  0  3G 6G 9G11
  20839307.362    20839309.201   -19084724.439 9  26452497.273 8
  20336549.031    20336552.301   -21490283.469 9  24596374.872 8
  21242904.568    21242907.526     3123218.198 9   3620154.019 8
 86  6 17  0 55 47.0800000  0  3G 6G 9G11
  20841089.199    20841091.120   -19075364.134 9  26459791.008 7
  20334937.902    20334940.929   -21498748.198 9  24589778.983 9
  21245062.364    21245064.784     3134559.508 9   3628991.399 8
 86  6 17  0 55 53.0800000  0  3G 6G 9G11
  20842874.711    20842876.775   -19065982.559 9  26467101.326 9
  20333331.477    20333334.642   -21507193.700 9  24583198.080 8
  21247223.252    21247226.243     3145914.751 9   3637839.632 8
 86  6 17  0 55 59.0800000  0  3G 6G 9G11
  20844664.616    20844666.637   -19056579.551 9  26474428.338 9
  20331728.217    20331730.256   -21515619.587 9  24576632.449 8
  21249386.915    21249388.917     3157284.034 9   3646698.806 8
 86  6 17  0 56  5.0800000  0  3G 6G 9G11
  20846459.026    20846460.181   -19047155.304 9  26481771.906 8
  20330128.641    20330129.753   -21524025.950 9  24570082.039 7
  21251552.666    21251555.813     3168667.195 9   3655568.805 9
 86  6 17  0 56 11.0800000  0  3G 6G 9G11
  20848257.004    20848256.452   -19037709.670 8  26489132.147 8
  20328533.108    20328534.866   -21532412.742 9  24563546.883 8
  21253720.940    21253724.568     3180064.354 9   3664449.711 8
 86  6 17  0 56 17.0800000  0  3G 6G 9G11
  20850057.246    20850058.300   -19028242.822 8  26496508.903 8
  20326940.982    20326941.703   -21540780.036 9  24557026.903 7
  21255892.505    21255897.390     3191475.406 9   3673341.420 7
 86  6 17  0 56 23.0800000  0  3G 6G 9G11
  20851862.340    20851863.616   -19018754.751 9  26503902.189 7
  20325352.462    20325354.353   -21549127.749 9  24550522.210 8
  21258066.354    21258070.098     3202900.346 9   3682243.977 7
 86  6 17  0 56 29.0800000  0  3G 6G 9G11
  20853672.026    20853674.193   -19009245.326 9  26511312.133 8
  20323767.060    20323767.926   -21557455.910 9  24544032.726 8
  21260243.356    21260246.415     3214339.166 9   3691157.343 7
 86  6 17  0 56 35.0800000  0  3G 6G 9G11
  20855484.968    20855488.299   -18999714.617 9  26518738.652 8
  20322186.411    20322186.546   -21565764.469 9  24537558.535 7
  21262423.044    21262425.701     3225791.793 9   3700081.462 8
 86  6 17  0 56 41.0800000  0  3G 6G 9G11
  20857303.107    20857305.154   -18990162.568 8  26526181.811 7
  20320608.975    20320610.384   -21574053.239 9  24531099.747 8
  21264605.138    21264607.813     3237258.316 9   3709016.423 7
 86  6 17  0 56 47.0800000  0  3G 6G 9G11
  20859123.348    20859127.689   -18980589.259 8  26533641.516 8
  20319035.479    20319036.387   -21582322.499 9  24524656.169 7
  21266789.319    21266792.157     3248738.594 9   3717962.093 8
 86  6 17  0 56 53.0800000  0  3G 6G 9G11
  20860949.297    20860953.518   -18970994.544 9  26541117.907 8
  20317465.674    20317466.412   -21590571.989 9  24518228.008 8
  21268977.081    21268978.785     3260232.727 9   3726918.556 8
 86  6 17  0 56 59.0800000  0  3G 6G 9G11
  20862779.266    20862783.017   -18961378.636 8  26548610.809 8
  20315898.999    20315900.857   -21598801.827 9  24511815.145 8
  21271167.703    21271169.375     3271740.558 9   3735885.701 9
 86  6 17  0 57  5.0800000  0  3G 6G 9G11
  20864613.195    20864616.790   -18951741.359 9  26556120.361 8
  20314337.495    20314339.358   -21607011.914 9  24505417.681 7
  21273359.814    21273361.399     3283262.216 9   3744863.627 8
 86  6 17  0 57 11.0800000  0  3G 6G 9G11
  20866451.795    20866454.542   -18942082.778 9  26563646.514 7
  20312778.739    20312780.128   -21615202.227 8  24499035.625 7
  21275555.357    21275556.486     3294797.571 9   3753852.205 8
 86  6 17  0 57 17.0800000  0  3G 6G 9G11
  20868293.557    20868296.874   -18932402.983 9  26571189.207 8
  20311224.513    20311225.645   -21623372.687 9  24492669.016 8
  21277753.646    21277755.075     3306346.610 9   3762851.469 8
 86  6 17  0 57 23.0800000  0  3G 6G 9G11
  20870140.052    20870142.818   -18922701.842 9  26578748.527 6
  20309672.518    20309674.486   -21631523.514 9  24486317.728 8
  21279953.145    21279954.672     3317909.418 9   3771861.449 8
 86  6 17  0 57 29.0800000  0  3G 6G 9G11
  20871989.979    20871991.949   -18912979.519 9  26586324.370 8
  20308125.905    20308127.438   -21639654.577 9  24479981.834 8
  21282156.073    21282157.902     3329485.838 9   3780882.047 8
 86  6 17  0 57 35.0800000  0  3G 6G 9G11
  20873844.367    20873845.563   -18903235.845 9  26593916.828 8
  20306581.008    20306582.746   -21647765.683 9  24473661.499 8
  21284362.235    21284363.093     3341076.039 9   3789913.373 8
 86  6 17  0 57 41.0800000  0  3G 6G 9G11
  20875702.702    20875703.753   -18893470.989 9  26601525.797 8
  20305040.480    20305043.087   -21655857.044 9  24467356.534 8
  21286570.198    21286570.729     3352679.798 9   3798955.258 7
 86  6 17  0 57 47.0800000  0  3G 6G 9G11
  20877563.932    20877566.432   -18883684.756 9  26609151.433 8
  20303504.675    20303507.019   -21663928.469 8  24461067.111 7
  21288780.052    21288782.072     3364297.271 9   3808007.831 7
 86  6 17  0 57 53.0800000  0  3G 6G 9G11
  20879431.344    20879432.528   -18873877.262 9  26616793.634 8
  20301972.752    20301975.317   -21671980.093 8  24454793.113 8
  21290993.281    21290994.301     3375928.273 9   3817070.954 9
 86  6 17  0 57 59.0800000  0  3G 6G 9G11
  20881302.156    20881303.231   -18864048.532 9  26624452.386 7
  20300443.301    20300446.102   -21680011.678 9  24448534.736 8
  21293209.178    21293210.337     3387572.842 9   3826144.631 8
 86  6 17  0 58  5.0800000  0  3G 6G 9G11
  20883176.309    20883178.546   -18854198.530 9  26632127.707 7
  20298918.742    20298922.451   -21688023.385 9  24442291.835 7
  21295427.615    21295429.756     3399230.984 9   3835228.903 8
 86  6 17  0 58 11.0800000  0  3G 6G 9G11
  20885054.659    20885055.237   -18844327.302 9  26639819.565 8
  20297398.113    20297403.411   -21696015.258 8  24436064.401 8
  21297648.402    21297651.277     3410902.645 9   3844323.703 8
 86  6 17  0 58 17.0800000  0  3G 6G 9G11
  20886937.491    20886936.999   -18834434.762 9  26647528.028 8
  20295880.223    20295884.853   -21703986.994 8  24429852.656 7
  21299872.734    21299873.806     3422587.891 9   3853429.082 8
 86  6 17  0 58 23.0800000  0  3G 6G 9G11
  20888823.921    20888824.833   -18824521.073 9  26655252.983 8
  20294368.152    20294372.376   -21711938.868 8  24423656.400 8
  21302098.846    21302099.456     3434286.524 9   3862544.904 8
 86  6 17  0 58 29.0800000  0  3G 6G 9G11
  20890714.980    20890715.901   -18814586.060 9  26662994.548 8
  20292858.800    20292863.082   -21719870.659 9  24417475.779 9
  21304326.560    21304329.558     3445998.659 9   3871671.232 9
 86  6 17  0 58 35.0800000  0  3G 6G 9G11
  20892609.454    20892609.105   -18804629.910 9  26670752.578 7
  20291352.996    20291356.304   -21727782.539 9  24411310.671 8
  21306558.849    21306560.621     3457724.165 9   3880807.997 7
 86  6 17  0 58 41.0800000  0  3G 6G 9G11
  20894508.664    20894507.505   -18794652.420 9  26678527.246 8
  20289851.924    20289856.271   -21735674.298 8  24405161.261 7
  21308792.599    21308794.412     3469463.152 9   3889955.257 8
 86  6 17  0 58 47.0800000  0  3G 6G 9G11
  20896411.480    20896411.852   -18784653.638 9  26686318.496 8
  20288354.257    20288356.773   -21743546.021 9  24399027.467 8
  21311028.236    21311031.080     3481215.476 9   3899112.914 8
 86  6 17  0 58 53.0800000  0  3G 6G 9G11
  20898317.173    20898318.547   -18774633.640 9  26694126.283 7
  20286860.397    20286862.283   -21751397.671 9  24392909.287 8
  21313267.973    21313269.640     3492981.200 9   3908281.013 8
 86  6 17  0 58 59.0800000  0  3G 6G 9G11
  20900228.220    20900227.204   -18764592.407 9  26701950.619 7
  20285369.961    20285372.774   -21759229.164 9  24386806.821 7
  21315508.759    21315511.626     3504760.339 9   3917459.564 8
 86  6 17  0 59  5.0800000  0  3G 6G 9G11
  20902143.352    20902143.032   -18754530.010 9  26709791.450 8
  20283884.438    20283885.963   -21767040.665 9  24380719.943 8
  21317752.384    21317755.454     3516552.748 9   3926648.461 7
 86  6 17  0 59 11.0800000  0  3G 6G 9G11
  20904062.584    20904061.636   -18744446.303 9  26717648.859 8
  20282402.006    20282402.687   -21774831.932 9  24374648.839 8
  21319999.528    21320001.831     3528358.558 9   3935847.786 7
 86  6 17  0 59 17.0800000  0  3G 6G 9G11
  20905985.422    20905984.907   -18734341.466 8  26725522.753 8
  20280923.371    20280923.335   -21782603.186 9  24368593.314 7
  21322248.583    21322251.747     3540177.604 9   3945057.421 8
 86  6 17  0 59 23.0800000  0  3G 6G 9G11
  20907912.183    20907911.216   -18724215.323 9  26733413.253 7
  20279447.740    20279449.030   -21790354.093 9  24362553.649 8
  21324499.481    21324502.725     3552010.044 9   3954277.496 8
 86  6 17  0 59 29.0800000  0  3G 6G 9G11
  20909843.097    20909843.312   -18714068.001 9  26741320.243 8
  20277976.507    20277979.106   -21798084.931 9  24356529.625 8
  21326753.836    21326756.693     3563855.756 9   3963507.920 9
 86  6 17  0 59 35.0800000  0  3G 6G 9G11
  20911777.458    20911777.645   -18703899.432 9  26749243.812 8
  20276509.663    20276511.688   -21805795.441 9  24350521.439 8
  21329011.310    21329014.043     3575714.728 9   3972748.669 8
 86  6 17  0 59 41.0800000  0  3G 6G 9G11
  20913716.203    20913716.999   -18693709.692 9  26757183.854 7
  20275045.785    20275049.002   -21813485.756 9  24344528.989 7
  21331269.243    21331272.776     3587586.915 9   3981999.731 8
 86  6 17  0 59 47.0800000  0  3G 6G 9G11
  20915659.740    20915661.876   -18683498.746 9  26765140.428 8
  20273586.257    20273589.350   -21821155.864 9  24338552.274 8
  21333531.754    21333534.845     3599472.233 8   3991261.012 8
 86  6 17  0 59 53.0800000  0  3G 6G 9G11
  20917606.612    20917607.896   -18673266.560 9  26773113.562 8
  20272129.944    20272133.132   -21828805.560 9  24332591.470 8
  21335796.040    21335799.070     3611370.783 9   4000532.606 8
 86  6 17  0 59 59.0800000  0  3G 6G 9G11
  20919558.542    20919558.788   -18663013.217 9  26781103.164 8
  20270678.259    20270680.970   -21836435.042 8  24326646.420 8
  21338061.926    21338065.645     3623282.448 9   4009814.431 7
 86  6 17  1  0  5.0800000  0  3G 6G 9G11
  20921513.781    20921515.038   -18652738.586 9  26789109.371 8
  20269230.607    20269234.553   -21844044.163 9  24320717.233 9
  21340331.937    21340334.212     3635207.338 9   4019106.554 9
 86  6 17  1  0 11.0800000  0  3G 6G 9G11
  20923472.970    20923474.739   -18642442.848 9  26797132.029 7
  20267786.810    20267789.272   -21851633.057 9  24314803.822 8
  21342602.950    21342605.742     3647145.256 9   4028408.823 8
 86  6 17  1  0 17.0800000  0  3G 6G 9G11
  20925436.269    20925437.490   -18632125.906 9  26805171.190 8
  20266346.905    20266349.343   -21859201.457 8  24308906.367 7
  21344877.768    21344879.802     3659096.390 9   4037721.381 8
 86  6 17  1  0 23.0800000  0  3G 6G 9G11
  20927402.909    20927404.431   -18621787.823 9  26813226.840 7
  20264909.431    20264912.391   -21866749.629 8  24303024.670 8
  21347154.700    21347157.106     3671060.500 9   4047044.064 8
 86  6 17  1  0 29.0800000  0  3G 6G 9G11
  20929373.966    20929375.527   -18611428.526 9  26821299.019 8
  20263476.681    20263479.110   -21874277.413 9  24297158.872 7
  21349434.098    21349436.931     3683037.693 9   4056376.939 8
 86  6 17  1  0 35.0800000  0  3G 6G 9G11
  20931348.377    20931351.559   -18601047.985 9  26829387.733 8
  20262049.463    20262050.606   -21881784.688 9  24291309.045 8
  21351716.073    21351717.833     3695027.936 9   4065719.993 8
 86  6 17  1  0 41.0800000  0  3G 6G 9G11
  20933328.437    20933330.507   -18590646.309 9  26837492.927 7
  20260623.848    20260627.443   -21889271.607 9  24285475.085 7
  21354000.102    21354002.906     3707031.142 9   4075073.139 8
 86  6 17  1  0 47.0800000  0  3G 6G 9G11
  20935311.662    20935313.992   -18580223.451 9  26845614.637 8
  20259203.594    20259205.543   -21896737.999 9  24279657.115 8
  21356286.000    21356288.642     3719047.449 9   4084436.499 8
 86  6 17  1  0 53.0800000  0  3G 6G 9G11
  20937300.042    20937301.205   -18569779.508 9  26853752.776 8
  20257786.212    20257789.200   -21904184.023 9  24273855.013 9
  21358575.753    21358577.315     3731076.681 9   4093809.926 8
 86  6 17  1  0 59.0800000  0  3G 6G 9G11
  20939291.493    20939293.320   -18559314.330 9  26861907.468 7
  20256373.905    20256375.895   -21911609.449 9  24268068.960 8
  21360867.259    21360869.958     3743118.978 9   4103193.523 7
 86  6 17  1  1  5.0800000  0  3G 6G 9G11
  20941287.477    20941288.223   -18548828.001 9  26870078.611 7
  20254963.735    20254966.969   -21919014.457 9  24262298.843 8
  21363161.335    21363163.251     3755174.122 9   4112587.142 7
 86  6 17  1  1 11.0800000  0  3G 6G 9G11
  20943286.060    20943288.079   -18538320.508 9  26878266.266 7
  20253559.305    20253561.283   -21926398.798 9  24256544.809 7
  21365458.301    21365460.048     3767242.263 9   4121990.879 8
 86  6 17  1  1 17.0800000  0  3G 6G 9G11
  20945290.136    20945290.794   -18527791.892 9  26886470.385 8
  20252157.396    20252160.190   -21933762.722 9  24250806.682 7
  21367756.874    21367759.517     3779323.279 9   4131404.660 9
 86  6 17  1  1 23.0800000  0  3G 6G 9G11
  20947297.783    20947298.951   -18517242.112 9  26894690.984 8
  20250761.010    20250761.447   -21941106.129 9  24245084.552 7
  21370058.222    21370061.556     3791417.172 9   4140828.468 8
 86  6 17  1  1 29.0800000  0  3G 6G 9G11
  20949308.271    20949311.379   -18506671.152 9  26902928.081 8
  20249368.345    20249368.738   -21948428.844 9  24239378.546 8
  21372361.487    21372365.503     3803523.962 9   4150262.334 9
 86  6 17  1  1 35.0800000  0  3G 6G 9G11
  20951323.812    20951326.315   -18496079.123 9  26911181.601 8
  20247978.608    20247980.561   -21955731.007 8  24233688.538 8
  21374668.953    21374670.758     3815643.537 9   4159706.160 8
 86  6 17  1  1 41.0800000  0  3G 6G 9G11
  20953344.041    20953347.090   -18485465.921 9  26919451.621 8
  20246592.609    20246593.531   -21963012.479 9  24228014.674 7
  21376976.997    21376980.531     3827775.974 9   4169159.999 8
 86  6 17  1  1 47.0800000  0  3G 6G 9G11
  20955367.283    20955369.541   -18474831.656 9  26927738.055 8
  20245211.057    20245212.062   -21970273.411 9  24222356.795 8
  21379288.076    21379290.708     3839921.118 9   4178623.750 8
 86  6 17  1  1 53.0800000  0  3G 6G 9G11
  20957394.552    20957397.314   -18464176.153 9  26936041.023 8
  20243833.521    20243834.086   -21977513.628 9  24216715.074 9
  21381601.416    21381605.645     3852079.063 9   4188097.469 8
 86  6 17  1  1 59.0800000  0  3G 6G 9G11
  20959425.599    20959430.359   -18453499.619 9  26944360.404 8
  20242459.534    20242459.666   -21984733.177 9  24211089.450 8
  21383917.845    21383920.762     3864249.680 9   4197581.064 9
 86  6 17  1  2  5.0800000  0  3G 6G 9G11
  20961461.948    20961465.119   -18442801.881 9  26952696.289 9
  20241089.934    20241090.614   -21991931.995 8  24205480.001 8
  21386236.161    21386240.091     3876433.073 9   4207074.606 9
 86  6 17  1  2 11.0800000  0  3G 6G 9G11
  20963501.752    20963504.396   -18432083.033 9  26961048.621 7
  20239724.294    20239724.486   -21999110.207 9  24199886.588 8
  21388556.625    21388559.840     3888629.206 9   4216578.095 9
 86  6 17  1  2 17.0800000  0  3G 6G 9G11
  20965545.625    20965547.808   -18421343.189 9  26969417.327 8
  20238362.116    20238362.223   -22006267.598 9  24194309.404 8
  21390879.607    21390884.754     3900838.056 9   4226091.480 8
 86  6 17  1  2 23.0800000  0  3G 6G 9G11
  20967592.729    20967595.623   -18410582.159 9  26977802.539 8
  20237003.488    20237005.211   -22013404.187 9  24188748.440 9
  21393204.792    21393209.742     3913059.615 9   4235614.774 9
 86  6 17  1  2 29.0800000  0  3G 6G 9G11
  20969645.555    20969647.497   -18399800.094 9  26986204.147 8
  20235649.113    20235650.943   -22020520.155 8  24183203.524 8
  21395532.356    21395537.636     3925293.761 9   4245147.868 9
 86  6 17  1  2 35.0800000  0  3G 6G 9G11
  20971701.705    20971701.564   -18388996.850 9  26994622.252 7
  20234299.041    20234300.312   -22027615.159 9  24177674.959 7
  21397864.351    21397867.997     3937540.524 9   4254690.799 8
 86  6 17  1  2 41.0800000  0  3G 6G 9G11
  20973761.687    20973763.514   -18378172.635 9  27003056.693 7
  20232952.318    20232954.542   -22034689.508 9  24172162.473 7
  21400196.691    21400200.028     3949799.820 9   4264243.492 8
 86  6 17  1  2 47.0800000  0  3G 6G 9G11
  20975824.438    20975826.418   -18367327.233 9  27011507.654 8
  20231610.354    20231611.777   -22041742.886 9  24166666.339 9
  21402532.126    21402536.483     3962071.772 9   4273806.052 9
 86  6 17  1  2 53.0800000  0  3G 6G 9G11
  20977892.925    20977893.649   -18356460.872 9  27019974.944 8
  20230272.235    20230272.533   -22048775.510 9  24161186.377 8
  21404869.957    21404873.121     3974356.206 9   4283378.343 8
 86  6 17  1  2 59.0800000  0  3G 6G 9G11
  20979965.245    20979966.251   -18345573.386 9  27028458.690 7
  20228937.959    20228939.460   -22055787.320 8  24155722.616 8
  21407209.564    21407213.805     3986653.255 9   4292960.455 8
 86  6 17  1  3  5.0800000  0  3G 6G 9G11
  20982040.182    20982041.461   -18334664.794 9  27036958.879 9
  20227606.995    20227608.821   -22062778.192 9  24150275.195 8
  21409552.468    21409556.086     3998962.852 9   4302552.345 9
 86  6 17  1  3 11.0800000  0  3G 6G 9G11
  20984120.981    20984122.051   -18323735.138 8  27045475.493 8
  20226280.266    20226281.796   -22069748.115 9  24144844.083 8
  21411897.143    21411900.552     4011284.963 9   4312153.995 7
 86  6 17  1  3 17.0800000  0  3G 6G 9G11
  20986204.560    20986205.676   -18312784.407 8  27054008.526 8
  20224957.571    20224959.162   -22076697.206 9  24139429.217 6
  21414244.480    21414248.211     4023619.589 9   4321765.393 9
 86  6 17  1  3 23.0800000  0  3G 6G 9G11
  20988291.135    20988294.400   -18301812.660 9  27062557.923 8
  20223638.846    20223641.601   -22083625.328 9  24134030.666 9
  21416593.878    21416597.512     4035966.610 9   4331386.446 9
 86  6 17  1  3 29.0800000  0  3G 6G 9G11
  20990383.476    20990386.049   -18290819.864 9  27071123.745 8
  20222324.109    20222327.169   -22090532.447 9  24128648.503 8
  21418945.221    21418950.454     4048326.148 9   4341017.265 9
 86  6 17  1  3 35.0800000  0  3G 6G 9G11
  20992478.790    20992482.115   -18279806.059 9  27079705.908 8
  20221014.771    20221017.772   -22097418.623 9  24123282.654 8
  21421300.228    21421304.460     4060698.097 9   4350657.726 9
 86  6 17  1  3 41.0800000  0  3G 6G 9G11
  20994578.604    20994580.891   -18268771.128 9  27088304.552 8
  20219708.332    20219710.867   -22104283.796 9  24117933.164 8
  21423656.577    21423660.668     4073082.474 9   4360307.898 9
 86  6 17  1  3 47.0800000  0  3G 6G 9G11
  20996682.144    20996685.464   -18257715.189 9  27096919.563 7
  20218406.263    20218408.764   -22111127.978 9  24112600.033 8
  21426015.101    21426019.582     4085479.201 9   4369967.672 9
 86  6 17  1  3 53.0800000  0  3G 6G 9G11
  20998789.747    20998791.908   -18246638.296 9  27105550.897 8
  20217108.409    20217110.134   -22117951.094 8  24107283.329 8
  21428377.609    21428380.158     4097888.276 9   4379637.084 9
 86  6 17  1  3 59.0800000  0  3G 6G 9G11
  21000902.336    21000903.590   -18235540.330 8  27114198.658 8
  20215814.992    20215816.382   -22124753.249 9  24101982.946 8
  21430741.005    21430744.636     4110309.729 9   4389316.143 9
 86  6 17  1  4  5.0800000  0  3G 6G 9G11
  21003018.010    21003020.737   -18224421.399 9  27122862.755 7
  20214524.046    20214526.325   -22131534.299 9  24096699.020 8
  21433107.834    21433111.081     4122743.417 9   4399004.728 8
 86  6 17  1  4 11.0800000  0  3G 6G 9G11
  21005139.064    21005140.798   -18213281.368 9  27131543.305 8
  20213237.344    20213239.499   -22138294.283 8  24091431.492 7
  21435475.366    21435480.049     4135189.400 9   4408702.896 8
 86  6 17  1  4 17.0800000  0  3G 6G 9G11
  21007263.169    21007263.583   -18202120.347 6  27140240.189 6
  20211955.917    20211957.401   -22145033.151 5  24086180.433 6
  21437846.136    21437850.322     4147647.672 6   4418410.644 6
 86  6 17  1  4 23.0800000  0  3G 6G 9G11
  21009391.224    21009392.137   -18190938.379 9  27148953.413 9
  20210676.781    20210678.645   -22151750.812 9  24080945.892 8
  21440219.665    21440222.770     4160118.282 9   4428128.001 9
 86  6 17  1  4 29.0800000  0  4G 6G13G 9G11
  21011523.065    21011522.821   -18179735.371 9  27157683.032 8
                  21234797.987   -28140194.393 9
  20209401.470    20209404.588   -22158447.437 8  24075727.733 8
  21442595.490    21442598.374     4172601.168 9   4437854.914 9
 86  6 17  1  4 35.0800000  0  4G 6G13G 9G11
  21013658.834    21013659.270   -18168511.349 9  27166429.015 8
                  21232587.941   -28151780.344 9
  20208131.777    20208133.079   -22165122.820 9  24070526.148 7
  21444973.471    21444976.258     4185096.238 9   4447591.334 9
 86  6 17  1  4 41.0800000  0  4G 6G13G 9G11
  21015798.661    21015801.041   -18157266.358 9  27175191.332 7
                  21230416.317   -28163346.753 9
  20206865.556    20206866.606   -22171777.079 9  24065341.007 8
  21447353.433    21447356.785     4197603.511 9   4457337.253 9
 86  6 17  1  4 47.0800000  0  4G 6G13G 9G11
  21017942.345    21017942.475   -18146000.341 9  27183970.044 8
  21228217.450    21228218.575   -28174894.175 9  35895112.979 6
  20205603.038    20205605.556   -22178410.060 9  24060172.439 7
  21449735.840    21449738.313     4210122.917 9   4467092.638 9
 86  6 17  1  4 53.0800000  0  4G 6G13G 9G11
  21020089.759    21020092.137   -18134713.357 9  27192765.090 8
  21226024.907    21226025.526   -28186422.182 9  35886130.101 8
  20204345.775    20204346.176   -22185021.893 9  24055020.364 7
  21452120.502    21452123.271     4222654.444 9   4476857.465 9
 86  6 17  1  4 59.0800000  0  4G 6G13G 9G11
  21022241.924    21022244.978   -18123405.413 9  27201576.471 8
  21223833.601    21223833.970   -28197930.819 9  35877161.837 8
  20203091.213    20203091.192   -22191612.485 8  24049884.848 7
  21454507.154    21454510.919     4235198.151 9   4486631.769 9
 86  6 17  1  5  5.0800000  0  4G 6G13G 9G11
  21024397.659    21024400.653   -18112076.451 9  27210404.224 7
  21221646.980    21221647.970   -28209420.174 9  35868209.103 7
  20201840.914    20201842.870   -22198181.781 9  24044765.908 7
  21456896.617    21456900.211     4247753.940 9   4496415.504 9
 86  6 17  1  5 11.0800000  0  4G 6G13G 9G11
  21026557.577    21026559.681   -18100726.486 9  27219248.348 8
  21219464.544    21219465.801   -28220890.152 9  35859271.465 8
  20200595.833    20200596.420   -22204729.745 9  24039663.591 8
  21459287.798    21459291.669     4260321.804 9   4506208.640 8
 86  6 17  1  5 17.0800000  0  4G 6G13G 9G11
  21028721.392    21028724.517   -18089355.578 9  27228108.789 8
  21217285.025    21217286.868   -28232340.830 9  35850348.861 8
  20199353.576    20199354.922   -22211256.512 9  24034577.803 8
  21461682.689    21461685.205     4272901.732 9   4516011.166 9
 86  6 17  1  5 23.0800000  0  4G 6G13G 9G11
  21030889.255    21030891.484   -18077963.767 9  27236985.516 8
  21215109.570    21215112.287   -28243772.211 9  35841441.302 8
  20198114.552    20198117.285   -22217761.843 9  24029508.712 9
  21464078.232    21464081.127     4285493.722 9   4525823.105 9
 86  6 17  1  5 29.0800000  0  4G 6G13G 9G11
  21033060.944    21033064.404   -18066551.027 9  27245878.563 8
  21212937.915    21212939.497   -28255184.188 9  35832548.860 8
  20196880.223    20196883.491   -22224245.916 9  24024456.183 7
  21466476.876    21466480.182     4298097.801 9   4535644.456 9
 86  6 17  1  5 35.0800000  0  4G 6G13G 9G11
  21035236.963    21035240.012   -18055117.272 9  27254787.974 8
  21210769.878    21210773.579   -28266576.748 9  35823671.538 8
  20195650.176    20195652.297   -22230708.622 8  24019420.317 8
  21468878.015    21468880.549     4310713.901 9   4545475.183 9
 86  6 17  1  5 41.0800000  0  4G 6G13G 9G11
  21037416.693    21037419.046   -18043662.549 9  27263713.735 9
  21208605.693    21208608.366   -28277949.936 9  35814809.319 7
  20194425.052    20194427.819   -22237149.951 9  24014401.110 8
  21471280.783    21471282.826     4323342.023 9   4555315.265 9
 86  6 17  1  5 47.0800000  0  4G 6G13G 9G11
  21039600.713    21039602.920   -18032186.879 9  27272655.797 8
  21206444.376    21206447.607   -28289303.818 8  35805962.154 8
  20193203.105    20193205.375   -22243569.889 9  24009398.544 7
  21473686.203    21473688.978     4335982.102 9   4565164.685 9
 86  6 17  1  5 53.0800000  0  4G 6G13G 9G11
  21041788.242    21041790.429   -18020690.359 9  27281614.121 8
  21204286.492    21204290.687   -28300638.345 9  35797130.049 7
  20191985.563    20191987.448   -22249968.455 9  24004412.669 8
  21476094.325    21476096.635     4348634.124 9   4575023.398 9
 86  6 17  1  5 59.0800000  0  4G 6G13G 9G11
  21043978.724    21043982.270   -18009172.907 9  27290588.755 8
  21202132.843    21202137.736   -28311953.558 9  35788313.011 8
  20190771.993    20190774.616   -22256345.705 9  23999443.382 8
  21478504.623    21478507.382     4361298.109 9   4584891.436 8
 86  6 17  1  6  5.0800000  0  4G 6G13G 9G11
  21046174.613    21046178.085   -17997634.515 9  27299579.689 8
  21199983.544    21199987.445   -28323249.364 9  35779511.086 7
  20189562.543    20189564.816   -22262701.347 9  23994490.946 8
  21480915.916    21480918.276     4373974.025 9   4594768.766 9
 86  6 17  1  6 11.0800000  0  4G 6G13G 9G11
  21048373.369    21048378.501   -17986075.225 9  27308586.919 8
  21197837.335    21197841.985   -28334525.753 9  35770724.297 8
  20188358.138    20188359.211   -22269035.593 9  23989555.170 8
  21483329.946    21483333.145     4386661.835 9   4604655.363 9
 86  6 17  1  6 17.0800000  0  4G 6G13G 9G11
  21050577.348    21050581.664   -17974495.015 9  27317610.447 9
  21195695.992    21195699.271   -28345782.795 9  35761952.586 7
  20187157.415    20187157.371   -22275348.311 8  23984636.165 8
  21485746.867    21485749.722     4399361.551 9   4614551.256 8
 86  6 17  1  6 23.0800000  0  4G 6G13G 9G11
  21052785.302    21052789.847   -17962893.911 9  27326650.248 8
  21193557.800    21193561.987   -28357020.488 9  35753195.945 8
  20185959.450    20185961.358   -22281639.575 9  23979733.892 9
  21488165.533    21488167.992     4412073.103 9   4624456.352 9
 86  6 17  1  6 29.0800000  0  4G 6G13G 9G11
  21054996.373    21055000.331   -17951271.895 9  27335706.362 9
  21191423.036    21191427.617   -28368238.842 9  35744454.378 8
  20184766.473    20184768.306   -22287909.236 9  23974848.432 8
  21490587.141    21490590.922     4424796.537 9   4634370.714 9
 86  6 17  1  6 35.0800000  0  4G 6G13G 9G11
  21057212.797    21057216.011   -17939628.981 9  27344778.754 9
  21189292.283    21189296.316   -28379437.878 9  35735727.859 7
  20183577.465    20183578.862   -22294157.349 9  23969979.768 8
  21493009.503    21493012.716     4437531.797 9   4644294.277 9
 86  6 17  1  6 41.0800000  0  4G 6G13G 9G11
  21059433.227    21059435.711   -17927965.161 9  27353867.437 8
  21187164.907    21187169.815   -28390617.586 9  35727016.410 8
  20182392.761    20182393.628   -22300383.975 9  23965127.865 8
  21495435.783    21495438.452     4450278.851 9   4654227.043 9
 86  6 17  1  6 47.0800000  0  4G 6G13G 9G11
  21061656.082    21061658.694   -17916280.505 9  27362972.356 8
  21185040.876    21185044.455   -28401777.912 9  35718320.060 8
  20181211.517    20181214.065   -22306589.101 9  23960292.693 8
  21497863.731    21497865.478     4463037.606 9   4664168.941 8
 86  6 17  1  6 53.0800000  0  4G 6G13G 9G11
  21063883.854    21063885.285   -17904575.028 9  27372093.509 8
  21182920.541    21182925.161   -28412918.853 9  35709638.812 8
  20180035.073    20180037.603   -22312772.638 9  23955474.355 8
  21500293.760    21500295.891     4475808.152 9   4674120.014 8
 86  6 17  1  6 59.0800000  0  4G 6G13G 9G11
  21066115.669    21066117.169   -17892848.690 9  27381230.910 7
  21180803.896    21180808.708   -28424040.333 9  35700972.728 8
  20178862.930    20178864.905   -22318934.598 9  23950672.829 8
  21502726.001    21502729.549     4488590.447 9   4684080.238 9
 86  6 17  1  7  5.0800000  0  4G 6G13G 9G11
  21068350.719    21068353.055   -17881101.526 9  27390384.540 8
  21178691.745    21178695.307   -28435142.412 9  35692321.767 8
  20177694.805    20177696.350   -22325074.958 9  23945888.132 7
  21505161.009    21505163.522     4501384.439 9   4694049.581 9
 86  6 17  1  7 11.0800000  0  4G 6G13G 9G11
  21070588.671    21070592.323   -17869333.477 9  27399554.444 8
  21176583.025    21176586.445   -28446225.022 9  35683685.970 8
  20176529.952    20176532.566   -22331193.674 8  23941120.307 8
  21507597.928    21507600.227     4514190.122 9   4704028.034 8
 86  6 17  1  7 17.0800000  0  4G 6G13G 9G11
  21072832.956    21072834.207   -17857544.537 9  27408740.627 7
  21174477.889    21174480.977   -28457288.285 9  35675065.257 8
  20175369.306    20175372.544   -22337290.741 9  23936369.345 7
  21510036.958    21510039.920     4527007.420 9   4714015.548 8
 86  6 17  1  7 23.0800000  0  4G 6G13G 9G11
  21075079.640    21075081.609   -17845734.797 9  27417943.019 8
  21172377.182    21172378.884   -28468332.141 9  35666459.664 8
  20174213.341    20174215.560   -22343366.182 9  23931635.230 8
  21512478.037    21512481.701     4539836.373 9   4724012.129 9
 86  6 17  1  7 29.0800000  0  4G 6G13G 9G11
  21077331.740    21077332.329   -17833904.226 9  27427161.643 8
  21170279.310    21170282.152   -28479356.564 9  35657869.218 7
  20173061.269    20173063.251   -22349419.829 9  23926918.118 8
  21514921.783    21514924.186     4552676.993 9   4734017.806 8
 86  6 17  1  7 35.0800000  0  4G 6G13G 9G11
  21079587.436    21079587.848   -17822052.814 9  27436396.512 8
  21168185.129    21168187.288   -28490361.522 9  35649293.925 8
  20171913.091    20171915.797   -22355451.756 9  23922217.910 9
  21517368.257    21517369.799     4565529.247 9   4744032.542 8
 86  6 17  1  7 41.0800000  0  4G 6G13G 9G11
  21081846.774    21081848.424   -17810180.638 9  27445647.549 8
  21166095.102    21166096.704   -28501347.078 9  35640733.768 8
  20170768.556    20170771.813   -22361462.115 9  23917534.503 7
  21519815.094    21519818.192     4578393.096 9   4754056.320 8
 86  6 17  1  7 47.0800000  0  4G 6G13G 9G11
  21084110.017    21084111.566   -17798287.597 9  27454914.845 8
  21164008.761    21164010.180   -28512313.176 9  35632188.750 8
  20169630.461    20169632.006   -22367450.633 9  23912868.134 8
  21522265.412    21522267.869     4591268.521 9   4764089.130 9
 86  6 17  1  7 53.0800000  0  4G 6G13G 9G11
  21086376.874    21086378.491   -17786373.772 9  27464198.342 8
  21161925.857    21161927.271   -28523259.875 9  35623658.870 8
  20168494.616    20168496.802   -22373417.400 9  23908218.708 8
  21524717.566    21524720.436     4604155.483 9   4774130.910 8
 86  6 17  1  7 59.0800000  0  4G 6G13G 9G11
  21088647.941    21088650.252   -17774439.080 9  27473498.096 8
  21159846.215    21159847.260   -28534187.097 9  35615144.154 8
  20167363.150    20167365.927   -22379362.311 9  23903586.316 8
  21527172.005    21527174.826     4617053.961 9   4784181.678 8
 86  6 17  1  8  5.0800000  0  4G 6G13G 9G11
  21090923.485    21090924.829   -17762483.646 9  27482814.014 8
  21157769.838    21157771.252   -28545094.874 9  35606644.601 8
  20166236.578    20166237.296   -22385285.502 8  23898970.837 8
  21529629.018    21529631.857     4629963.947 9   4794241.404 9
 86  6 17  1  8 11.0800000  0  4G 6G13G 9G11
  21093201.477    21093204.359   -17750507.443 8  27492146.109 7
  21155697.405    21155699.422   -28555983.272 9  35598160.136 8
  20165112.305    20165114.577   -22391186.883 9  23894372.356 8
  21532087.773    21532090.086     4642885.386 9   4804310.055 8
 86  6 17  1  8 17.0800000  0  4G 6G13G 9G11
  21095483.851    21095487.493   -17738510.709 9  27501494.212 9
  21153629.099    21153632.320   -28566852.494 9  35589690.617 7
  20163994.329    20163995.797   -22397066.591 9  23889790.763 8
  21534548.429    21534550.797     4655818.043 9   4814387.444 8
 86  6 17  1  8 23.0800000  0  4G 6G13G 9G11
  21097770.725    21097773.895   -17726492.975 9  27510858.665 8
  21151564.306    21151567.730   -28577701.995 9  35581236.461 8
  20162878.449    20162880.660   -22402924.249 9  23885226.350 8
  21537012.214    21537013.323     4668762.380 9   4824473.941 8
 86  6 17  1  8 29.0800000  0  4G 6G13G 9G11
  21100061.604    21100064.946   -17714454.441 8  27520239.311 8
  21149502.699    21149506.791   -28588532.152 9  35572797.398 7
  20161768.792    20161769.480   -22408760.165 9  23880678.882 7
  21539477.860    21539479.444     4681718.082 9   4834569.295 8
 86  6 17  1  8 35.0800000  0  4G 6G13G 9G11
  21102356.132    21102359.197   -17702395.142 8  27529636.165 8
  21147445.638    21147448.341   -28599342.831 9  35564373.492 8
  20160662.844    20160662.849   -22414574.169 9  23876148.505 7
  21541944.815    21541947.750     4694685.191 9   4844673.532 8
 86  6 17  1  8 41.0800000  0  4G 6G13G 9G11
  21104655.166    21104658.111   -17690315.116 9  27539049.168 8
  21145390.781    21145396.077   -28610134.063 9  35555964.747 7
  20159559.816    20159561.371   -22420366.239 9  23871635.201 7
  21544415.237    21544416.090     4707663.627 9   4854786.597 8
 86  6 17  1  8 47.0800000  0  4G 6G13G 9G11
  21106958.809    21106961.369   -17678214.406 9  27548478.269 8
  21143342.158    21143345.978   -28620905.808 9  35547571.190 7
  20158461.509    20158462.582   -22426136.381 9  23867138.992 7
  21546886.434    21546887.693     4720653.434 9   4864908.528 8
 86  6 17  1  8 53.0800000  0  4G 6G13G 9G11
  21109264.711    21109267.828   -17666092.929 8  27557923.581 9
  21141295.002    21141300.397   -28631658.092 9  35539192.785 8
  20157369.927    20157370.992   -22431884.748 8  23862659.746 6
  21549361.260    21549361.948     4733654.664 9   4875039.360 8
 86  6 17  1  8 59.0800000  0  4G 6G13G 9G11
  21111575.797    21111578.236   -17653950.718 9  27567385.032 8
  21139253.503    21139258.132   -28642390.971 9  35530829.510 7
  20156279.109    20156278.981   -22437611.041 9  23858197.693 8
  21551836.957    21551838.036     4746667.233 9   4885179.021 8
 86  6 17  1  9  5.0800000  0  4G 6G13G 9G11
  21113890.707    21113892.180   -17641787.773 9  27576862.644 8
  21137215.417    21137219.953   -28653104.349 9  35522481.431 8
  20155193.520    20155194.393   -22443315.438 9  23853752.725 7
  21554315.595    21554317.279     4759691.082 9   4895327.473 8
 86  6 17  1  9 11.0800000  0  4G 6G13G 9G11
  21116210.133    21116211.564   -17629604.154 9  27586356.373 7
  21135180.221    21135184.642   -28663798.239 9  35514148.540 8
  20154113.014    20154114.154   -22448997.843 9  23849324.874 7
  21556796.065    21556797.095     4772726.173 9   4905484.686 8
 86  6 17  1  9 17.0800000  0  4G 6G13G 9G11
  21118532.617    21118533.757   -17617399.809 9  27595866.245 9
  21133149.858    21133152.767   -28674472.735 9  35505830.762 8
  20153035.151    20153036.419   -22454658.220 8  23844914.189 7
  21559278.601    21559280.107     4785772.552 9   4915650.688 7
 86  6 17  1  9 23.0800000  0  4G 6G13G 9G11
  21120858.344    21120860.602   -17605174.754 9  27605392.254 8
  21131121.476    21131126.197   -28685127.808 9  35497528.100 8
  20151961.702    20151962.295   -22460296.598 8  23840520.652 8
  21561763.475    21561764.666     4798830.179 9   4925825.468 8
 86  6 17  1  9 29.0800000  0  4G 6G13G 9G11
  21123189.775    21123190.688   -17592928.994 9  27614934.403 9
  21129097.354    21129102.490   -28695763.475 9  35489240.571 9
  20150893.876    20150894.711   -22465912.910 9  23836144.309 7
  21564250.044    21564252.216     4811898.979 9   4936008.939 9
 86  6 17  1  9 35.0800000  0  4G 6G13G 9G11
  21125523.292    21125524.596   -17580662.550 9  27624492.671 8
  21127077.869    21127081.530   -28706379.603 9  35480968.278 8
  20149829.815    20149830.354   -22471507.159 9  23831785.151 8
  21566738.997    21566740.364     4824978.978 9   4946201.152 9
 86  6 17  1  9 41.0800000  0  4G 6G13G 9G11
  21127862.184    21127862.759   -17568375.448 9  27634067.027 9
  21125061.298    21125064.565   -28716976.232 9  35472711.185 8
  20148768.656    20148770.820   -22477079.388 9  23827443.153 8
  21569229.519    21569232.151     4838070.158 9   4956402.064 7
 86  6 17  1  9 47.0800000  0  4G 6G13G 9G11
  21130203.459    21130206.056   -17556067.638 9  27643657.522 8
  21123048.481    21123051.630   -28727553.319 9  35464469.296 9
  20147712.322    20147714.416   -22482629.533 9  23823118.357 7
  21571723.267    21571725.073     4851172.494 9   4966611.673 8
 86  6 17  1  9 53.0800000  0  4G 6G13G 9G11
  21132548.824    21132552.087   -17543739.168 9  27653264.120 9
  21121038.958    21121043.961   -28738110.892 9  35456242.618 8
  20146660.140    20146661.714   -22488157.559 9  23818810.813 8
  21574218.265    21574219.914     4864286.017 9   4976829.997 8
 86  6 17  1  9 59.0800000  0  4G 6G13G 9G11
  21134899.598    21134901.770   -17531389.996 9  27662886.837 9
  21119034.007    21119037.226   -28748649.001 9  35448031.121 8
  20145613.270    20145613.857   -22493663.449 9  23814520.510 8
  21576714.659    21576718.667     4877410.648 9   4987056.982 8
 86  6 17  1 10  5.0800000  0  4G 6G13G 9G11
  21137253.549    21137254.625   -17519020.240 9  27672525.603 8
  21117032.841    21117036.444   -28759167.566 9  35439834.829 8
  20144568.871    20144571.161   -22499147.201 9  23810247.448 7
  21579214.726    21579218.618     4890546.339 9   4997292.573 8
 86  6 17  1 10 11.0800000  0  4G 6G13G 9G11
  21139610.530    21139613.763   -17506629.746 9  27682180.515 8
  21115034.416    21115037.780   -28769666.681 9  35431653.715 8
  20143529.155    20143531.125   -22504608.737 9  23805991.714 8
  21581716.619    21581719.889     4903693.120 9   5007536.821 8
 86  6 17  1 10 17.0800000  0  4G 6G13G 9G11
  21141972.635    21141975.330   -17494218.639 9  27691851.504 8
  21113040.601    21113044.336   -28780146.221 9  35423487.839 9
  20142493.971    20142496.355   -22510048.198 9  23801753.166 7
  21584220.521    21584223.614     4916850.911 9   5017789.634 8
 86  6 17  1 10 23.0800000  0  4G 6G13G 9G11
  21144337.054    21144341.012   -17481786.937 9  27701538.534 9
  21111050.535    21111053.180   -28790606.270 9  35415337.168 8
  20141463.223    20141464.229   -22515465.438 9  23797531.932 6
  21586726.738    21586730.212     4930019.732 9   5028051.053 8
 86  6 17  1 10 29.0800000  0  4G 6G13G 9G11
  21146707.271    21146711.038   -17469334.543 9  27711241.693 9
  21109062.813    21109066.680   -28801046.808 9  35407201.681 8
  20140437.494    20140439.404   -22520860.517 9  23793327.974 8
  21589234.875    21589236.847     4943199.613 9   5038321.084 8
 86  6 17  1 10 35.0800000  0  4G 6G13G 9G11
  21149081.571    21149084.164   -17456861.562 9  27720960.888 9
  21107080.190    21107083.967   -28811467.909 9  35399081.355 8
  20139413.822    20139416.800   -22526233.383 9  23789141.325 7
  21591744.632    21591747.726     4956390.454 9   5048599.655 8
 86  6 17  1 10 41.0800000  0  4G 6G13G 9G11
  21151458.963    21151461.482   -17444367.956 9  27730696.147 9
  21105100.429    21105103.872   -28821869.515 9  35390976.219 9
  20138397.079    20138397.999   -22531583.980 9  23784972.041 8
  21594257.741    21594260.142     4969592.224 9   5058886.747 8
 86  6 17  1 10 47.0800000  0  4G 6G13G 9G11
  21153840.148    21153843.564   -17431853.782 9  27740447.444 8
  21103126.069    21103128.976   -28832251.614 9  35382886.274 9
  20137382.595    20137384.660   -22536912.386 8  23780820.033 7
  21596771.441    21596774.047     4982804.979 9   5069182.402 9
 86  6 17  1 10 53.0800000  0  4G 6G13G 9G11
  21156225.501    21156229.133   -17419319.045 9  27750214.775 9
  21101153.576    21101155.626   -28842614.241 9  35374811.505 8
  20136372.634    20136373.587   -22542218.545 9  23776685.357 7
  21599288.361    21599291.197     4996028.630 9   5079486.539 9
 86  6 17  1 10 59.0800000  0  4G 6G13G 9G11
  21158614.704    21158617.851   -17406763.616 8  27759998.206 8
  21099184.749    21099188.667   -28852957.330 9  35366751.961 8
  20135367.919    20135368.534   -22547502.340 9  23772568.101 7
  21601805.691    21601808.961     5009263.183 9   5089799.181 9
 86  6 17  1 11  5.0800000  0  4G 6G13G 9G11
  21161006.969    21161010.583   -17394187.634 9  27769797.668 8
  21097220.749    21097224.057   -28863280.889 9  35358707.645 8
  20134366.581    20134366.051   -22552763.810 9  23768468.263 7
  21604327.107    21604329.039     5022508.713 9   5100120.358 9
 86  6 17  1 11 11.0800000  0  4G 6G13G 9G11
  21163404.196    21163407.562   -17381591.126 8  27779613.121 8
  21095259.963    21095262.765   -28873584.941 9  35350678.515 8
  20133368.897    20133370.132   -22558002.954 9  23764385.812 8
  21606848.663    21606851.291     5035765.126 9   5110450.033 9
 86  6 17  1 11 17.0800000  0  4G 6G13G 9G11
  21165805.279    21165807.802   -17368974.034 9  27789444.618 8
  21093303.180    21093305.584   -28883869.496 9  35342664.571 9
  20132376.316    20132377.619   -22563219.873 9  23760320.677 7
  21609374.853    21609375.789     5049032.405 9   5120788.176 9
 86  6 17  1 11 23.0800000  0  4G 6G13G 9G11
  21168210.248    21168213.298   -17356336.404 9  27799292.115 8
  21091349.830    21091352.736   -28894134.495 9  35334665.874 9
  20131387.207    20131387.450   -22568414.386 9  23756272.997 7
  21611901.153    21611903.197     5062310.459 9   5131134.697 8
 86  6 17  1 11 29.0800000  0  4G 6G13G 9G11
  21170619.286    21170621.815   -17343678.209 9  27809155.649 8
  21089400.606    21089403.097   -28904379.883 9  35326682.468 9
  20130403.737    20130404.972   -22573586.504 9  23752242.793 7
  21614429.330    21614431.541     5075599.373 9   5141489.692 8
 86  6 17  1 11 35.0800000  0  4G 6G13G 9G11
  21173031.577    21173033.881   -17330999.463 9  27819035.178 8
  21087454.411    21087457.087   -28914605.731 9  35318714.266 8
  20129423.872    20129424.096   -22578736.243 9  23748229.991 7
  21616960.019    21616963.843     5088899.068 9   5151853.083 8
 86  6 17  1 11 41.0800000  0  4G 6G13G 9G11
  21175448.821    21175450.508   -17318300.161 8  27828930.739 9
  21085511.623    21085514.468   -28924812.102 9  35310761.266 9
  20128447.576    20128449.259   -22583863.557 9  23744234.689 7
  21619493.080    21619495.507     5102209.518 9   5162224.861 8
 86  6 17  1 11 47.0800000  0  4G 6G13G 9G11
  21177869.057    21177871.944   -17305580.383 9  27838842.242 8
  21083573.814    21083576.574   -28934998.953 9  35302823.452 8
  20127476.420    20127477.507   -22588968.405 9  23740256.882 7
  21622027.622    21622030.136     5115530.676 8   5172604.980 8
 86  6 17  1 11 53.0800000  0  4G 6G13G 9G11
  21180293.721    21180295.778   -17292840.063 9  27848769.768 8
  21081638.751    21081641.313   -28945166.259 9  35294900.885 9
  20126509.749    20126511.210   -22594050.930 9  23736296.477 6
  21624565.030    21624567.237     5128862.644 9   5182993.522 9
 86  6 17  1 11 59.0800000  0  4G 6G13G 9G11
  21182722.368    21182723.608   -17280079.236 9  27858713.270 8
  21079707.752    21079711.247   -28955314.119 9  35286993.455 7
  20125547.018    20125547.967   -22599110.988 9  23732353.564 7
  21627103.630    21627106.624     5142205.319 8   5193390.406 8
 86  6 17  1 12  5.0800000  0  4G 6G13G 9G11
  21185153.723    21185155.873   -17267297.886 9  27868672.746 9
  21077780.875    21077783.264   -28965442.561 9  35279101.184 8
  20124588.168    20124589.281   -22604148.588 9  23728428.173 7
  21629644.993    21629647.867     5155558.615 9   5203795.568 8
 86  6 17  1 12 11.0800000  0  4G 6G13G 9G11
  21187589.897    21187592.179   -17254496.072 9  27878648.179 8
  21075855.662    21075859.579   -28975551.392 9  35271224.166 9
  20123633.497    20123634.710   -22609163.578 8  23724520.383 7
  21632187.714    21632189.928     5168922.655 9   5214209.106 8
 86  6 17  1 12 17.0800000  0  4G 6G13G 9G11
  21190028.275    21190032.262   -17241673.811 8  27888639.541 8
  21073936.937    21073939.716   -28985640.685 9  35263362.390 8
  20122682.604    20122684.120   -22614156.143 9  23720630.079 7
  21634733.561    21634736.069     5182297.396 8   5224630.973 8
 86  6 17  1 12 23.0800000  0  4G 6G13G 9G11
  21192473.430    21192476.901   -17228830.925 9  27898646.978 8
  21072019.762    21072023.071   -28995710.382 9  35255515.875 8
  20121737.549    20121738.374   -22619126.205 9  23716757.304 7
  21637280.276    21637282.908     5195682.819 9   5235061.180 9
 86  6 17  1 12 29.0800000  0  4G 6G13G 9G11
  21194921.446    21194923.372   -17215967.644 8  27908670.301 8
  21070107.683    21070110.861   -29005760.545 9  35247684.586 9
  20120794.344    20120797.217   -22624073.755 9  23712902.074 6
  21639829.459    21639831.727     5209078.835 9   5245499.629 8
 86  6 17  1 12 35.0800000  0  4G 6G13G 9G11
  21197373.142    21197376.316   -17203083.925 9  27918709.538 9
  21068198.151    21068202.068   -29015791.145 9  35239868.523 8
  20119858.513    20119860.471   -22628998.718 9  23709064.445 7
  21642379.986    21642382.942     5222485.397 9   5255946.299 8
 86  6 17  1 12 41.0800000  0  4G 6G13G 9G11
  21199829.104    21199831.509   -17190179.750 9  27928764.744 9
  21066293.309    21066297.143   -29025802.211 9  35232067.706 8
  20118925.058    20118926.704   -22633901.073 8  23705244.423 7
  21644932.565    21644936.057     5235902.537 9   5266401.205 8
 86  6 17  1 12 47.0800000  0  4G 6G13G 9G11
  21202289.054    21202292.633   -17177255.109 9  27938835.880 8
  21064391.989    21064396.025   -29035793.701 9  35224282.144 8
  20117997.462    20117998.968   -22638780.992 9  23701441.889 7
  21647489.172    21647491.262     5249330.190 9   5276864.323 7
 86  6 17  1 12 53.0800000  0  4G 6G13G 9G11
  21204752.567    21204755.635   -17164310.066 9  27948922.932 8
  21062494.647    21062498.693   -29045765.630 9  35216511.806 8
  20117073.383    20117075.144   -22643638.234 9  23697657.035 8
  21650045.605    21650048.843     5262768.353 9   5287335.610 8
 86  6 17  1 12 59.0800000  0  4G 6G13G 9G11
  21207219.726    21207221.573   -17151344.623 9  27959025.864 9
  21060600.338    21060604.231   -29055718.019 9  35208756.714 9
  20116152.644    20116154.190   -22648472.899 9  23693889.755 6
  21652604.994    21652608.860     5276217.016 9   5297815.084 7
 86  6 17  1 13  5.0800000  0  4G 6G13G 9G11
  21209691.356    21209693.857   -17138358.772 9  27969144.700 9
  21058710.719    21058713.410   -29065650.872 9  35201016.831 9
  20115237.293    20115240.191   -22653284.875 8  23690140.173 6
  21655166.254    21655169.273     5289676.108 9   5308302.689 8
 86  6 17  1 13 11.0800000  0  4G 6G13G 9G11
  21212165.077    21212168.614   -17125352.480 9  27979279.470 9
  21056823.742    21056826.575   -29075564.256 9  35193292.133 7
  20114325.876    20114328.132   -22658074.281 9  23686408.174 7
  21657729.991    21657732.049     5303145.690 9   5318798.463 9
 86  6 17  1 13 17.0800000  0  4G 6G13G 9G11
  21214643.721    21214647.264   -17112325.774 9  27989430.146 9
  21054942.821    21054945.296   -29085458.135 9  35185582.618 9
  20113418.636    20113421.268   -22662841.118 9  23682693.747 8
  21660295.047    21660297.785     5316625.697 9   5329302.360 9
 86  6 17  1 13 23.0800000  0  4G 6G13G 9G11
  21217126.652    21217129.759   -17099278.712 9  27999596.681 9
  21053062.568    21053065.988   -29095332.423 9  35177888.383 8
  20112516.336    20112518.267   -22667585.193 9  23678997.050 7
  21662862.242    21662865.492     5330116.100 9   5339814.370 8
 86  6 17  1 13 29.0800000  0  4G 6G13G 9G11
  21219613.961    21219616.136   -17086211.305 9  28009779.069 9
  21051187.774    21051189.608   -29105187.182 9  35170209.354 8
  20111617.308    20111619.465   -22672306.588 9  23675318.041 8
  21665431.932    21665435.488     5343616.969 9   5350334.509 8
 86  6 17  1 13 35.0800000  0  4G 6G13G 9G11
  21222104.562    21222106.239   -17073123.425 9  28019977.406 8
  21049316.646    21049318.407   -29115022.397 9  35162545.570 8
  20110723.385    20110724.639   -22677005.298 9  23671656.717 7
  21668003.319    21668007.275     5357128.233 9   5360862.789 8
 86  6 17  1 13 41.0800000  0  4G 6G13G 9G11
  21224598.831    21224601.171   -17060015.185 8  28030191.621 8
  21047448.725    21047449.872   -29124838.043 9  35154897.008 7
  20109833.296    20109836.793   -22681681.246 8  23668013.128 7
  21670576.681    21670578.866     5370649.873 9   5371399.122 8
 86  6 17  1 13 47.0800000  0  4G 6G13G 9G11
  21227097.674    21227098.905   -17046886.572 9  28040421.701 9
  21045584.239    21045584.789   -29134634.099 9  35147263.731 8
  20108948.588    20108950.448   -22686334.501 9  23664387.220 7
  21673151.592    21673154.312     5384181.861 9   5381943.524 8
 86  6 17  1 13 53.0800000  0  4G 6G13G 9G11
  21229599.634    21229601.537   -17033737.625 8  28050667.625 8
  21043723.723    21043724.453   -29144410.456 9  35139645.799 8
  20108068.030    20108068.018   -22690964.840 9  23660779.154 7
  21675728.273    21675730.797     5397724.206 9   5392496.009 8
 86  6 17  1 13 59.0800000  0  4G 6G13G 9G11
  21232105.087    21232107.773   -17020568.330 8  28060929.409 8
  21041866.790    21041867.809   -29154167.272 9  35132043.087 8
  20107190.513    20107192.154   -22695572.564 8  23657188.722 8
  21678307.022    21678310.245     5411276.786 9   5403056.445 9
 86  6 17  1 14  5.0800000  0  4G 6G13G 9G11
  21234615.502    21234617.548   -17007378.658 9  28071207.062 9
  21040013.518    21040015.913   -29163904.554 9  35124455.607 8
  20106318.272    20106319.516   -22700157.481 9  23653616.058 7
  21680888.206    21680891.738     5424839.612 8   5413624.885 9
 86  6 17  1 14 11.0800000  0  4G 6G13G 9G11
  21237129.461    21237131.238   -16994168.661 9  28081500.557 8
  21038163.686    21038165.187   -29173622.271 9  35116883.376 7
  20105450.000    20105451.150   -22704719.583 9  23650061.166 7
  21683470.055    21683474.498     5438412.711 9   5424201.322 8
 86  6 17  1 14 17.0800000  0  4G 6G13G 9G11
  21239647.223    21239649.496   -16980938.334 9  28091809.884 9
  21036318.428    21036321.289   -29183320.344 9  35109326.440 8
  20104587.242    20104587.810   -22709258.847 9  23646524.077 7
  21686055.119    21686059.008     5451996.128 9   5434785.789 8
 86  6 17  1 14 23.0800000  0  4G 6G13G 9G11
  21242168.443    21242170.168   -16967687.719 9  28102135.038 9
  21034476.721    21034478.753   -29192998.924 9  35101784.694 9
  20103727.125    20103728.185   -22713775.329 9  23643004.749 8
  21688642.290    21688645.362     5465589.764 9   5445378.240 8
 86  6 17  1 14 29.0800000  0  4G 6G13G 9G11
  21244693.990    21244695.929   -16954416.781 8  28112476.011 9
  21032638.446    21032641.661   -29202657.931 9  35094258.213 8
  20102872.467    20102873.941   -22718268.817 9  23639503.322 7
  21691231.287    21691234.525     5479193.628 9   5455978.644 8
 86  6 17  1 14 35.0800000  0  4G 6G13G 9G11
  21247223.428    21247225.234   -16941125.601 9  28122832.763 9
  21030804.239    21030807.385   -29212297.346 9  35086746.976 8
  20102022.026    20102022.588   -22722739.588 9  23636019.612 7
  21693821.515    21693825.200     5492807.714 9   5466587.013 8
 86  6 17  1 14 41.0800000  0  4G 6G13G 9G11
  21249756.311    21249759.294   -16927814.118 9  28133205.337 8
  21028973.801    21028976.367   -29221917.121 9  35079251.056 8
  20101174.444    20101176.895   -22727187.456 9  23632553.737 7
  21696414.340    21696417.792     5506431.912 9   5477203.269 8
 86  6 17  1 14 47.0800000  0  4G 6G13G 9G11
  21252291.981    21252295.065   -16914482.318 8  28143593.733 9
  21027147.405    21027149.364   -29231517.240 9  35071770.459 9
  20100332.090    20100333.674   -22731612.447 9  23629105.700 7
  21699009.137    21699012.024     5520066.245 8   5487827.415 9
 86  6 17  1 14 53.0800000  0  4G 6G13G 9G11
  21254833.265    21254836.921   -16901130.253 9  28153997.915 9
  21025323.986    21025327.275   -29241097.803 9  35064305.082 9
  20099494.115    20099496.330   -22736014.573 9  23625675.471 7
  21701605.836    21701607.434     5533710.652 9   5498459.421 9
 86  6 17  1 14 59.0800000  0  4G 6G13G 9G11
  21257378.360    21257381.954   -16887757.967 9  28164417.864 8
  21023504.856    21023507.432   -29250658.847 9  35056854.933 8
  20098661.388    20098662.514   -22740393.652 9  23622263.217 8
  21704205.434    21704205.709     5547365.210 9   5509099.329 8
 86  6 17  1 15  5.0800000  0  4G 6G13G 9G11
  21259927.090    21259929.632   -16874365.456 9  28174853.580 8
  21021689.592    21021691.827   -29260200.306 9  35049420.035 8
  20097832.685    20097833.325   -22744749.889 9  23618868.754 7
  21706804.343    21706806.262     5561029.826 9   5519747.080 8
 86  6 17  1 15 11.0800000  0  4G 6G13G 9G11
  21262478.479    21262482.185   -16860952.705 9  28185305.065 9
  21019877.386    21019880.625   -29269722.190 9  35042000.381 9
  20097007.428    20097007.660   -22749083.140 9  23615492.187 7
  21709407.357    21709409.202     5574704.498 9   5530402.672 7
 86  6 17  1 15 17.0800000  0  4G 6G13G 9G11
  21265036.109    21265038.470   -16847519.758 9  28195772.300 9
  21018069.192    21018071.982   -29279224.529 9  35034595.970 9
  20096187.692    20096187.459   -22753393.412 9  23612133.541 6
  21712011.217    21712012.764     5588389.203 9   5541066.085 8
 86  6 17  1 15 23.0800000  0  4G 6G13G 9G11
  21267595.129    21267598.681   -16834066.579 9  28206255.277 8
  21016265.203    21016267.790   -29288707.274 9  35027206.835 8
  20095372.431    20095372.747   -22757680.726 9  23608792.766 7
  21714617.279    21714618.885     5602083.889 9   5551737.271 8
 86  6 17  1 15 29.0800000  0  4G 6G13G 9G11
  21270159.580    21270162.523   -16820593.129 9  28216754.074 9
  21014463.990    21014466.978   -29298170.448 9  35019832.935 9
  20094560.641    20094559.978   -22761945.039 9  23605469.936 7
  21717224.173    21717225.979     5615788.569 9   5562416.237 8
 86  6 17  1 15 35.0800000  0  4G 6G13G 9G11
  21272726.910    21272730.673   -16807099.508 9  28227268.565 9
  21012666.756    21012670.179   -29307614.035 9  35012474.292 8
  20093753.632    20093754.701   -22766186.227 9  23602165.093 7
  21719834.516    21719835.996     5629503.249 9   5573102.999 7
 86  6 17  1 15 41.0800000  0  4G 6G13G 9G11
  21275298.443    21275302.001   -16793585.701 9  28237798.816 8
  21010872.123    21010876.947   -29317037.984 9  35005130.962 9
  20092950.954    20092950.647   -22770404.443 9  23598878.190 7
  21722446.243    21722448.139     5643227.872 9   5583797.512 8
 86  6 17  1 15 47.0800000  0  4G 6G13G 9G11
  21277873.331    21277876.740   -16780051.718 9  28248344.756 8
  21009083.186    21009087.564   -29326442.397 9  34997802.854 9
  20092152.797    20092153.413   -22774599.643 9  23595609.197 7
  21725059.181    21725061.276     5656962.421 9   5594499.743 9
 86  6 17  1 15 53.0800000  0  4G 6G13G 9G11
  21280452.209    21280456.492   -16766497.567 9  28258906.426 9
  21007296.770    21007301.420   -29335827.202 9  34990490.020 8
  20091359.132    20091359.595   -22778771.799 9  23592358.167 7
  21727674.697    21727678.402     5670706.904 9   5605209.744 8
 86  6 17  1 15 59.0800000  0  4G 6G13G 9G11
  21283034.880    21283039.490   -16752923.240 9  28269483.823 9
  21005515.013    21005517.922   -29345192.404 8  34983192.461 8
  20090568.379    20090568.893   -22782920.889 8  23589125.112 7
  21730292.799    21730294.499     5684461.330 9   5615927.474 8
 86  6 17  1 16  5.0800000  0  4G 6G13G 9G11
  21285623.473    21285626.122   -16739328.766 9  28280076.918 8
  21003736.151    21003740.077   -29354538.014 9  34975910.166 8
  20089784.626    20089786.554   -22787046.834 9  23585910.084 6
  21732911.814    21732913.465     5698225.658 9   5626652.929 9
 86  6 17  1 16 11.0800000  0  4G 6G13G 9G11
  21288212.354    21288216.710   -16725714.135 9  28290685.710 8
  21001961.469    21001965.905   -29363864.089 9  34968643.100 9
  20089002.619    20089003.933   -22791149.795 8  23582712.976 7
  21735532.514    21735535.196     5711999.816 9   5637386.038 8
 86  6 17  1 16 17.0800000  0  4G 6G13G 9G11
  21290807.558    21290812.191   -16712079.359 9  28301310.198 9
  21000190.909    21000194.742   -29373170.524 9  34961391.348 9
  20088225.487    20088228.039   -22795229.557 8  23579533.937 6
  21738155.941    21738157.944     5725783.825 9   5648126.823 8
 86  6 17  1 16 23.0800000  0  4G 6G13G 9G11
  21293406.159    21293409.167   -16698424.448 9  28311950.374 8
  20998424.094    20998427.912   -29382457.373 9  34954154.836 9
  20087453.926    20087454.021   -22799286.125 9  23576372.966 7
  21740780.899    21740783.296     5739577.642 9   5658875.244 9
 86  6 17  1 16 29.0800000  0  4G 6G13G 9G11
  21296009.412    21296012.592   -16684749.405 9  28322606.254 8
  20996660.056    20996664.347   -29391724.715 9  34946933.528 9
  20086686.763    20086687.400   -22803319.649 8  23573229.963 6
  21743406.852    21743410.137     5753381.228 9   5669631.278 9
 86  6 17  1 16 35.0800000  0  4G 6G13G 9G11
  21298615.413    21298618.822   -16671054.249 9  28333277.793 8
  20994900.369    20994904.244   -29400972.455 8  34939727.519 9
  20085923.845    20085925.682   -22807329.895 8  23570105.101 7
  21746036.449    21746039.185     5767194.570 9   5680394.923 8
 86  6 17  1 16 41.0800000  0  4G 6G13G 9G11
  21301225.313    21301228.664   -16657338.970 9  28343965.003 8
  20993143.942    20993147.719   -29410200.612 9  34932536.753 9
  20085164.295    20085167.104   -22811317.049 9  23566998.221 7
  21748666.415    21748669.460     5781017.742 9   5691166.229 9
 86  6 17  1 16 47.0800000  0  4G 6G13G 9G11
  21303839.317    21303841.928   -16643603.663 9  28354667.833 9
  20991392.123    20991396.203   -29419409.164 8  34925361.259 8
  20084410.115    20084410.905   -22815280.982 9  23563909.444 7
  21751299.433    21751301.951     5794850.646 9   5701945.105 8
 86  6 17  1 16 53.0800000  0  4G 6G13G 9G11
  21306457.961    21306459.531   -16629848.280 9  28365386.313 8
  20989643.482    20989647.934   -29428598.183 8  34918200.995 9
  20083660.017    20083661.911   -22819221.690 8  23560838.756 7
  21753933.984    21753936.085     5808693.252 9   5712731.543 9
 86  6 17  1 16 59.0800000  0  4G 6G13G 9G11
  21309079.891    21309080.995   -16616072.816 9  28376120.430 9
  20987898.103    20987903.097   -29437767.681 9  34911055.944 8
  20082913.336    20082916.736   -22823139.254 8  23557786.125 7
  21756569.509    21756572.595     5822545.546 9   5723525.540 9
 86  6 17  1 17  5.0800000  0  4G 6G13G 9G11
  21311704.486    21311706.181   -16602277.280 9  28386870.202 9
  20986157.249    20986161.337   -29446917.529 9  34903926.209 8
  20082172.272    20082175.403   -22827033.466 8  23554751.639 7
  21759207.179    21759209.869     5836407.496 9   5734327.058 9
 86  6 17  1 17 11.0800000  0  4G 6G13G 9G11
  21314333.340    21314336.061   -16588461.708 9  28397635.568 8
  20984421.142    20984423.673   -29456047.826 9  34896811.703 9
  20081434.966    20081437.747   -22830904.464 9  23551735.284 6
  21761846.354    21761848.357     5850279.113 9   5745136.106 9
 86  6 17  1 17 17.0800000  0  4G 6G13G 9G11
  21316966.505    21316968.024   -16574626.106 9  28408416.550 8
  20982688.437    20982690.170   -29465158.530 9  34889712.474 9
  20080704.045    20080705.065   -22834752.270 9  23548737.000 6
  21764488.285    21764491.567     5864160.360 9   5755952.657 9
 86  6 17  1 17 23.0800000  0  4G 6G13G 9G11
  21319603.288    21319603.949   -16560770.436 9  28419213.170 9
  20980958.202    20980960.549   -29474249.627 9  34882628.507 8
  20079977.605    20079978.803   -22838576.777 7  23545756.862 7
  21767131.606    21767134.402     5878051.200 9   5766776.683 9
 86  6 17  1 17 29.0800000  0  4G 6G13G 9G11
  21322243.100    21322244.293   -16546894.779 9  28430025.372 8
  20979232.082    20979232.895   -29483321.124 9  34875559.817 9
  20079253.721    20079253.426   -22842377.954 8  23542794.902 6
  21769776.807    21769779.558     5891951.601 9   5777608.159 9
 86  6 17  1 17 35.0800000  0  4G 6G13G 9G11
  21324887.220    21324888.958   -16532999.124 9  28440853.137 8
  20977509.250    20977511.042   -29492372.987 9  34868506.428 8
  20078535.315    20078537.182   -22846155.758 8  23539851.157 7
  21772423.722    21772427.798     5905861.606 9   5788447.124 9
 86  6 17  1 17 41.0800000  0  4G 6G13G 9G11
  21327535.274    21327538.271   -16519083.385 9  28451696.570 8
  20975790.920    20975792.126   -29501405.195 9  34861468.358 8
  20077821.249    20077822.508   -22849910.259 8  23536925.574 8
  21775072.687    21775075.746     5919781.197 9   5799293.556 9
 86  6 17  1 17 47.0800000  0  4G 6G13G 9G11
  21330186.622    21330189.614   -16505147.646 9  28462555.579 8
  20974075.331    20974078.564   -29510417.818 9  34854445.541 9
  20077111.466    20077112.304   -22853641.464 8  23534018.137 7
  21777723.985    21777726.254     5933710.312 9   5810147.408 8
 86  6 17  1 17 53.0800000  0  4G 6G13G 9G11
  21332842.618    21332845.510   -16491191.964 9  28473430.131 9
  20972364.010    20972366.727   -29519410.878 9  34847437.974 9
  20076405.698    20076408.437   -22857349.317 8  23531128.904 6
  21780375.426    21780378.663     5947648.953 9   5821008.684 9
 86  6 17  1 17 59.0800000  0  4G 6G13G 9G11
  21335502.073    21335505.061   -16477216.370 9  28484320.204 9
  20970656.631    20970659.224   -29528384.395 9  34840445.629 9
  20075704.167    20075706.529   -22861033.836 8  23528257.847 7
  21783029.943    21783032.209     5961597.103 9   5831877.370 9
 86  6 17  1 18  5.0800000  0  4G 6G13G 9G11
  21338165.305    21338167.646   -16463220.775 9  28495225.855 9
  20968952.725    20968955.427   -29537338.456 9  34833468.453 8
  20075005.736    20075009.710   -22864694.949 8  23525405.032 7
  21785686.577    21785688.780     5975554.788 9   5842753.477 9
 86  6 17  1 18 11.0800000  0  4G 6G13G 9G11
  21340832.187    21340835.875   -16449205.192 9  28506147.086 8
  20967252.388    20967254.425   -29546273.036 9  34826506.446 8
  20074314.631    20074316.910   -22868332.628 9  23522570.479 7
  21788343.381    21788346.860     5989521.858 9   5853636.905 9
 86  6 17  1 18 17.0800000  0  4G 6G13G 9G11
  21343502.977    21343505.868   -16435169.678 9  28517083.842 8
  20965555.604    20965558.454   -29555188.030 9  34819559.719 8
  20073627.388    20073629.283   -22871946.845 8  23519754.200 7
  21791003.014    21791007.311     6003498.334 9   5864527.662 8
 86  6 17  1 18 23.0800000  0  4G 6G13G 9G11
  21346177.545    21346180.066   -16421114.245 9  28528036.118 8
  20963863.173    20963865.775   -29564083.332 9  34812628.320 9
  20072943.076    20072945.341   -22875537.741 8  23516956.101 7
  21793665.497    21793668.223     6017484.183 9   5875425.732 8
 86  6 17  1 18 29.0800000  0  4G 6G13G 9G11
  21348855.903    21348859.503   -16407038.875 9  28539003.935 8
  20962173.426    20962176.577   -29572958.902 9  34805712.287 9
  20072266.327    20072265.135   -22879105.117 8  23514176.336 8
  21796327.980    21796330.297     6031479.444 9   5886331.130 9
 86  6 17  1 18 35.0800000  0  4G 6G13G 9G11
  21351537.794    21351540.949   -16392943.568 9  28549987.279 9
  20960487.286    20960491.305   -29581814.918 9  34798811.501 8
  20071591.811    20071591.916   -22882649.044 9  23511414.835 6
  21798993.251    21798995.875     6045484.102 9   5897243.837 8
 86  6 17  1 18 41.0800000  0  4G 6G13G 9G11
  21354224.723    21354226.652   -16378828.377 9  28560986.123 8
  20958806.014    20958810.147   -29590651.371 9  34791925.967 8
  20070922.504    20070921.355   -22886169.644 9  23508671.495 7
  21801659.626    21801662.185     6059498.148 9   5908163.870 8
 86  6 17  1 18 47.0800000  0  4G 6G13G 9G11
  21356914.307    21356916.310   -16364693.323 9  28572000.447 8
  20957128.288    20957131.610   -29599468.252 9  34785055.673 9
  20070256.316    20070255.576   -22889666.780 9  23505946.461 7
  21804327.693    21804330.673     6073521.528 9   5919091.182 9
 86  6 17  1 18 53.0800000  0  4G 6G13G 9G11
  21359607.122    21359610.204   -16350538.411 9  28583030.237 9
  20955453.400    20955457.347   -29608265.603 9  34778200.600 8
  20069595.670    20069594.951   -22893140.320 9  23503239.797 7
  21806998.487    21807000.891     6087554.244 9   5930025.756 9
 86  6 17  1 18 59.0800000  0  4G 6G13G 9G11
  21362304.467    21362306.903   -16336363.578 9  28594075.544 9
  20953783.227    20953786.685   -29617043.323 9  34771360.838 9
  20068937.725    20068939.299   -22896590.399 8  23500551.429 6
  21809670.404    21809674.147     6101596.282 9   5940967.601 8
 86  6 17  1 19  5.0800000  0  4G 6G13G 9G11
  21365006.223    21365008.534   -16322168.906 9  28605136.315 9
  20952116.462    20952120.268   -29625801.420 9  34764536.335 8
  20068285.302    20068287.898   -22900016.881 9  23497881.432 7
  21812344.379    21812347.320     6115647.566 9   5951916.642 9
 86  6 17  1 19 11.0800000  0  4G 6G13G 9G11
  21367711.745    21367713.493   -16307954.385 9  28616212.562 8
  20950453.906    20950458.102   -29634539.919 9  34757727.127 8
  20067637.945    20067640.631   -22903419.883 9  23495229.750 7
  21815020.640    21815022.731     6129708.107 9   5962872.904 8
 86  6 17  1 19 17.0800000  0  4G 6G13G 9G11
  21370420.636    21370422.750   -16293720.025 9  28627304.246 8
  20948794.695    20948798.501   -29643258.883 9  34750933.128 8
  20066994.871    20066997.466   -22906799.232 8  23492596.492 8
  21817697.960    21817700.332     6143777.929 9   5973836.416 9
 86  6 17  1 19 23.0800000  0  4G 6G13G 9G11
  21373133.222    21373134.479   -16279465.824 9  28638411.415 9
  20947139.437    20947143.572   -29651958.234 8  34744154.424 8
  20066356.527    20066357.773   -22910155.115 9  23489981.525 7
  21820377.372    21820379.904     6157857.002 9   5984807.112 9
 86  6 17  1 19 29.0800000  0  4G 6G13G 9G11
  21375849.044    21375850.329   -16265191.806 9  28649534.018 9
  20945487.353    20945491.776   -29660638.014 9  34737390.962 9
  20065722.144    20065724.406   -22913487.382 9  23487384.956 7
  21823058.072    21823059.803     6171945.261 9   5995784.989 9
 86  6 17  1 19 35.0800000  0  4G 6G13G 9G11
  21378569.799    21378569.911   -16250897.992 9  28660672.050 8
  20943839.678    20943843.125   -29669298.232 9  34730642.745 9
  20065092.712    20065094.443   -22916796.108 8  23484806.725 8
  21825741.150    21825740.724     6186042.711 9   6006770.012 9
 86  6 17  1 19 41.0800000  0  4G 6G13G 9G11
  21381293.812    21381293.590   -16236584.354 9  28671825.526 9
  20942194.292    20942198.199   -29677938.881 9  34723909.783 8
  20064468.031    20064469.399   -22920081.168 9  23482246.940 7
  21828424.995    21828427.267     6200149.287 9   6017762.151 8
 86  6 17  1 19 47.0800000  0  4G 6G13G 9G11
  21384021.747    21384022.588   -16222250.885 9  28682994.447 9
  20940554.798    20940558.446   -29686559.862 8  34717192.140 8
  20063847.422    20063849.164   -22923342.593 9  23479705.590 7
  21831111.752    21831113.548     6214265.039 9   6028761.431 8
 86  6 17  1 19 53.0800000  0  4G 6G13G 9G11
  21386752.290    21386753.595   -16207897.682 9  28694178.761 9
  20938916.571    20938920.946   -29695161.254 9  34710489.772 8
  20063230.810    20063232.321   -22926580.383 9  23477182.618 8
  21833799.619    21833800.655     6228389.920 9   6039767.827 8
 86  6 17  1 19 59.0800000  0  4G 6G13G 9G11
  21389486.724    21389488.477   -16193524.712 9  28705378.463 9
  20937284.636    20937288.311   -29703743.054 9  34703802.653 9
  20062618.835    20062620.133   -22929794.557 9  23474678.072 7
  21836488.603    21836490.043     6242523.882 9   6050781.313 9
 86  6 17  1 20  5.0800000  0  4G 6G13G 9G11
  21392226.326    21392227.652   -16179132.016 9  28716593.547 9
  20935655.533    20935658.822   -29712305.265 9  34697130.810 8
  20062010.618    20062013.773   -22932985.107 8  23472191.927 8
  21839180.242    21839182.477     6256666.932 9   6061801.864 8
 86  6 17  1 20 11.0800000  0  4G 6G13G 9G11
  21394968.061    21394970.185   -16164719.555 9  28727824.036 8
  20934029.579    20934033.065   -29720847.857 9  34690474.255 9
  20061409.585    20061411.850   -22936151.896 9  23469724.293 7
  21841872.825    21841875.778     6270819.022 9   6072829.470 9
 86  6 17  1 20 17.0800000  0  4G 6G13G 9G11
  21397715.546    21397716.382   -16150287.439 9  28739069.845 8
  20932407.088    20932411.435   -29729370.909 8  34683832.912 8
  20060810.517    20060813.307   -22939295.125 8  23467275.025 7
  21844568.002    21844570.714     6284980.114 9   6083864.083 9
 86  6 17  1 20 23.0800000  0  4G 6G13G 9G11
  21400464.825    21400466.185   -16135835.587 9  28750331.006 9
  20930789.575    20930793.985   -29737874.420 9  34677206.814 8
  20060216.810    20060219.762   -22942414.699 9  23464844.195 7
  21847263.465    21847267.101     6299150.203 9   6094905.705 9
 86  6 17  1 20 29.0800000  0  4G 6G13G 9G11
  21403217.600    21403220.202   -16121364.025 9  28761607.542 9
  20929175.224    20929178.683   -29746358.317 9  34670595.990 8
  20059629.675    20059631.564   -22945510.498 7  23462431.872 7
  21849962.510    21849965.770     6313329.275 9   6105954.333 8
 86  6 17  1 20 35.0800000  0  4G 6G13G 9G11
  21405976.012    21405977.040   -16106872.649 9  28772899.520 8
  20927564.670    20927568.451   -29754822.608 9  34664000.444 8
  20059043.790    20059046.514   -22948582.573 9  23460038.044 7
  21852662.540    21852664.688     6327517.433 9   6117010.045 8
 86  6 17  1 20 41.0800000  0  4G 6G13G 9G11
  21408737.256    21408739.540   -16092361.671 9  28784206.774 8
  20925957.656    20925960.768   -29763267.413 9  34657420.077 9
  20058463.924    20058465.140   -22951630.834 8  23457662.774 7
  21855363.498    21855366.873     6341714.459 9   6128072.652 8
 86  6 17  1 20 47.0800000  0  4G 6G13G 9G11
  21411502.820    21411502.971   -16077831.006 9  28795529.364 8
  20924354.403    20924357.532   -29771692.728 9  34650854.904 8
  20057887.550    20057890.494   -22954655.469 9  23455305.925 8
  21858066.855    21858070.133     6355920.349 9   6139142.178 8
 86  6 17  1 20 53.0800000  0  4G 6G13G 9G11
  21414271.903    21414272.962   -16063280.879 9  28806867.103 8
  20922755.098    20922758.147   -29780098.673 9  34644304.833 8
  20057317.128    20057318.342   -22957656.406 9  23452967.531 7
  21860771.852    21860775.502     6370134.992 9   6150218.522 8
 86  6 17  1 20 59.0800000  0  4G 6G13G 9G11
  21417044.141    21417045.851   -16048710.882 9  28818220.346 8
  20921159.915    20921162.442   -29788484.935 9  34637770.099 8
  20056751.173    20056753.348   -22960633.435 9  23450647.761 8
  21863478.979    21863481.795     6384358.689 9   6161301.917 8
 86  6 17  1 21  5.0800000  0  4G 6G13G 9G11
  21419820.892    21419822.236   -16034121.273 9  28829588.867 8
  20919567.817    20919570.166   -29796851.672 9  34631250.572 8
  20056189.069    20056191.350   -22963586.720 9  23448346.514 7
  21866186.988    21866190.689     6398591.260 9   6172392.229 9
 86  6 17  1 21 11.0800000  0  4G 6G13G 9G11
  21422600.824    21422601.940   -16019512.046 9  28840972.671 8
  20917980.701    20917981.841   -29805198.801 9  34624746.324 8
  20055631.850    20055631.732   -22966516.156 9  23446063.819 7
  21868896.372    21868899.542     6412832.682 9   6183489.446 8
 86  6 17  1 21 17.0800000  0  4G 6G13G 9G11
  21425384.624    21425386.738   -16004883.141 9  28852371.807 9
  20916395.329    20916396.285   -29813526.337 9  34618257.336 8
  20055079.344    20055079.702   -22969421.715 9  23443799.747 7
  21871607.748    21871612.042     6427082.961 9   6194593.555 9
 86  6 17  1 21 23.0800000  0  4G 6G13G 9G11
  21428172.053    21428172.912   -15990234.658 9  28863786.202 8
  20914814.917    20914815.410   -29821834.243 9  34611783.657 8
  20054531.445    20054531.088   -22972303.552 9  23441554.152 7
  21874322.030    21874324.713     6441342.039 9   6205704.507 8
 86  6 17  1 21 29.0800000  0  4G 6G13G 9G11
  21430963.488    21430963.501   -15975566.565 9  28875215.869 7
  20913238.042    20913238.910   -29830122.605 9  34605325.193 9
  20053986.389    20053988.532   -22975161.499 9  23439327.189 7
  21877037.695    21877040.839     6455609.871 9   6216822.305 9
 86  6 17  1 21 35.0800000  0  4G 6G13G 9G11
  21433758.930    21433758.619   -15960878.998 9  28886660.721 8
  20911663.950    20911664.984   -29838391.400 9  34598882.000 9
  20053448.193    20053449.386   -22977995.688 9  23437118.715 7
  21879754.075    21879756.634     6469886.488 9   6227946.937 8
 86  6 17  1 21 41.0800000  0  4G 6G13G 9G11
  21436556.865    21436557.818   -15946171.778 9  28898120.884 8
  20910093.719    20910096.022   -29846640.577 9  34592454.077 8
  20052913.171    20052913.493   -22980805.945 8  23434928.915 7
  21882473.038    21882475.552     6484171.835 9   6239078.361 8
 86  6 17  1 21 47.0800000  0  4G 6G13G 9G11
  21439359.287    21439360.784   -15931445.003 9  28909596.274 8
  20908527.141    20908529.365   -29854870.184 9  34586041.398 8
  20052381.490    20052383.590   -22983592.317 8  23432757.702 7
  21885192.482    21885195.966     6498465.870 8   6250216.577 8
 86  6 17  1 21 53.0800000  0  4G 6G13G 9G11
  21442165.610    21442166.065   -15916698.643 9  28921086.946 8
  20906964.851    20906967.860   -29863080.253 9  34579643.933 7
  20051856.277    20051859.672   -22986354.794 8  23430605.117 8
  21887914.303    21887916.365     6512768.640 9   6261361.575 8
 86  6 17  1 21 59.0800000  0  4G 6G13G 9G11
  21444975.618    21444976.761   -15901932.715 9  28932592.852 9
  20905405.656    20905407.671   -29871270.742 9  34573261.742 8
  20051335.031    20051337.001   -22989093.300 9  23428471.220 8
  21890637.589    21890639.465     6527080.164 9   6272513.415 8
 86  6 17  1 22  5.0800000  0  4G 6G13G 9G11
  21447788.951    21447790.173   -15887147.253 9  28944113.984 8
  20903849.929    20903854.929   -29879441.725 9  34566894.757 8
  20050818.050    20050821.837   -22991807.944 9  23426355.902 7
  21893363.202    21893364.361     6541400.367 9   6283672.017 8
 86  6 17  1 22 11.0800000  0  4G 6G13G 9G11
  21450606.225    21450608.248   -15872342.331 9  28955650.279 8
  20902298.998    20902303.257   -29887593.167 9  34560542.981 8
  20050306.344    20050307.679   -22994498.636 9  23424259.265 7
  21896089.026    21896091.051     6555729.241 9   6294837.370 8
 86  6 17  1 22 17.0800000  0  4G 6G13G 9G11
  21453427.424    21453428.743   -15857517.904 9  28967201.762 8
  20900751.708    20900754.968   -29895725.094 9  34554206.423 8
  20049798.968    20049800.471   -22997165.481 9  23422181.185 6
  21898817.484    21898820.076     6570066.730 9   6306009.443 8
 86  6 17  1 22 23.0800000  0  4G 6G13G 9G11
  21456251.714    21456254.142   -15842673.990 9  28978768.446 8
  20899208.092    20899211.097   -29903837.409 8  34547885.148 9
  20049297.203    20049298.334   -22999808.323 9  23420121.843 8
  21901547.300    21901550.474     6584412.846 9   6317188.235 8
 86  6 17  1 22 29.0800000  0  4G 6G13G 9G11
  21459079.357    21459082.331   -15827810.518 9  28990350.369 9
  20897668.226    20897671.067   -29911930.133 8  34541579.132 8
  20048799.987    20048799.305   -23002427.153 8  23418081.194 7
  21904278.399    21904281.903     6598767.531 9   6328373.699 8
 86  6 17  1 22 35.0800000  0  4G 6G13G 9G11
  21461911.713    21461914.801   -15812927.567 9  29001947.457 9
  20896131.905    20896134.947   -29920003.300 9  34535288.346 8
  20048305.243    20048306.141   -23005021.987 8  23416059.235 7
  21907011.044    21907015.003     6613130.809 9   6339565.846 8
 86  6 17  1 22 41.0800000  0  4G 6G13G 9G11
  21464748.139    21464750.380   -15798025.200 8  29013559.676 8
  20894598.880    20894603.097   -29928056.924 9  34529012.808 8
  20047816.012    20047817.514   -23007592.876 9  23414055.948 7
  21909746.240    21909749.395     6627502.617 9   6350764.675 8
 86  6 17  1 22 47.0800000  0  4G 6G13G 9G11
  21467587.141    21467590.230   -15783103.377 9  29025187.063 8
  20893070.857    20893073.735   -29936090.974 9  34522752.499 8
  20047332.065    20047331.574   -23010139.734 8  23412071.387 7
  21912482.992    21912486.989     6641883.004 9   6361970.160 8
 86  6 17  1 22 53.0800000  0  4G 6G13G 9G11
  21470430.061    21470433.018   -15768162.073 9  29036829.627 8
  20891545.452    20891548.919   -29944105.494 9  34516507.431 9
  20046851.973    20046851.696   -23012662.552 9  23410105.546 7
  21915221.148    21915224.719     6656271.996 9   6373182.362 8
 86  6 17  1 22 59.0800000  0  4G 6G13G 9G11
  21473276.242    21473280.433   -15753201.361 9  29048487.321 9
  20890023.350    20890027.754   -29952100.530 9  34510277.536 8
  20046374.933    20046376.203   -23015161.295 9  23408158.481 8
  21917960.982    21917964.863     6670669.477 8   6384401.174 8
 86  6 17  1 23  5.0800000  0  4G 6G13G 9G11
  21476127.150    21476130.648   -15738221.269 9  29060160.115 8
  20888506.057    20888509.177   -29960076.069 9  34504062.847 9
  20045904.305    20045905.937   -23017636.061 9  23406230.087 6
  21920701.857    21920705.523     6685075.399 9   6395626.570 7
 86  6 17  1 23 11.0800000  0  4G 6G13G 9G11
  21478981.973    21478986.782   -15723221.785 9  29071848.001 9
  20886992.098    20886995.510   -29968032.092 9  34497863.343 8
  20045436.746    20045440.343   -23020086.804 8  23404320.420 7
  21923444.579    21923448.154     6699489.752 9   6406858.531 8
 86  6 17  1 23 17.0800000  0  4G 6G13G 9G11
  21481840.751    21481843.351   -15708202.899 9  29083551.025 9
  20885482.539    20885484.670   -29975968.508 9  34491679.134 8
  20044976.593    20044977.946   -23022513.441 9  23402429.530 7
  21926189.258    21926192.534     6713912.547 8   6418097.059 8
 86  6 17  1 23 23.0800000  0  4G 6G13G 9G11
  21484702.073    21484706.073   -15693164.657 9  29095269.130 9
  20883976.296    20883978.542   -29983885.354 9  34485510.160 8
  20044519.081    20044520.483   -23024916.075 8  23400557.344 8
  21928934.632    21928939.434     6728343.683 9   6429342.101 8
 86  6 17  1 23 29.0800000  0  4G 6G13G 9G11
  21487566.716    21487570.849   -15678107.009 9  29107002.349 9
  20882473.612    20882476.260   -29991782.695 9  34479356.400 8
  20044065.270    20044067.135   -23027294.491 9  23398704.027 7
  21931682.868    21931686.463     6742783.247 9   6440593.711 7
 86  6 17  1 23 35.0800000  0  4G 6G13G 9G11
  21490436.592    21490439.472   -15663029.978 9  29118750.673 8
  20880974.464    20880976.875   -29999660.510 9  34473217.837 7
  20043618.021    20043619.253   -23029648.946 9  23396869.412 6
  21934431.905    21934437.042     6757231.173 9   6451851.834 8
 86  6 17  1 23 41.0800000  0  4G 6G13G 9G11
  21493308.904    21493312.611   -15647933.659 9  29130514.024 8
  20879479.273    20879481.105   -30007518.725 9  34467094.560 8
  20043173.321    20043174.971   -23031979.184 8  23395053.642 6
  21937183.636    21937187.456     6771687.502 9   6463116.499 7
 86  6 17  1 23 47.0800000  0  4G 6G13G 9G11
  21496185.713    21496188.959   -15632817.945 9  29142292.506 9
  20877986.879    20877989.286   -30015357.374 9  34460986.536 8
  20042735.097    20042736.204   -23034285.334 8  23393256.634 6
  21939935.694    21939939.694     6786152.198 9   6474387.687 8
 86  6 17  1 23 53.0800000  0  4G 6G13G 9G11
  21499066.293    21499068.781   -15617682.880 9  29154086.046 9
  20876499.470    20876501.868   -30023176.532 9  34454893.692 8
  20042300.003    20042301.820   -23036567.265 8  23391478.511 6
  21942689.819    21942694.353     6800625.206 9   6485665.355 9
 86  6 17  1 23 59.0800000  0  4G 6G13G 9G11
  21501949.367    21501952.355   -15602528.488 9  29165894.651 8
  20875014.751    20875017.221   -30030976.131 9  34448816.086 9
  20041871.232    20041872.388   -23038825.118 7  23389719.160 7
  21945445.353    21945450.410     6815106.569 9   6496949.527 8
 86  6 17  1 24  5.0800000  0  4G 6G13G 9G11
  21504836.760    21504840.163   -15587354.856 9  29177718.253 8
  20873533.809    20873537.078   -30038756.150 9  34442753.741 8
  20041446.536    20041446.097   -23041058.772 8  23387978.624 6
  21948203.675    21948208.417     6829596.248 8   6508240.182 8
 86  6 17  1 24 11.0800000  0  4G 6G13G 9G11
  21507727.762    21507730.875   -15572161.941 9  29189556.875 8
  20872057.824    20872059.237   -30046516.633 9  34436706.622 8
  20041025.655    20041026.300   -23043268.226 9  23386256.992 6
  21950961.947    21950966.146     6844094.172 9   6519537.255 8
 86  6 17  1 24 17.0800000  0  4G 6G13G 9G11
  21510622.967    21510624.322   -15556949.778 9  29201410.504 7
  20870585.260    20870587.295   -30054257.609 9  34430674.692 8
  20040610.726    20040610.153   -23045453.483 8  23384554.194 7
  21953721.927    21953726.553     6858600.342 9   6530840.757 8
 86  6 17  1 24 23.0800000  0  4G 6G13G 9G11
  21513521.405    21513524.280   -15541718.349 9  29213279.132 8
  20869115.305    20869118.090   -30061979.036 9  34424658.004 8
  20040198.623    20040199.018   -23047614.541 7  23382870.249 6
  21956483.419    21956489.216     6873114.730 8   6542150.672 8
 86  6 17  1 24 29.0800000  0  4G 6G13G 9G11
  21516423.369    21516426.001   -15526467.647 9  29225162.789 8
  20867650.057    20867653.383   -30069680.989 9  34418656.499 8
  20039792.431    20039792.900   -23049751.453 8  23381205.114 6
  21959248.435    21959251.434     6887637.273 8   6553466.942 9
 86  6 17  1 24 35.0800000  0  4G 6G13G 9G11
  21519330.419    21519331.435   -15511197.730 9  29237061.407 8
  20866188.456    20866190.514   -30077363.422 9  34412670.185 7
  20039391.213    20039391.050   -23051864.112 8  23379558.888 6
  21962013.010    21962016.607     6902168.031 9   6564789.596 8
 86  6 17  1 24 41.0800000  0  4G 6G13G 9G11
  21522239.909    21522239.792   -15495908.594 9  29248975.018 8
  20864730.300    20864732.008   -30085026.386 9  34406699.057 8
  20038993.093    20038993.583   -23053952.496 9  23377931.582 7
  21964779.145    21964784.128     6916706.951 8   6576118.621 9
 86  6 17  1 24 47.0800000  0  4G 6G13G 9G11
  21525150.852    21525152.567   -15480600.144 8  29260903.673 8
  20863275.164    20863277.992   -30092669.834 9  34400743.116 8
  20038600.363    20038601.547   -23056016.621 9  23376323.174 6
  21967547.779    21967552.380     6931254.064 9   6587454.027 8
 86  6 17  1 24 53.0800000  0  4G 6G13G 9G11
  21528069.186    21528069.601   -15465272.543 9  29272847.244 8
  20861824.504    20861827.355   -30100293.778 9  34394802.387 8
  20038211.764    20038212.895   -23058056.450 8  23374733.696 7
  21970317.111    21970320.792     6945809.309 8   6598795.768 7
 86  6 17  1 24 59.0800000  0  4G 6G13G 9G11
  21530988.975    21530991.433   -15449925.723 9  29284805.791 7
  20860377.959    20860380.712   -30107898.178 9  34388876.885 9
  20037828.707    20037829.481   -23060071.994 9  23373163.139 8
  21973089.037    21973092.777     6960372.655 9   6610143.817 7
 86  6 17  1 25  5.0800000  0  4G 6G13G 9G11
  21533912.971    21533915.188   -15434559.767 9  29296779.269 7
  20858934.570    20858936.725   -30115483.129 9  34382966.534 8
  20037449.648    20037449.603   -23062063.304 9  23371611.466 6
  21975862.898    21975866.315     6974944.020 8   6621498.122 8
 86  6 17  1 25 11.0800000  0  4G 6G13G 9G11
  21536840.464    21536841.544   -15419174.667 9  29308767.647 9
  20857495.146    20857498.321   -30123048.632 9  34377071.345 9
  20037075.166    20037075.744   -23064030.293 8  23370078.750 7
  21978636.214    21978639.260     6989523.444 9   6632858.710 8
 86  6 17  1 25 17.0800000  0  4G 6G13G 9G11
  21539771.499    21539773.858   -15403770.365 9  29320770.980 8
  20856058.854    20856060.927   -30130594.577 9  34371191.385 8
  20036705.827    20036707.096   -23065973.038 8  23368564.905 7
  21981412.152    21981415.767     7004110.984 9   6644225.630 8
 86  6 17  1 25 23.0800000  0  4G 6G13G 9G11
  21542706.631    21542708.154   -15388346.981 9  29332789.191 8
  20854626.559    20854630.546   -30138121.031 9  34365326.615 8
  20036340.676    20036342.995   -23067891.416 9  23367070.085 7
  21984190.905    21984193.284     7018706.596 8   6655598.812 9
 86  6 17  1 25 29.0800000  0  4G 6G13G 9G11
  21545646.133    21545646.690   -15372904.485 8  29344822.302 8
  20853198.392    20853200.421   -30145628.096 9  34359476.969 8
  20035980.237    20035981.921   -23069785.507 8  23365594.146 7
  21986969.006    21986971.405     7033310.155 9   6666978.213 8
 86  6 17  1 25 35.0800000  0  4G 6G13G 9G11
  21548588.190    21548589.347   -15357442.846 9  29356870.325 8
  20851772.874    20851775.690   -30153115.699 9  34353642.474 8
  20035624.931    20035625.347   -23071655.189 9  23364137.243 6
  21989749.665    21989752.532     7047921.714 9   6678363.838 9
 86  6 17  1 25 41.0800000  0  4G 6G13G 9G11
  21551534.770    21551535.747   -15341962.118 9  29368933.232 6
  20850352.533    20850353.568   -30160583.821 9  34347823.155 8
  20035273.202    20035274.571   -23073500.603 9  23362699.261 6
  21992531.790    21992533.944     7062541.224 9   6689755.670 8
 86  6 17  1 25 47.0800000  0  4G 6G13G 9G11
  21554484.491    21554484.000   -15326462.305 9  29381011.003 7
  20848934.484    20848936.121   -30168032.476 9  34342019.025 8
  20034927.044    20034928.419   -23075321.615 9  23361280.290 7
  21995315.711    21995318.157     7077168.721 9   6701153.713 9
 86  6 17  1 25 53.0800000  0  4G 6G13G 9G11
  21557436.994    21557438.186   -15310943.430 9  29393103.638 7
  20847520.575    20847522.843   -30175461.622 9  34336230.083 8
  20034585.674    20034585.736   -23077118.237 9  23359880.308 7
  21998100.585    21998103.327     7091804.133 9   6712557.934 9
 86  6 17  1 25 59.0800000  0  4G 6G13G 9G11
  21560394.357    21560394.289   -15295405.488 9  29405211.108 8
  20846109.746    20846112.814   -30182871.221 9  34330456.364 8
  20034247.911    20034249.943   -23078890.422 9  23358499.389 7
  22000887.271    22000889.568     7106447.486 9   6723968.336 7
 86  6 17  1 26  5.0800000  0  4G 6G13G 9G11
  21563354.047    21563356.513   -15279848.497 9  29417333.445 8
  20844703.730    20844706.226   -30190261.423 9  34324697.777 8
  20033914.784    20033917.436   -23080638.304 8  23357137.398 7
  22003675.466    22003677.363     7121098.638 9   6735384.803 8
 86  6 17  1 26 11.0800000  0  4G 6G13G 9G11
  21566318.221    21566319.474   -15264272.519 9  29429470.575 7
  20843300.883    20843303.696   -30197632.167 9  34318954.331 7
  20033586.779    20033587.870   -23082361.798 8  23355794.408 7
  22006464.514    22006467.958     7135757.722 9   6746807.469 8
 86  6 17  1 26 17.0800000  0  4G 6G13G 9G11
  21569285.719    21569287.437   -15248677.460 9  29441622.568 7
  20841902.008    20841904.166   -30204983.466 9  34313226.058 8
  20033263.973    20033266.070   -23084060.793 9  23354470.521 7
  22009255.798    22009259.183     7150424.644 9   6758236.234 8
 86  6 17  1 26 23.0800000  0  4G 6G13G 9G11
  21572256.850    21572258.916   -15233063.377 9  29453789.376 8
  20840507.052    20840509.076   -30212315.210 9  34307513.014 8
  20032945.469    20032947.955   -23085735.411 9  23353165.624 8
  22012047.274    22012050.636     7165099.355 9   6769671.076 9
 86  6 17  1 26 29.0800000  0  4G 6G13G 9G11
  21575230.697    21575233.343   -15217430.299 9  29465971.005 7
  20839115.509    20839117.249   -30219627.431 9  34301815.194 8
  20032630.945    20032632.614   -23087385.550 9  23351879.794 6
  22014841.653    22014845.761     7179781.863 9   6781111.988 8
 86  6 17  1 26 35.0800000  0  4G 6G13G 9G11
  21578209.359    21578213.173   -15201778.207 9  29478167.431 8
  20837727.973    20837730.592   -30226920.249 9  34296132.467 8
  20032321.458    20032322.797   -23089011.264 9  23350613.000 6
  22017637.109    22017639.896     7194472.147 9   6792558.953 9
 86  6 17  1 26 41.0800000  0  4G 6G13G 9G11
  21581190.845    21581195.530   -15186107.138 8  29490378.636 8
  20836344.222    20836345.725   -30234193.591 9  34290464.940 8
  20032016.462    20032019.414   -23090612.414 8  23349365.331 6
  22020434.626    22020437.344     7209170.237 9   6804012.013 8
 86  6 17  1 26 47.0800000  0  4G 6G13G 9G11
  21584176.717    21584180.292   -15170417.092 8  29502604.639 7
  20834964.184    20834965.461   -30241447.468 9  34284812.569 8
  20031716.816    20031719.101   -23092189.150 9  23348136.712 8
  22023233.011    22023236.087     7223876.096 8   6815471.119 8
 86  6 17  1 26 53.0800000  0  4G 6G13G 9G11
  21587167.737    21587170.524   -15154708.145 8  29514845.371 7
  20833587.265    20833589.797   -30248681.939 9  34279175.332 8
  20031420.196    20031424.062   -23093741.421 8  23346927.151 7
  22026033.358    22026035.644     7238589.706 9   6826936.265 8
 86  6 17  1 26 59.0800000  0  4G 6G13G 9G11
  21590158.787    21590163.793   -15138980.228 9  29527100.864 8
  20832214.050    20832217.237   -30255896.910 9  34273553.282 8
  20031130.246    20031132.378   -23095269.189 9  23345736.673 7
  22028835.107    22028836.926     7253311.078 9   6838407.465 8
 86  6 17  1 27  5.0800000  0  4G 6G13G 9G11
  21593155.762    21593160.638   -15123233.389 9  29539371.127 8
  20830844.546    20830846.587   -30263092.530 9  34267946.314 8
  20030844.091    20030846.334   -23096772.432 9  23344565.328 7
  22031637.900    22031639.598     7268040.106 9   6849884.625 9
 86  6 17  1 27 11.0800000  0  4G 6G13G 9G11
  21596157.027    21596160.241   -15107467.643 9  29551656.113 9
  20829479.767    20829482.211   -30270268.718 9  34262354.488 9
  20030562.143    20030565.238   -23098251.206 7  23343413.022 7
  22034442.505    22034444.010     7282776.780 9   6861367.756 8
 86  6 17  1 27 17.0800000  0  4G 6G13G 9G11
  21599160.326    21599163.485   -15091683.016 8  29563955.807 8
  20828117.480    20828119.329   -30277425.465 9  34256777.812 7
  20030285.928    20030289.438   -23099705.235 8  23342280.002 7
  22037247.555    22037250.583     7297521.131 9   6872856.853 8
 86  6 17  1 27 23.0800000  0  4G 6G13G 9G11
  21602167.772    21602171.218   -15075879.567 9  29576270.170 7
  20826759.774    20826761.015   -30284562.757 9  34251216.296 7
  20030014.273    20030016.005   -23101134.947 9  23341165.947 6
  22040054.503    22040056.714     7312273.123 9   6884351.906 8
 86  6 17  1 27 29.0800000  0  4G 6G13G 9G11
  21605177.686    21605181.557   -15060057.203 9  29588599.272 8
  20825405.638    20825407.062   -30291680.622 9  34245669.912 9
  20029746.108    20029749.444   -23102539.997 8  23340071.109 8
  22042863.845    22042866.140     7327032.809 9   6895852.956 8
 86  6 17  1 27 35.0800000  0  4G 6G13G 9G11
  21608193.604    21608196.088   -15044216.000 9  29600943.062 9
  20824054.879    20824057.132   -30298779.062 9  34240138.667 8
  20029484.290    20029486.938   -23103920.582 9  23338995.326 7
  22045673.252    22045676.150     7341800.101 9   6907359.942 8
 86  6 17  1 27 41.0800000  0  4G 6G13G 9G11
  21611211.069    21611215.043   -15028355.897 9  29613301.581 8
  20822707.958    20822709.280   -30305858.076 9  34234622.562 8
  20029227.163    20029228.046   -23105276.542 8  23337938.739 8
  22048484.461    22048487.629     7356574.998 9   6918872.846 9
 86  6 17  1 27 47.0800000  0  4G 6G13G 9G11
  21614232.710    21614236.683   -15012476.990 9  29625674.749 9
  20821364.465    20821365.246   -30312917.675 9  34229121.576 8
  20028973.443    20028974.626   -23106607.949 9  23336901.293 7
  22051298.433    22051300.869     7371357.434 9   6930391.621 9
 86  6 17  1 27 53.0800000  0  4G 6G13G 9G11
  21617259.331    21617261.830   -14996579.267 9  29638062.582 8
  20820024.581    20820026.724   -30319957.892 9  34223635.697 8
  20028723.871    20028725.819   -23107914.711 8  23335883.015 6
  22054112.072    22054115.794     7386147.379 9   6941916.250 8
 86  6 17  1 27 59.0800000  0  4G 6G13G 9G11
  21620286.813    21620290.958   -14980662.738 9  29650465.055 8
  20818688.904    20818690.406   -30326978.701 9  34218164.938 8
  20028481.274    20028482.294   -23109196.861 8  23334883.947 8
  22056927.946    22056932.056     7400944.803 9   6953446.710 9
 86  6 17  1 28  5.0800000  0  4G 6G13G 9G11
  21623319.217    21623321.786   -14964727.374 9  29662882.217 8
  20817356.528    20817358.683   -30333980.035 9  34212709.359 8
  20028239.839    20028242.115   -23110454.402 8  23333904.046 7
  22059745.675    22059748.387     7415749.752 9   6964983.024 8
 86  6 17  1 28 11.0800000  0  4G 6G13G 9G11
  21626356.226    21626358.215   -14948773.267 9  29675313.974 7
  20816027.178    20816028.821   -30340961.995 9  34207268.876 9
  20028007.239    20028008.600   -23111687.398 9  23332943.258 8
  22062563.304    22062567.780     7430562.222 8   6976525.214 8
 86  6 17  1 28 17.0800000  0  4G 6G13G 9G11
  21629394.981    21629397.213   -14932800.376 9  29687760.383 8
  20814702.113    20814704.701   -30347924.543 9  34201843.514 8
  20027775.889    20027776.818   -23112895.665 8  23332001.765 7
  22065384.106    22065388.147     7445382.199 9   6988073.236 8
 86  6 17  1 28 23.0800000  0  4G 6G13G 9G11
  21632437.575    21632441.145   -14916808.679 9  29700221.446 8
  20813381.067    20813383.492   -30354867.651 9  34196433.307 8
  20027550.834    20027554.402   -23114079.280 9  23331079.473 8
  22068205.946    22068209.837     7460209.612 9   6999627.055 8
 86  6 17  1 28 29.0800000  0  4G 6G13G 9G11
  21635484.031    21635487.287   -14900798.240 9  29712697.097 8
  20812063.108    20812066.210   -30361791.360 9  34191038.208 8
  20027329.462    20027332.505   -23115238.295 8  23330176.311 7
  22071028.383    22071033.114     7475044.406 9   7011186.636 8
 86  6 17  1 28 35.0800000  0  4G 6G13G 9G11
  21638534.178    21638536.706   -14884769.145 9  29725187.301 9
  20810748.731    20810752.902   -30368695.734 9  34185658.182 9
  20027113.841    20027115.850   -23116372.602 8  23329292.447 7
  22073853.269    22073856.736     7489886.624 9   7022751.994 8
 86  6 17  1 28 41.0800000  0  4G 6G13G 9G11
  21641589.589    21641591.274   -14868721.296 9  29737692.107 8
  20809438.430    20809442.128   -30375580.788 9  34180293.205 8
  20026903.210    20026906.788   -23117482.160 8  23328427.856 7
  22076678.854    22076683.205     7504736.223 9   7034323.122 8
 86  6 17  1 28 47.0800000  0  4G 6G13G 9G11
  21644645.887    21644649.332   -14852654.763 9  29750211.457 8
  20808131.663    20808134.942   -30382446.430 9  34174943.362 9
  20026696.595    20026698.798   -23118567.106 8  23327582.442 7
  22079505.915    22079510.158     7519593.208 9   7045899.992 9
 86  6 17  1 28 53.0800000  0  4G 6G13G 9G11
  21647705.365    21647709.763   -14836569.529 9  29762745.404 8
  20806829.560    20806832.783   -30389292.684 9  34169608.623 8
  20026495.293    20026498.018   -23119627.320 8  23326756.300 8
  22082335.026    22082339.932     7534457.522 9   7057482.563 9
 86  6 17  1 28 59.0800000  0  4G 6G13G 9G11
  21650771.709    21650775.324   -14820465.580 8  29775293.918 8
  20805529.151    20805533.067   -30396119.468 9  34164289.063 8
  20026297.827    20026299.501   -23120662.770 9  23325949.454 6
  22085165.375    22085169.489     7549329.215 8   7069070.889 8
 86  6 17  1 29  5.0800000  0  4G 6G13G 9G11
  21653838.741    21653843.156   -14804343.018 8  29787856.952 8
  20804235.020    20804238.439   -30402926.909 9  34158984.558 8
  20026105.379    20026108.594   -23121673.511 8  23325161.858 7
  22087996.226    22088000.649     7564208.187 9   7080664.903 9
 86  6 17  1 29 11.0800000  0  4G 6G13G 9G11
  21656910.524    21656914.496   -14788201.809 9  29800434.484 8
  20802943.160    20802946.692   -30409714.914 9  34153695.210 8
  20025917.812    20025921.057   -23122659.495 8  23324393.571 7
  22090829.503    22090833.431     7579094.456 8   7092264.580 9
 86  6 17  1 29 17.0800000  0  4G 6G13G 9G11
  21659985.596    21659989.398   -14772041.997 9  29813026.538 8
  20801654.362    20801657.216   -30416483.551 9  34148420.953 8
  20025736.298    20025737.781   -23123620.831 9  23323644.474 8
  22093663.636    22093668.208     7593988.039 9   7103869.967 8
 86  6 17  1 29 23.0800000  0  4G 6G13G 9G11
  21663064.932    21663067.420   -14755863.484 8  29825633.151 8
  20800371.108    20800373.138   -30423232.730 9  34143161.848 8
  20025557.176    20025558.449   -23124557.418 8  23322914.668 7
  22096498.964    22096503.129     7608888.899 9   7115481.035 8
 86  6 17  1 29 29.0800000  0  4G 6G13G 9G11
  21666146.960    21666150.393   -14739666.406 9  29838254.237 9
  20799089.926    20799091.647   -30429962.577 9  34137917.808 8
  20025382.920    20025385.055   -23125469.317 8  23322204.099 8
  22099335.447    22099339.882     7623796.992 9   7127097.725 8
 86  6 17  1 29 35.0800000  0  4G 6G13G 9G11
  21669232.965    21669235.596   -14723450.720 9  29850889.822 8
  20797813.491    20797815.752   -30436673.088 9  34132688.850 8
  20025214.833    20025217.661   -23126356.415 8  23321512.861 6
  22102173.370    22102178.204     7638712.348 9   7138720.071 8
 86  6 17  1 29 41.0800000  0  4G 6G13G 9G11
  21672322.949    21672325.939   -14707216.515 9  29863539.843 8
  20796539.841    20796543.224   -30443364.332 9  34127474.901 7
  20025052.310    20025051.694   -23127218.634 8  23320840.987 8
  22105012.641    22105017.450     7653634.887 9   7150348.026 9
 86  6 17  1 29 47.0800000  0  4G 6G13G 9G11
  21675415.537    21675417.708   -14690963.743 9  29876204.338 8
  20795270.904    20795273.456   -30450036.284 9  34122275.967 8
  20024892.515    20024894.213   -23128056.128 9  23320188.399 8
  22107854.151    22107858.594     7668564.537 9   7161981.502 8
 86  6 17  1 29 53.0800000  0  4G 6G13G 9G11
  21678512.644    21678513.815   -14674692.401 9  29888883.300 9
  20794004.343    20794006.818   -30456688.854 9  34117092.147 8
  20024737.364    20024739.287   -23128868.871 8  23319555.094 8
  22110696.700    22110700.105     7683501.376 9   7173620.602 9
 86  6 17  1 29 59.0800000  0  4G 6G13G 9G11
  21681612.072    21681614.501   -14658402.517 9  29901576.696 8
  20792742.553    20792745.273   -30463321.886 9  34111923.573 8
  20024588.473    20024589.369   -23129656.769 8  23318941.148 7
  22113540.347    22113545.173     7698445.376 9   7185265.278 8
